[[{"header":{"parameterUnit":"m.s-1","parameterCategory":1,"la1":30.6,"la2":29.2853,"lo1":-89.7004,"lo2":-87.6739,"dx":0.0162,"dy":0.0183,"nx":112,"ny":82,"refTime":"2023-02-12T06:00:00:Z","depth":0,"parameterNumber":2,"parameterNumberName":"U-component_of_WINDS"},"data":[0.0,0.0,0.0,0.0,0.0,0.0,0.0,0.0,0.0,0.0,0.0,0.0,0.0,0.0,0.0,0.0,0.0,0.0,0.0,0.0,0.0,0.0,0.0,0.0,0.0,0.0,0.0,0.0,0.0,0.0,0.0,0.0,0.0,0.0,0.0,0.0,0.0,0.0,0.0,0.0,0.0,0.0,0.0,0.0,0.0,0.0,0.0,0.0,0.0,0.0,0.0,0.0,0.0,0.0,0.0,0.0,0.0,0.0,0.0,0.0,0.0,0.0,0.0,0.0,0.0,0.0,0.0,0.0,0.0,0.0,0.0,0.0,0.0,0.0,0.0,0.0,0.0,0.0,0.0,0.0,0.0,0.0,0.0,0.0,0.0,0.0,0.0,0.0,0.0,0.0,0.0,6.8054,6.8678,6.9376,7.0036,7.011,7.011,7.011,0.0,0.0,0.0,0.0,0.0,0.0,0.0,0.0,0.0,0.0,0.0,0.0,0.0,0.0,0.0,0.0,0.0,0.0,0.0,0.0,0.0,0.0,0.0,0.0,0.0,0.0,0.0,0.0,0.0,0.0,0.0,0.0,0.0,0.0,0.0,0.0,0.0,0.0,0.0,0.0,0.0,0.0,0.0,0.0,0.0,0.0,0.0,0.0,0.0,0.0,0.0,0.0,0.0,0.0,0.0,0.0,0.0,0.0,0.0,0.0,0.0,0.0,0.0,0.0,0.0,0.0,0.0,0.0,0.0,0.0,0.0,0.0,0.0,0.0,0.0,0.0,0.0,0.0,0.0,0.0,0.0,0.0,0.0,0.0,0.0,0.0,0.0,0.0,0.0,0.0,0.0,0.0,0.0,0.0,0.0,0.0,0.0,0.0,0.0,0.0,0.0,0.0,0.0,0.0,6.8972,6.9669,6.9853,6.9963,7.0073,7.011,7.011,7.011,0.0,0.0,0.0,0.0,0.0,0.0,0.0,0.0,0.0,0.0,0.0,0.0,0.0,0.0,0.0,0.0,0.0,0.0,0.0,0.0,0.0,0.0,0.0,0.0,0.0,0.0,0.0,0.0,0.0,0.0,0.0,0.0,0.0,0.0,0.0,0.0,0.0,0.0,0.0,0.0,0.0,0.0,0.0,0.0,0.0,0.0,0.0,0.0,0.0,0.0,0.0,0.0,0.0,0.0,0.0,0.0,0.0,0.0,0.0,0.0,0.0,0.0,0.0,0.0,0.0,0.0,0.0,0.0,0.0,0.0,0.0,0.0,0.0,0.0,0.0,0.0,0.0,0.0,0.0,0.0,0.0,0.0,0.0,0.0,0.0,0.0,0.0,0.0,0.0,0.0,0.0,0.0,0.0,0.0,0.0,0.0,0.0,0.0,0.0,0.0,0.0,0.0,0.0,6.9559,6.9853,7.066,7.077,7.0917,7.1358,7.1394,7.1394,7.1394,7.066,0.0,0.0,0.0,0.0,0.0,0.0,0.0,0.0,0.0,0.0,0.0,0.0,0.0,0.0,0.0,0.0,0.0,0.0,0.0,0.0,0.0,0.0,0.0,0.0,0.0,0.0,0.0,0.0,0.0,0.0,0.0,0.0,0.0,0.0,0.0,0.0,0.0,0.0,0.0,0.0,0.0,0.0,0.0,0.0,0.0,0.0,0.0,0.0,0.0,0.0,0.0,0.0,0.0,0.0,0.0,0.0,0.0,0.0,0.0,0.0,0.0,0.0,0.0,0.0,0.0,0.0,0.0,0.0,0.0,0.0,0.0,0.0,0.0,0.0,0.0,0.0,0.0,0.0,0.0,0.0,0.0,0.0,0.0,0.0,0.0,0.0,0.0,0.0,0.0,0.0,0.0,0.0,0.0,0.0,0.0,0.0,0.0,0.0,0.0,0.0,0.0,0.0,7.055,7.0917,7.1541,7.1578,7.1835,7.2459,7.2496,7.2496,7.2496,7.1945,0.0,0.0,0.0,0.0,0.0,0.0,0.0,0.0,0.0,0.0,0.0,0.0,0.0,0.0,0.0,0.0,0.0,0.0,0.0,0.0,0.0,0.0,0.0,0.0,0.0,0.0,0.0,0.0,0.0,0.0,0.0,0.0,0.0,0.0,0.0,0.0,0.0,0.0,0.0,0.0,0.0,0.0,0.0,0.0,0.0,0.0,0.0,0.0,0.0,0.0,0.0,0.0,0.0,0.0,0.0,0.0,0.0,0.0,0.0,0.0,0.0,0.0,0.0,0.0,0.0,0.0,0.0,0.0,0.0,0.0,0.0,0.0,0.0,0.0,0.0,0.0,0.0,0.0,0.0,0.0,0.0,0.0,0.0,0.0,0.0,0.0,0.0,0.0,0.0,0.0,0.0,0.0,0.0,0.0,0.0,0.0,0.0,0.0,0.0,0.0,0.0,0.0,7.1872,7.2349,7.2422,7.2422,7.2459,7.2496,7.2496,7.2496,7.2496,7.2459,0.0,0.0,0.0,0.0,0.0,0.0,0.0,0.0,0.0,0.0,0.0,0.0,0.0,0.0,0.0,0.0,0.0,0.0,0.0,0.0,0.0,0.0,0.0,0.0,0.0,0.0,0.0,0.0,0.0,0.0,0.0,0.0,0.0,0.0,0.0,0.0,0.0,0.0,0.0,0.0,0.0,0.0,0.0,0.0,0.0,0.0,0.0,0.0,0.0,0.0,0.0,0.0,0.0,0.0,0.0,0.0,0.0,0.0,0.0,0.0,0.0,0.0,0.0,0.0,0.0,0.0,0.0,0.0,0.0,0.0,0.0,0.0,0.0,0.0,0.0,0.0,0.0,0.0,0.0,0.0,0.0,0.0,0.0,0.0,0.0,0.0,0.0,0.0,0.0,0.0,0.0,0.0,0.0,0.0,0.0,0.0,0.0,0.0,0.0,0.0,0.0,0.0,7.2312,7.2496,0.0,7.2496,7.2496,7.2496,7.2496,7.2496,7.2496,0.0,0.0,0.0,0.0,0.0,0.0,0.0,0.0,0.0,0.0,0.0,0.0,0.0,0.0,0.0,0.0,0.0,0.0,0.0,0.0,0.0,0.0,0.0,0.0,0.0,0.0,0.0,0.0,0.0,0.0,0.0,0.0,0.0,0.0,0.0,0.0,0.0,0.0,0.0,0.0,0.0,0.0,0.0,0.0,0.0,0.0,0.0,0.0,0.0,0.0,0.0,0.0,0.0,0.0,0.0,0.0,0.0,0.0,0.0,0.0,0.0,0.0,0.0,0.0,0.0,0.0,0.0,0.0,0.0,0.0,0.0,0.0,0.0,0.0,0.0,0.0,0.0,0.0,0.0,0.0,0.0,0.0,0.0,0.0,0.0,0.0,0.0,0.0,0.0,0.0,0.0,0.0,0.0,0.0,0.0,0.0,0.0,0.0,0.0,0.0,0.0,0.0,7.2496,7.2496,7.2496,0.0,7.2496,7.2496,7.2496,7.2496,7.2496,7.2496,0.0,0.0,0.0,0.0,0.0,0.0,0.0,0.0,0.0,0.0,0.0,0.0,0.0,0.0,0.0,0.0,0.0,0.0,0.0,0.0,0.0,0.0,0.0,0.0,0.0,0.0,0.0,0.0,0.0,0.0,0.0,0.0,0.0,0.0,0.0,0.0,0.0,0.0,0.0,0.0,0.0,0.0,0.0,0.0,0.0,0.0,0.0,0.0,0.0,0.0,0.0,0.0,0.0,0.0,0.0,0.0,0.0,0.0,0.0,0.0,0.0,0.0,0.0,0.0,0.0,0.0,0.0,0.0,0.0,0.0,0.0,0.0,0.0,0.0,0.0,0.0,0.0,0.0,0.0,0.0,0.0,0.0,0.0,0.0,0.0,0.0,0.0,0.0,0.0,0.0,0.0,0.0,0.0,0.0,0.0,0.0,0.0,0.0,0.0,0.0,0.0,0.0,7.2496,7.2496,7.2496,7.2496,7.2496,7.2532,7.2532,7.2532,7.2532,0.0,0.0,0.0,0.0,0.0,0.0,0.0,0.0,0.0,0.0,0.0,0.0,0.0,0.0,0.0,0.0,0.0,0.0,0.0,0.0,0.0,0.0,0.0,0.0,0.0,0.0,0.0,0.0,0.0,0.0,0.0,0.0,0.0,0.0,0.0,0.0,0.0,0.0,0.0,0.0,0.0,0.0,0.0,0.0,0.0,0.0,0.0,0.0,0.0,0.0,0.0,0.0,0.0,0.0,0.0,0.0,0.0,0.0,0.0,0.0,0.0,0.0,0.0,0.0,0.0,0.0,0.0,0.0,0.0,0.0,0.0,0.0,0.0,0.0,0.0,0.0,0.0,0.0,0.0,0.0,0.0,0.0,0.0,0.0,0.0,0.0,0.0,0.0,0.0,0.0,0.0,0.0,0.0,0.0,0.0,0.0,0.0,0.0,0.0,0.0,0.0,0.0,0.0,7.2496,7.2496,7.2716,7.3303,7.334,7.3597,7.4147,7.4184,7.4184,7.4184,0.0,0.0,0.0,0.0,0.0,0.0,0.0,0.0,0.0,0.0,0.0,0.0,0.0,0.0,0.0,0.0,0.0,0.0,0.0,0.0,0.0,0.0,0.0,0.0,0.0,0.0,0.0,0.0,0.0,0.0,0.0,0.0,0.0,0.0,0.0,0.0,0.0,0.0,0.0,0.0,0.0,0.0,0.0,0.0,0.0,0.0,0.0,0.0,0.0,0.0,0.0,0.0,0.0,0.0,0.0,0.0,0.0,0.0,0.0,0.0,0.0,0.0,0.0,0.0,0.0,0.0,0.0,0.0,0.0,0.0,0.0,0.0,0.0,0.0,0.0,0.0,0.0,0.0,0.0,0.0,0.0,0.0,0.0,0.0,0.0,0.0,0.0,0.0,0.0,0.0,0.0,0.0,0.0,0.0,0.0,0.0,0.0,0.0,0.0,0.0,0.0,0.0,7.3067,7.3382,7.3787,7.4286,7.4359,7.4543,7.5058,7.5095,7.5095,7.5095,0.0,0.0,0.0,0.0,0.0,0.0,0.0,0.0,0.0,0.0,0.0,0.0,0.0,0.0,0.0,0.0,0.0,0.0,0.0,0.0,0.0,0.0,0.0,0.0,0.0,0.0,0.0,0.0,0.0,0.0,0.0,0.0,0.0,0.0,0.0,0.0,0.0,0.0,0.0,0.0,0.0,0.0,0.0,0.0,0.0,0.0,0.0,0.0,0.0,0.0,0.0,0.0,0.0,0.0,0.0,0.0,0.0,0.0,0.0,0.0,0.0,0.0,0.0,0.0,0.0,0.0,0.0,0.0,0.0,0.0,0.0,0.0,0.0,0.0,0.0,0.0,0.0,0.0,0.0,0.0,0.0,0.0,0.0,0.0,0.0,0.0,0.0,0.0,0.0,0.0,0.0,0.0,0.0,0.0,0.0,0.0,0.0,0.0,0.0,0.0,0.0,0.0,7.4086,7.4748,7.5248,7.5494,7.5494,7.5531,7.5604,7.5604,7.5604,7.5604,0.0,0.0,0.0,0.0,0.0,0.0,0.0,0.0,0.0,0.0,0.0,0.0,0.0,0.0,0.0,0.0,0.0,0.0,0.0,0.0,0.0,0.0,0.0,0.0,0.0,0.0,0.0,0.0,0.0,0.0,0.0,0.0,0.0,0.0,0.0,0.0,0.0,0.0,0.0,0.0,0.0,0.0,0.0,0.0,0.0,0.0,0.0,0.0,0.0,0.0,0.0,0.0,0.0,0.0,0.0,0.0,0.0,0.0,0.0,0.0,7.1376,0.0,0.0,0.0,0.0,0.0,0.0,0.0,0.0,0.0,0.0,0.0,0.0,0.0,0.0,0.0,0.0,0.0,0.0,0.0,0.0,0.0,0.0,0.0,0.0,0.0,0.0,0.0,0.0,0.0,0.0,0.0,0.0,0.0,0.0,0.0,0.0,0.0,0.0,0.0,0.0,0.0,7.4932,7.508,7.5469,7.6269,7.6111,7.6309,7.7091,7.7008,7.6948,7.7127,0.0,0.0,0.0,0.0,0.0,0.0,0.0,0.0,0.0,0.0,0.0,0.0,0.0,0.0,0.0,0.0,0.0,0.0,0.0,0.0,0.0,0.0,0.0,0.0,0.0,0.0,0.0,0.0,0.0,0.0,0.0,0.0,0.0,0.0,0.0,0.0,0.0,0.0,0.0,0.0,0.0,0.0,0.0,0.0,0.0,0.0,0.0,0.0,0.0,0.0,0.0,0.0,0.0,0.0,0.0,0.0,0.0,0.0,0.0,0.0,0.0,7.2058,0.0,0.0,0.0,0.0,0.0,0.0,0.0,0.0,0.0,0.0,0.0,0.0,0.0,0.0,0.0,0.0,0.0,0.0,0.0,0.0,0.0,0.0,0.0,0.0,0.0,0.0,0.0,0.0,0.0,0.0,0.0,0.0,0.0,0.0,0.0,0.0,0.0,0.0,0.0,0.0,7.5743,7.6169,7.6655,7.7234,7.7213,7.734,7.79,7.782,7.782,7.7937,7.7879,0.0,0.0,0.0,0.0,0.0,0.0,0.0,0.0,0.0,0.0,0.0,0.0,0.0,0.0,0.0,0.0,0.0,0.0,0.0,0.0,0.0,0.0,0.0,0.0,0.0,0.0,0.0,0.0,0.0,0.0,0.0,0.0,0.0,0.0,0.0,0.0,0.0,0.0,0.0,0.0,0.0,0.0,0.0,0.0,0.0,0.0,0.0,0.0,0.0,0.0,0.0,0.0,0.0,7.3521,7.3595,7.3595,7.3744,7.3818,7.3818,7.3818,7.3617,7.3252,0.0,0.0,0.0,0.0,0.0,0.0,0.0,0.0,0.0,0.0,0.0,0.0,0.0,0.0,0.0,0.0,0.0,0.0,0.0,0.0,0.0,0.0,0.0,0.0,0.0,7.4918,7.4771,0.0,0.0,0.0,0.0,0.0,0.0,0.0,0.0,0.0,0.0,0.0,0.0,7.6648,7.7319,7.79,7.8014,7.8165,7.8221,7.8221,7.8221,7.8221,7.8221,7.8071,7.7957,0.0,0.0,0.0,0.0,0.0,0.0,0.0,0.0,0.0,0.0,0.0,0.0,0.0,0.0,0.0,0.0,0.0,0.0,0.0,0.0,0.0,0.0,0.0,0.0,0.0,0.0,0.0,0.0,0.0,0.0,0.0,0.0,6.8365,6.9082,0.0,0.0,0.0,0.0,0.0,0.0,0.0,0.0,0.0,0.0,0.0,0.0,0.0,7.3224,7.3224,7.3335,7.3372,7.341,7.4115,7.4413,7.445,7.5156,7.5453,7.5453,7.5453,0.0,7.3447,7.4153,0.0,0.0,0.0,0.0,0.0,0.0,0.0,0.0,0.0,0.0,0.0,0.0,0.0,0.0,0.0,0.0,0.0,0.0,0.0,0.0,0.0,0.0,7.5363,7.5363,7.5095,7.5065,0.0,7.5249,7.4771,7.4882,7.4918,0.0,0.0,0.0,0.0,0.0,0.0,0.0,7.7577,7.7826,7.8071,7.8221,7.8051,7.79,7.8014,7.79,7.79,7.8014,7.8014,7.8014,7.7957,7.7842,0.0,0.0,0.0,0.0,0.0,0.0,0.0,0.0,0.0,0.0,0.0,0.0,0.0,0.0,0.0,0.0,0.0,0.0,0.0,0.0,0.0,0.0,0.0,0.0,0.0,0.0,0.0,0.0,0.0,6.8578,6.9036,6.9457,6.9902,7.036,0.0,0.0,0.0,0.0,0.0,0.0,0.0,0.0,0.0,7.3372,7.3372,7.3595,7.4041,7.4041,7.4301,7.4747,7.5081,7.5267,7.5267,7.5639,7.5787,7.5787,7.5787,7.5378,7.4784,7.5118,7.5213,7.5197,0.0,0.0,0.0,0.0,7.5606,7.5606,7.5661,7.5624,0.0,7.5551,0.0,0.0,0.0,0.0,0.0,0.0,0.0,0.0,0.0,0.0,0.0,7.667,7.6516,7.6507,7.6875,7.6594,7.6276,0.0,7.6276,7.6276,7.6276,0.0,0.0,0.0,0.0,0.0,7.7703,7.7842,7.7957,7.7879,7.7937,7.79,7.79,7.7842,7.782,7.79,7.79,7.79,7.79,7.7842,7.7762,0.0,0.0,0.0,0.0,0.0,0.0,0.0,0.0,0.0,0.0,0.0,0.0,0.0,0.0,0.0,0.0,0.0,0.0,0.0,0.0,0.0,0.0,0.0,0.0,0.0,0.0,0.0,0.0,6.9309,7.0003,7.0326,7.0745,7.119,0.0,0.0,0.0,0.0,0.0,0.0,7.3372,7.3595,7.3707,7.3707,7.3892,7.4301,7.4896,7.4896,7.5193,7.5787,7.601,7.6121,7.6121,7.6344,7.6419,7.6419,7.6419,7.6419,7.6419,7.6196,7.6067,7.5995,7.6217,7.6236,7.618,7.6236,7.6292,7.6292,7.6401,7.6419,7.6419,7.6347,0.0,7.6236,7.6124,0.0,0.0,0.0,0.0,7.6781,7.6876,7.726,7.7643,7.7643,7.7584,7.7524,7.7524,7.7402,7.7304,0.0,7.7304,7.7304,7.7304,0.0,0.0,0.0,0.0,7.762,7.762,7.7783,7.79,7.7703,7.79,7.7957,7.7937,7.7937,7.7937,7.7937,7.7937,7.79,7.7842,7.782,7.7762,7.762,0.0,0.0,0.0,0.0,0.0,0.0,0.0,0.0,0.0,0.0,0.0,0.0,0.0,0.0,0.0,0.0,0.0,0.0,0.0,0.0,0.0,0.0,0.0,0.0,0.0,0.0,0.0,0.0,0.0,7.1961,7.2072,0.0,0.0,0.0,0.0,7.3335,7.3372,7.3372,7.3372,7.4115,7.4524,7.4524,7.5267,7.5676,7.5713,7.5713,7.575,7.5787,7.6642,7.7013,7.705,7.783,7.8165,7.8165,7.8165,7.8165,7.809,7.7347,7.7013,7.7087,7.7868,7.8165,7.8165,7.8165,7.8165,7.8165,7.8165,7.8165,7.8165,7.8165,7.8016,7.7866,7.7866,7.7789,0.0,0.0,7.7903,7.794,7.8146,7.8014,7.782,7.782,7.7584,7.7341,7.7341,7.7341,7.7304,0.0,7.7304,7.7304,7.7304,0.0,7.7304,7.7304,7.7463,7.762,7.762,7.7703,7.7842,7.7957,7.8014,7.8071,7.8276,7.8276,7.8276,7.8276,7.8276,7.8221,7.8014,7.7842,7.7762,7.762,7.7402,0.0,0.0,0.0,0.0,0.0,0.0,0.0,0.0,0.0,0.0,0.0,0.0,0.0,0.0,0.0,0.0,0.0,0.0,0.0,0.0,0.0,0.0,0.0,0.0,0.0,0.0,0.0,0.0,7.2146,7.2629,0.0,7.3372,7.3372,7.3372,7.3372,7.3855,7.4153,7.4153,7.4933,7.5378,7.5378,7.5639,7.6047,7.6604,7.6642,7.6902,7.7385,7.7719,7.7868,7.7868,7.8165,7.8276,7.8276,7.8276,7.8276,7.8276,7.7979,7.7868,7.7905,7.8165,7.8276,7.8276,7.8276,7.8276,7.8276,7.8276,7.8276,7.8276,7.8276,7.8276,7.8221,7.8221,7.8165,7.8108,7.8014,7.8014,7.8014,7.7994,7.7957,7.79,7.7783,7.7703,7.7643,7.7524,7.7402,7.7304,7.7304,7.7304,7.7304,7.7304,7.7304,7.7341,7.7463,7.7643,7.7703,7.7703,7.7937,7.8051,7.79,7.7957,7.8014,7.7994,7.7994,7.7994,7.7994,7.7994,7.7957,7.8014,7.7842,7.7762,7.7703,7.7584,7.7402,0.0,0.0,0.0,0.0,0.0,0.0,0.0,0.0,0.0,0.0,0.0,0.0,0.0,0.0,0.0,0.0,0.0,0.0,0.0,0.0,0.0,0.0,0.0,0.0,0.0,0.0,7.2592,7.2592,7.3075,7.3372,7.3372,7.3632,7.3781,7.3781,7.4524,7.497,7.497,7.5787,7.6233,7.6233,7.6493,7.6902,7.7496,7.7496,7.7756,7.8276,7.8276,7.8276,7.8276,7.8276,7.8276,7.8276,7.8276,7.8276,7.8276,7.8276,7.8276,7.8276,7.8276,7.8276,7.8276,7.8276,7.8276,7.8276,7.8276,7.8276,7.8276,7.8276,7.8276,7.8276,7.8276,7.8276,7.8276,7.8127,7.8071,7.8071,7.7994,7.7957,7.79,7.7783,7.7725,7.7643,7.7524,7.7402,7.7304,7.7304,7.7304,7.7304,7.7304,7.7304,7.7341,7.7463,7.7584,7.7607,7.7607,7.7879,7.7994,7.7762,7.7842,7.79,7.7842,7.782,7.7879,7.7994,7.7937,7.79,7.8014,7.7842,7.782,7.7762,7.7584,7.7463,7.7304,0.0,0.0,0.0,0.0,0.0,0.0,0.0,0.0,0.0,0.0,0.0,0.0,0.0,0.0,0.0,0.0,0.0,0.0,0.0,0.0,0.0,0.0,0.0,7.2066,7.2838,7.3372,7.3372,7.341,7.341,7.341,7.4153,7.4635,7.4635,7.5378,7.5824,7.5824,7.6642,7.7125,7.7125,7.7868,7.8276,7.8276,7.8276,7.8276,7.8276,7.8276,7.8276,7.8276,7.8276,7.8276,7.8276,7.8276,7.8276,7.8276,7.8276,7.8276,7.8276,7.8276,7.8276,7.8276,7.8276,7.8276,7.8276,7.8276,7.8276,7.8276,7.8276,7.8276,7.8276,7.8276,7.8276,7.8276,7.8276,7.8276,7.8276,7.8276,7.8051,7.782,7.782,7.7547,7.7304,7.7304,7.7341,7.7341,7.7304,7.7304,7.7304,7.7304,7.7304,7.7304,7.7304,7.7341,0.0,7.7341,7.7463,7.762,7.762,7.7703,7.7842,7.8014,7.79,7.7937,7.8276,7.8127,7.8014,7.8014,7.7842,7.7762,7.7584,7.7402,7.7304,7.7304,0.0,0.0,0.0,0.0,0.0,0.0,0.0,0.0,0.0,0.0,0.0,0.0,0.0,0.0,0.0,0.0,0.0,0.0,0.0,0.0,0.0,0.0,7.2986,7.2986,7.3261,7.3372,7.3372,7.3892,7.4264,7.4264,7.497,7.5453,7.5453,7.6233,7.6716,7.6716,7.7496,7.7942,7.7942,7.8165,7.8276,7.8276,7.8276,7.8276,7.8276,7.8276,7.8276,7.8276,7.8276,7.8276,7.8276,7.8276,7.8276,7.8276,7.8276,7.8276,7.8276,7.8276,7.8276,7.8276,7.8276,7.8276,7.8276,7.8276,7.8276,7.8276,7.8276,7.8276,7.8276,7.8276,7.8276,7.8276,7.8127,7.8221,7.8221,7.7994,7.7957,7.79,7.7783,7.7762,7.7643,7.7524,7.7524,7.7463,7.7341,7.7304,7.7304,7.7304,7.7304,7.7304,7.7304,7.7402,0.0,7.7524,7.7643,7.7762,7.7762,7.7762,7.7842,7.8014,7.7957,7.8014,7.8276,7.8127,7.8014,7.8014,7.7762,7.7584,7.7402,7.7341,7.7304,0.0,0.0,0.0,0.0,0.0,0.0,0.0,0.0,0.0,0.0,0.0,0.0,0.0,0.0,0.0,0.0,0.0,0.0,0.0,0.0,0.0,0.0,7.332,7.3521,7.3855,7.3892,7.3892,7.3892,7.4598,7.5081,7.5081,7.5861,7.6344,7.6344,7.7125,7.757,7.757,7.8053,7.8276,7.8276,7.8276,7.8276,7.8276,7.8276,7.8276,7.8276,7.8276,7.8276,7.8276,7.8276,7.8276,0.0,7.8276,7.8276,7.8276,7.8276,7.8276,0.0,0.0,0.0,0.0,0.0,7.8276,7.8276,7.8276,7.8276,7.8276,7.8276,7.8276,7.8276,7.8276,7.8276,7.8276,7.8165,7.8221,7.8221,7.8051,7.8014,7.8014,7.79,7.782,7.7703,7.762,7.7524,7.7463,7.7304,7.7304,0.0,7.7304,7.7304,7.7304,7.7304,7.7402,7.7524,7.762,7.7703,7.782,7.782,7.7842,7.79,7.8014,7.7957,0.0,0.0,0.0,7.7957,7.79,7.7762,0.0,0.0,0.0,7.7304,7.7304,0.0,0.0,0.0,7.7084,7.7084,0.0,0.0,0.0,0.0,0.0,0.0,0.0,0.0,0.0,0.0,0.0,0.0,0.0,0.0,0.0,0.0,7.3469,7.3818,7.4598,7.4821,7.4821,7.4747,7.5453,7.5936,7.5936,7.6716,7.7236,7.7236,7.7905,7.8276,7.8276,0.0,0.0,0.0,0.0,7.8276,7.8276,7.8276,7.8276,7.8276,7.8276,7.8276,7.8276,7.8276,7.8276,7.8276,7.8276,7.8276,7.8276,7.8276,7.8276,7.8276,7.8276,7.8276,7.8276,7.8276,7.8276,7.8276,7.8276,0.0,0.0,7.8276,7.8276,7.8276,7.8276,7.8276,7.8276,7.8276,7.8276,7.8276,7.8276,7.8127,7.8014,7.8014,7.782,7.762,7.762,7.7463,7.7341,7.7304,7.7304,7.7304,7.7304,7.7304,7.7304,7.7304,7.7304,7.7402,7.7524,7.7643,7.7725,7.7762,0.0,0.0,7.8014,7.79,7.7994,7.8276,7.8127,7.7957,7.782,7.7762,7.7643,7.7341,7.7304,7.7304,7.7304,7.7304,7.7304,7.7304,7.7304,7.7304,0.0,0.0,0.0,0.0,0.0,0.0,0.0,0.0,0.0,0.0,0.0,0.0,0.0,0.0,0.0,7.4211,7.4338,7.4635,7.5453,7.6159,7.6344,7.5639,7.6307,7.6827,7.6827,7.757,7.8053,7.8053,7.8202,7.8276,7.8276,7.8276,7.8276,7.8276,7.8276,7.8276,7.8276,7.8276,7.8276,7.8276,0.0,0.0,7.8276,7.8276,7.8276,7.8276,7.8276,7.8276,7.8276,7.8276,7.8276,7.8276,7.8276,7.8276,7.8276,7.8276,7.8276,7.8276,7.8276,7.8276,7.8276,7.8276,7.8276,7.8276,7.8276,7.8276,0.0,7.8276,7.8276,7.8276,7.8071,7.8014,7.7957,7.7842,7.782,7.7762,7.7584,7.7524,7.7463,7.7341,7.7304,7.7304,7.7304,7.7304,7.7304,7.7304,7.7304,7.7304,7.7341,7.7402,7.7463,7.7584,7.7643,7.7762,7.8014,7.8014,7.8071,7.8276,7.8127,7.79,7.7643,7.7643,7.7524,7.7304,7.7304,7.7304,7.7304,7.7304,7.7304,7.7304,7.7304,7.7304,0.0,0.0,0.0,0.0,0.0,0.0,0.0,0.0,0.0,0.0,0.0,7.3256,0.0,0.0,7.4211,7.5044,7.5193,7.549,7.6307,7.6827,7.6939,7.6493,7.7162,7.7682,7.7682,7.8053,7.8276,7.8276,7.8276,7.8276,7.8276,7.8276,7.8276,7.8276,7.8276,7.8276,7.8276,7.8276,7.8276,7.8276,7.8276,7.8276,7.8276,7.8276,7.8276,7.8276,7.8276,7.8276,7.8276,7.8276,7.8276,7.8276,7.8276,7.8276,7.8276,7.8276,7.8276,7.8276,7.8276,7.8276,7.8276,7.8276,7.8276,7.8276,7.8276,7.8276,7.8276,7.8276,7.8276,7.8276,7.8165,7.8127,7.8127,7.8051,7.7957,7.79,7.7783,7.7762,7.7643,7.7463,7.7463,7.7402,7.7341,7.7304,7.7304,7.7304,7.7304,7.7341,7.7463,7.7463,7.7524,7.7703,7.8131,7.8507,7.8644,7.9072,7.9409,7.9502,7.9037,7.8644,7.8293,7.7924,7.7584,7.7341,7.7304,7.7304,7.7304,7.7304,7.7304,7.7304,7.7304,7.7304,0.0,0.0,0.0,0.0,0.0,0.0,0.0,0.0,7.3112,7.3421,7.3623,7.3972,7.471,7.4821,7.5081,7.5899,7.6047,7.6344,7.7199,7.731,7.731,7.731,7.7905,7.8276,7.8276,7.8276,7.8276,7.8276,7.8276,7.8276,7.8276,7.8276,7.8276,7.8276,7.8276,7.8276,7.8276,7.8276,7.8276,7.8276,7.8276,7.8276,7.8276,7.8276,7.8276,7.8276,7.8276,7.8276,7.8276,7.8276,7.8276,7.8276,7.8276,7.8276,7.8276,7.8276,7.8276,7.8276,7.8276,7.8276,7.8276,7.8276,7.8276,7.8276,7.8276,7.8276,7.8276,7.8276,7.8276,7.8276,7.8276,7.8276,7.8276,7.8276,7.8127,7.8014,7.7957,7.799,7.7924,7.7841,7.7952,7.7941,7.7818,7.7781,7.7745,7.7598,7.7561,7.7696,7.8002,7.8062,7.8122,7.8264,7.9068,7.9533,7.9591,8.0262,8.0691,8.0691,8.0097,7.9611,7.9283,7.8692,7.8145,7.7843,7.7843,7.7708,7.7561,7.7561,7.7488,7.7304,7.7304,7.7304,7.2927,7.3037,7.3199,7.3268,7.3252,7.3199,0.0,0.0,7.4236,7.4397,7.5007,7.5564,7.5639,7.5676,7.5936,7.679,7.6939,7.7236,7.8053,7.8165,7.8165,7.8165,7.8239,7.8276,7.8276,7.8276,7.8276,7.8276,7.8276,7.8276,7.8276,7.8276,7.8276,7.8276,7.8276,7.8276,7.8276,7.8276,7.8276,7.8276,7.8276,7.8276,7.8276,7.8276,7.8276,7.8276,7.8276,7.8276,7.8276,7.8276,7.8276,7.8276,7.8276,7.8276,7.8276,7.8276,7.8276,7.8276,7.8276,7.8276,7.8276,7.8276,7.8276,7.8276,7.8276,7.8276,7.8276,7.8276,7.8276,7.8276,7.8276,7.8276,7.8276,7.8071,7.8014,7.7957,7.7842,7.8256,7.8651,7.8651,7.9154,7.957,7.9507,7.9595,7.9437,7.8552,7.8442,7.8699,7.9496,7.9694,7.9781,7.9926,8.0215,8.0406,8.0485,8.0654,8.0691,8.0691,8.0617,8.0522,8.0348,8.0274,8.0022,7.9719,7.9719,7.9264,7.8442,7.8442,7.8075,7.7304,7.7304,7.7304,7.2982,7.3739,0.0,0.0,7.429,7.4606,7.4661,7.492,7.5142,7.5304,7.5564,7.5936,7.6456,7.653,7.6827,0.0,7.7793,7.7905,7.8239,7.8276,7.8276,7.8276,7.8276,7.8276,7.8276,7.8276,7.8276,7.8276,7.8276,7.8276,7.8276,7.8276,7.8276,7.8276,7.8276,7.8276,7.8276,7.8276,7.8276,7.8276,7.8276,7.8276,7.8276,7.8276,7.8276,7.8276,7.8276,7.8276,7.8276,7.8276,7.8276,7.8276,7.8276,7.8573,7.8945,7.8462,7.8276,7.8276,7.8276,7.8276,7.8276,7.8276,7.8276,7.8388,7.8833,7.8982,7.9094,7.9539,7.9688,7.9688,7.9688,7.9688,7.9688,7.9594,7.9537,7.9537,7.9517,7.9718,7.9919,7.9801,8.0036,8.0198,8.0076,8.0137,8.0174,8.026,7.9891,7.9707,8.0039,8.0137,8.0443,8.1007,8.1163,8.1444,8.2103,8.214,8.214,8.214,8.1694,8.1376,8.12,8.0756,8.0378,7.9977,7.9977,7.9768,7.9286,7.9286,7.9103,7.8736,7.8259,7.8075,7.3591,0.0,0.0,7.4866,7.5217,7.5661,7.5661,7.5847,7.605,7.6159,7.6344,7.6679,7.731,7.7422,0.0,7.8202,7.8276,7.8276,7.8276,7.8276,7.8276,7.8276,7.8276,7.8276,7.8276,7.8276,7.8276,7.8276,7.8276,7.8276,7.8276,7.8276,7.8276,7.8276,7.8276,7.8276,7.8276,7.8276,7.8276,7.8276,7.8276,7.8276,7.8276,7.8276,7.8276,7.8276,7.8276,7.8425,7.8611,7.8611,7.8759,7.8945,7.8945,7.9316,7.9762,7.9168,7.8945,7.8945,7.8945,7.8945,7.8945,7.8945,7.8945,7.9056,7.9651,7.9837,7.9948,8.0542,8.0691,8.0691,8.0691,8.0691,8.0691,8.0691,8.0691,8.0691,8.0691,8.0877,8.091,8.0888,8.1015,8.1044,8.096,8.102,8.1205,8.176,8.1451,8.1081,8.096,8.0984,8.1266,8.2038,8.2112,8.2394,8.3143,8.318,8.318,8.318,8.2623,8.2267,8.2112,8.1519,8.1044,8.0739,8.0677,8.0504,8.0131,8.0131,8.0021,7.9764,7.9176,7.8919,0.0,0.0,7.5439,7.5733,7.5787,7.5787,7.5787,7.6456,7.705,7.705,7.7682,7.8202,7.8239,7.8239,7.8239,7.8276,7.8276,7.8276,7.8276,7.8276,7.8276,7.8276,7.8276,7.8276,0.0,7.8276,7.8276,7.8276,7.8276,7.8276,7.8276,7.8276,7.8276,7.8276,7.8276,7.8276,7.8276,7.8276,7.8276,7.8276,7.8276,7.8276,7.8276,7.8276,7.8276,7.8276,7.8276,7.8722,7.9465,7.9465,7.9911,8.0617,8.0617,8.0617,8.0654,8.0617,8.0617,8.0617,8.0617,8.0617,8.0617,8.0617,8.0617,8.0617,8.0654,8.0654,8.0654,8.0691,8.0691,8.0691,8.0691,8.0691,8.0691,8.0691,8.0691,8.0691,8.0691,8.1207,8.1645,8.1645,8.219,8.2622,8.2622,8.2708,8.283,8.283,8.2987,8.2987,8.2684,8.2708,8.289,8.3143,8.3143,8.318,8.318,8.318,8.318,8.318,8.318,8.3143,8.3143,8.295,8.2769,8.2622,8.2397,8.1902,8.0975,8.0975,8.0571,7.98,7.9764,7.9764,0.0,0.0,7.7088,7.6736,7.705,7.7459,7.7459,7.7682,7.7905,7.7905,7.8035,7.8127,7.8276,7.8221,7.8127,7.8276,7.8276,7.8276,7.8276,7.8276,7.8276,7.8276,7.8276,0.0,0.0,0.0,0.0,7.8276,7.8276,7.8276,7.8276,7.8276,7.8276,7.8276,7.8276,7.8276,7.8276,7.8276,7.8276,7.8276,7.8276,7.8276,7.8313,7.8833,7.9094,7.9131,7.9651,8.0059,8.0282,8.0282,8.0468,8.0691,8.0691,8.1025,8.1545,8.1545,8.188,8.2177,8.11,8.0691,8.0691,8.0691,8.0691,8.0802,8.1397,8.1545,8.1657,8.2214,8.2363,8.2363,8.2363,8.2363,8.2363,8.2363,8.2363,8.2363,8.2363,8.2527,8.2713,8.2713,8.2876,8.3001,8.3001,8.3507,8.4086,8.4606,8.3849,8.318,8.3061,8.3544,8.3901,8.3997,8.448,8.4778,8.4778,8.4778,8.4778,8.4778,8.4778,8.4778,8.4778,8.4595,8.425,8.3508,8.3281,8.2748,8.1782,8.1782,8.1672,8.1379,8.0828,8.0608,0.0,7.7066,7.7846,7.7589,7.7905,7.8276,7.8276,7.8276,7.8276,7.8276,7.8127,7.8071,7.8276,7.8127,7.8071,7.8276,7.8276,7.8276,7.8276,7.8276,7.8276,7.8276,7.8276,7.8276,0.0,0.0,0.0,7.8332,7.8495,7.8458,7.8276,7.8458,7.8458,7.8276,7.8276,7.8276,7.8276,7.8276,7.8276,7.8276,7.8573,7.8722,7.8759,7.9539,7.9911,7.9948,8.0468,8.0877,8.1137,8.1137,8.1323,8.1583,8.1583,8.1917,8.24,8.24,8.2734,8.3032,8.1954,8.1583,8.1583,8.1583,8.1583,8.1694,8.2251,8.24,8.2511,8.3032,8.318,8.318,8.318,8.318,8.318,8.318,8.318,8.318,8.318,8.3403,8.3626,8.3626,8.3849,8.4035,8.4035,8.448,8.5,8.5521,8.4703,8.4035,8.4035,8.4518,8.4815,8.4815,8.5298,8.5595,8.5595,8.5595,8.5595,8.5595,8.5595,8.5595,8.5595,8.5386,8.5002,8.4358,8.4064,8.3676,8.3067,8.3067,8.292,8.2627,8.2113,8.1709,7.7725,7.782,7.7937,7.8221,7.8276,7.8276,7.8276,7.8276,7.8276,7.8276,7.8127,7.8071,0.0,0.0,7.8071,7.8276,7.8276,7.8276,7.8276,7.8276,7.8276,0.0,0.0,0.0,0.0,0.0,0.0,7.8386,0.0,7.8789,7.8332,7.8738,7.8789,7.8332,7.8276,7.8276,7.8276,7.8313,7.8351,7.8425,7.9205,7.9539,7.9576,8.0394,8.0765,8.0765,8.0802,8.1285,8.2066,8.2066,8.2511,8.318,8.318,8.318,8.318,8.318,8.318,8.318,8.318,8.318,8.318,8.318,8.318,8.318,8.318,8.318,8.318,8.318,8.318,8.3217,8.3254,8.3254,8.3254,8.3292,8.3329,8.3329,8.3329,8.3923,8.4443,8.4443,8.5075,8.5595,8.5632,8.5669,8.5669,8.5706,8.5743,8.5706,8.5595,8.5632,8.5669,8.5669,8.5706,8.5743,8.5743,8.5743,8.5743,8.5743,8.5743,8.5743,8.5743,8.5397,8.5207,8.517,8.4845,8.4646,8.4609,8.4609,8.4205,8.3471,8.3471,8.3067,7.7957,7.8071,7.8165,7.8276,7.8276,7.8276,7.8276,7.8276,7.8276,7.8276,7.8051,7.79,0.0,0.0,0.0,7.8221,7.8276,0.0,7.8276,7.8276,0.0,0.0,0.0,7.8441,7.8789,7.8904,0.0,0.0,7.8904,7.8789,7.8332,7.8404,7.8404,7.8276,7.8276,7.8276,7.8276,7.8871,7.9465,8.0097,8.0282,8.0394,8.0431,8.1285,8.1657,8.1694,8.2288,8.2697,8.2883,8.2883,8.2994,8.318,8.318,8.318,8.318,8.318,8.318,8.318,8.318,8.318,8.318,8.318,8.318,8.318,8.318,8.318,8.318,8.318,8.318,8.3329,8.3923,8.4072,8.4257,8.4852,8.5,8.5,8.5,8.5149,8.5298,8.5298,8.5446,8.5781,8.6375,8.6486,8.6709,8.7341,8.7452,8.7007,8.5743,8.6115,8.6486,8.6486,8.7081,8.7452,8.7452,8.7452,8.7452,8.7452,8.7452,8.7452,8.7452,8.7265,8.6841,8.6212,8.602,8.5529,8.4809,8.4809,8.4632,8.4278,8.4278,8.4168,7.8014,7.8071,7.8221,7.8276,7.8276,7.8276,7.8276,7.8276,7.8276,7.8221,7.7957,0.0,0.0,0.0,0.0,0.0,0.0,0.0,7.8276,7.8276,7.8276,0.0,7.8458,0.0,7.8954,7.9349,7.9441,0.0,7.9161,7.9004,7.8332,7.8512,7.8512,7.8276,7.8276,7.8462,7.8796,7.9614,8.0245,8.0691,8.11,8.1248,8.1285,8.214,8.2648,8.2837,0.0,8.3508,8.3508,8.3508,8.3376,8.318,8.318,8.318,8.3217,8.3589,8.3737,8.3775,8.4109,8.4257,8.4146,8.3403,8.344,8.3737,8.3737,8.396,8.4257,8.4257,8.4257,8.4369,8.4815,8.4926,8.5038,8.5483,8.5595,8.5595,8.5595,8.5892,8.6226,8.6598,8.6709,8.6821,8.7304,8.7378,8.7527,8.801,8.8084,8.775,8.6821,8.7081,8.7378,8.7378,8.7787,8.8084,8.8084,8.8084,8.8084,8.8084,8.8084,8.8084,8.8084,8.7895,8.7609,8.7127,8.6897,8.6546,8.5942,8.5942,8.5692,8.5123,8.5123,8.4939,7.8014,7.8071,7.8071,7.8276,7.8276,7.8276,7.8276,7.8276,7.8221,7.8071,0.0,0.0,7.7879,0.0,7.7842,7.8014,0.0,7.8276,7.8276,7.8276,7.8332,7.8386,7.8738,7.9053,7.9161,7.9878,7.9961,7.9161,7.9395,7.9208,7.8332,7.8686,7.8827,7.859,7.8535,7.8982,7.9912,8.0562,8.0914,8.1025,8.1806,8.214,8.2177,8.2962,8.3508,8.3922,8.3975,0.0,8.3922,8.3922,8.3712,8.3366,8.3366,8.3403,8.3589,8.4295,8.4555,8.4666,8.5372,8.5595,8.5372,8.396,8.3997,8.4555,8.4555,8.5038,8.5595,8.5595,8.5595,8.5632,8.5743,8.5743,8.5781,8.5892,8.5929,8.5929,8.5929,8.6486,8.7192,8.7935,8.8084,8.8084,8.8084,8.8084,8.8084,8.8084,8.8084,8.8084,8.8084,8.8084,8.8084,8.8084,8.8084,8.8084,8.8084,8.8084,8.8084,8.8084,8.8084,8.8084,8.8084,8.7958,8.7794,8.7794,8.7665,8.7534,8.7372,8.7372,8.6869,8.5967,8.5967,8.56,7.8221,7.8221,7.8276,7.8276,7.8276,7.8276,7.8276,7.8165,0.0,0.0,0.0,7.7842,7.8165,7.8071,0.0,7.8221,0.0,0.0,0.0,0.0,7.8458,0.0,0.0,0.0,0.0,0.0,0.0,0.0,0.0,7.8854,7.8332,7.8386,7.8864,7.9828,7.9865,8.0578,8.2114,8.1904,8.2103,8.2771,8.292,8.2994,8.2994,8.3545,8.3817,8.3922,8.4341,0.0,8.3922,8.3922,8.4049,8.4183,8.4183,8.4592,8.5186,8.5335,8.5372,8.5409,8.5558,8.5595,8.5558,8.5261,8.5261,8.5372,8.5372,8.5483,8.5595,8.5595,8.5595,8.5743,8.6412,8.6598,8.6784,8.749,8.7675,8.7675,8.7675,8.7787,8.7898,8.8047,8.8084,8.8084,8.8084,8.8084,8.8084,8.8084,8.8084,8.8084,8.8084,8.8084,8.8084,8.8084,8.8084,8.8084,8.8084,8.8084,8.8084,8.8084,8.8084,8.8084,8.8084,8.8084,8.8021,8.8021,8.8021,8.7794,8.7431,8.7431,8.7224,8.6811,8.6811,8.6738,7.8276,7.8276,7.8276,7.8276,7.8276,7.8276,7.8276,0.0,0.0,0.0,0.0,7.79,7.8051,0.0,0.0,0.0,0.0,0.0,0.0,0.0,0.0,0.0,0.0,0.0,0.0,0.0,0.0,0.0,0.0,7.9441,7.8686,7.9279,8.0177,8.1207,8.1661,8.212,8.2683,8.2906,8.3079,8.318,8.3452,8.3527,8.3583,8.4078,8.4438,8.4681,8.4942,0.0,8.5318,8.5032,8.5155,8.5395,8.512,8.5261,8.5632,8.6078,8.6226,8.6301,8.6747,8.6895,8.6895,8.6895,8.6598,8.6226,8.6226,8.6524,8.6895,8.6895,8.6895,8.6969,8.7378,8.749,8.7564,8.801,8.8084,8.8084,8.8084,8.8084,8.8084,8.8084,8.8084,8.8233,8.8641,8.8716,8.8864,8.9273,8.9347,8.9347,8.9347,8.9347,8.9198,8.8753,8.9087,8.9347,8.9347,8.9347,8.9347,8.9347,8.9347,8.9347,8.9347,8.9347,8.9347,8.9347,8.9284,8.8868,8.8162,8.8096,8.7673,8.6995,8.6995,8.6995,7.8276,7.8276,7.8276,7.8276,7.8276,7.8276,7.8276,7.8276,0.0,0.0,0.0,0.0,0.0,0.0,0.0,0.0,0.0,0.0,0.0,0.0,0.0,0.0,0.0,0.0,0.0,0.0,0.0,0.0,0.0,0.0,7.9424,8.0643,8.174,8.2575,8.3133,8.3313,8.3151,8.3532,8.3583,8.3376,8.3747,8.3975,8.4092,8.4627,8.5143,8.5664,8.5781,0.0,0.0,8.6374,8.6354,8.6572,8.6058,8.599,8.6334,8.6882,8.7105,8.7301,8.7923,8.8084,8.8084,8.8084,8.7638,8.7081,8.7081,8.7564,8.8084,8.8084,8.8084,8.8084,8.8084,8.8084,8.8121,8.8307,8.8344,8.8381,8.8567,8.8604,8.8604,8.8604,8.8604,8.879,8.9459,8.957,8.9756,9.0387,9.0499,9.0499,9.0499,9.0647,9.0499,8.9867,9.0239,9.0499,9.0499,9.0499,9.0499,9.0499,9.0499,9.0499,9.0499,9.0499,9.0499,9.0499,9.0332,8.9839,8.9048,8.8877,8.8341,8.7509,8.7362,8.7252,7.8276,7.8276,7.8276,7.8276,7.8276,7.8276,7.8276,0.0,0.0,0.0,0.0,0.0,0.0,0.0,0.0,0.0,0.0,7.8458,0.0,0.0,0.0,0.0,0.0,0.0,0.0,0.0,0.0,0.0,0.0,0.0,8.0725,8.1987,8.3104,8.4021,8.3606,8.3756,8.4513,8.3655,8.3452,8.3817,8.387,8.4142,8.4627,8.5114,8.5777,8.6621,8.7,0.0,0.0,8.7217,8.7223,8.7435,8.6877,8.7444,8.8448,8.8144,8.8227,8.856,8.8195,8.8084,8.8084,8.8084,8.8047,8.7973,8.7973,8.8047,8.8084,8.8084,8.8084,8.8084,8.8084,8.8084,8.827,8.9013,8.9198,8.9384,9.0127,9.0276,9.0276,9.0276,9.0276,9.0313,9.0387,9.0387,9.0424,9.0499,9.0499,9.0499,9.0499,9.113,9.1576,9.1502,9.0907,9.0499,9.0499,9.0499,9.0499,9.0499,9.0499,9.0499,9.0499,9.0499,9.0499,9.0499,9.0499,9.0267,8.9898,8.9898,8.962,8.916,8.8426,8.8096,7.8276,7.8276,7.8276,7.8276,7.8276,7.8276,7.8276,0.0,0.0,0.0,0.0,7.8221,7.8276,0.0,0.0,0.0,0.0,0.0,0.0,0.0,0.0,0.0,0.0,0.0,0.0,0.0,0.0,0.0,0.0,0.0,8.3295,8.3822,8.4468,8.5312,8.5167,8.5053,8.5114,8.4719,8.4486,8.439,8.4673,8.5209,8.5914,8.6394,8.7077,8.7921,8.8102,0.0,0.0,8.8523,8.8676,8.9204,8.8706,8.879,8.9197,8.8729,8.8616,8.8729,8.8293,8.8084,8.8158,8.8641,8.8827,8.8716,8.8233,8.8084,8.8195,8.8678,8.8827,8.8938,8.9421,8.9533,8.9644,8.9942,9.0016,9.009,9.0424,9.0499,9.0499,9.0499,9.0499,9.0647,9.113,9.1205,9.139,9.191,9.1985,9.1985,9.1985,9.2282,9.2468,9.2468,9.2208,9.1985,9.1985,9.1985,9.1985,9.1985,9.1985,9.1985,9.1985,9.1985,9.1985,9.1985,9.1853,9.1461,9.071,9.0573,9.0177,8.9417,8.9087,8.894,7.8276,7.8276,7.8276,7.8276,7.8276,7.8276,0.0,0.0,0.0,7.8276,7.8276,7.8276,7.8276,7.8276,7.8276,7.8276,7.8276,7.8332,7.8512,0.0,0.0,0.0,0.0,0.0,0.0,0.0,0.0,0.0,0.0,0.0,0.0,8.5247,8.5517,8.6094,8.5992,8.5739,8.5397,8.5238,8.5224,8.5317,8.5658,8.6316,8.7275,8.7645,8.8248,8.9056,8.9056,0.0,0.0,8.9686,8.9867,9.036,8.9792,8.9697,8.9792,8.9249,8.9227,8.9345,8.8832,8.8753,8.8901,8.9459,8.9644,8.9533,8.8976,8.879,8.8938,8.9496,8.9644,8.9793,9.035,9.0499,9.0573,9.0796,9.0833,9.0945,9.1167,9.1242,9.1242,9.1242,9.1242,9.1428,9.1985,9.2096,9.2282,9.2914,9.2988,9.2988,9.2988,9.2988,9.2988,9.2988,9.2988,9.2988,9.2988,9.2988,9.2988,9.2988,9.2988,9.2988,9.2988,9.2988,9.2988,9.2988,9.2855,9.2424,9.156,9.1385,9.0879,9.0115,8.9895,8.9638,7.8276,7.8276,7.8276,7.8276,7.8276,7.8276,0.0,0.0,0.0,7.8276,7.8276,7.8276,7.8276,7.8276,7.8276,7.8276,7.8276,7.8458,7.8954,0.0,0.0,0.0,0.0,0.0,0.0,0.0,0.0,0.0,0.0,0.0,0.0,8.6094,8.6094,8.6094,8.5665,8.5397,8.5397,8.4942,8.5399,8.6696,8.6696,8.7389,8.8671,8.8671,8.9133,0.0,0.0,0.0,0.0,9.0605,9.0402,9.036,8.9792,8.9931,9.036,8.9792,9.0131,9.0789,9.0248,9.0274,9.0462,9.0462,9.0499,9.0499,9.0462,9.0462,9.0462,9.0499,9.0499,9.0499,9.0499,9.0499,9.0685,9.1502,9.1688,9.191,9.2802,9.2951,9.2951,9.2951,9.2951,9.2988,9.2988,9.2988,9.2988,9.2988,9.2988,9.2988,9.2988,9.2988,9.2988,9.2988,9.2988,9.2988,9.2988,9.2988,9.2988,9.2988,9.2988,9.2988,9.2988,9.2988,9.2988,9.2988,9.2988,9.2788,9.2373,9.2373,9.2162,9.1767,9.0959,9.0188,7.8276,7.8276,7.8276,7.8276,7.8276,7.8276,7.8276,0.0,0.0,7.8276,7.8276,7.8276,7.8276,7.8276,7.8441,7.8738,7.8512,7.8565,0.0,0.0,0.0,0.0,0.0,0.0,0.0,0.0,0.0,0.0,0.0,0.0,0.0,8.6094,8.6094,8.6094,8.5954,8.6153,8.6767,8.6621,8.7081,8.8073,8.8073,8.8567,8.9517,8.9517,8.9979,0.0,0.0,0.0,0.0,9.1028,9.0952,9.0952,9.0762,9.1145,9.1797,9.1238,9.1292,9.1622,9.1131,9.0722,9.0573,9.113,9.1316,9.1428,9.2022,9.139,9.061,9.1167,9.1762,9.2208,9.2208,9.2208,9.2282,9.2542,9.2579,9.2653,9.2951,9.2988,9.2988,9.2988,9.2988,9.2988,9.2988,9.2988,9.2988,9.2988,9.2988,9.2988,9.2988,9.2988,9.2988,9.2988,9.2988,9.2988,9.2988,9.2988,9.2988,9.2988,9.2988,9.2988,9.2988,9.2988,9.2988,9.2988,9.2988,9.2855,9.2616,9.2616,9.2409,9.202,9.1619,9.0996,0.0,7.8404,7.8332,7.8512,7.8404,0.0,0.0,0.0,0.0,7.8276,7.8276,7.8276,7.8276,7.8404,7.8633,7.8954,7.8904,7.9053,0.0,0.0,0.0,0.0,0.0,0.0,0.0,0.0,0.0,0.0,0.0,0.0,0.0,8.6401,8.6594,8.6594,8.6594,8.6863,8.7401,8.7709,8.8325,8.9133,8.9133,8.9594,9.0402,9.0402,9.071,0.0,0.0,0.0,0.0,9.1556,9.171,9.171,9.2018,9.2479,9.2905,9.2603,9.2613,9.2793,9.2247,9.19,9.1809,9.2331,9.2629,9.2885,9.3447,9.2555,9.1539,9.2059,9.2579,9.2988,9.2988,9.2988,9.3054,9.3237,9.3146,9.3054,9.3237,9.3146,9.2988,9.2988,9.2988,9.2988,9.2988,9.2988,9.2988,9.2988,9.2988,9.2988,9.2988,9.2988,9.2988,9.2988,9.2988,9.2988,9.2988,9.2988,9.2988,9.2988,9.2988,9.2988,9.2988,9.2988,9.2988,9.2988,9.2988,9.2922,9.2684,9.2616,9.2479,9.2233,9.202,9.1691,0.0,0.0,0.0,0.0,0.0,0.0,0.0,0.0,0.0,0.0,0.0,0.0,0.0,7.8686,7.9004,7.9064,7.9441,7.9708,0.0,0.0,0.0,0.0,0.0,0.0,0.0,0.0,0.0,0.0,0.0,0.0,0.0,8.6978,8.744,8.7478,8.7555,8.7594,8.7594,8.8363,8.9171,8.9979,8.9979,9.0441,9.121,9.121,9.121,0.0,0.0,0.0,0.0,9.221,9.2595,9.2672,9.3403,9.3749,9.3787,9.3787,9.3984,9.4211,9.3628,9.3645,9.3856,9.3856,9.4215,9.4604,9.4604,9.3914,9.3082,9.3082,9.3082,9.3082,9.3082,9.3082,9.3237,9.3739,9.3513,9.3237,9.3739,9.3451,9.3082,9.3054,9.3054,9.3054,9.2988,9.2988,9.2988,9.2988,9.2988,9.2988,9.2988,9.2988,9.2988,9.2988,9.2988,9.3025,9.3062,9.3025,9.2988,9.2988,9.2988,9.2988,9.2988,9.2988,9.2988,9.2988,9.2988,9.2922,9.2684,9.2547,9.2409,9.2409,9.2162,9.2091,0.0,0.0,0.0,0.0,0.0,0.0,0.0,0.0,0.0,0.0,0.0,0.0,0.0,0.0,7.9256,7.9961,7.9878,7.9961,0.0,0.0,0.0,0.0,0.0,0.0,0.0,0.0,0.0,0.0,0.0,0.0,0.0,8.7286,8.7709,8.8363,8.8979,8.9325,8.9325,8.9517,9.0056,9.0902,9.0902,9.1018,9.121,9.121,9.121,0.0,0.0,0.0,9.2249,9.3095,9.3403,9.3441,9.3633,9.4095,9.4672,9.4672,9.4866,9.5096,9.4967,9.4703,9.4394,9.4394,9.45,9.4604,9.4604,9.4394,9.4178,9.4178,9.4178,9.4178,9.4178,9.4178,9.427,9.4394,9.4287,9.427,9.4394,9.4287,9.4104,9.3717,9.3597,9.3513,9.3054,9.2988,9.2988,9.2988,9.2988,9.2988,9.2988,9.2988,9.2988,9.2988,9.2988,9.3248,9.3879,9.3359,9.2988,9.2988,9.2988,9.2988,9.2988,9.2988,9.2988,9.2988,9.2988,9.2988,9.2922,9.2684,9.2616,9.2616,9.2233,9.2091,0.0,0.0,0.0,0.0,0.0,0.0,0.0,0.0,0.0,0.0,0.0,0.0,0.0,0.0,0.0,8.0316,8.0354,0.0,0.0,0.0,0.0,0.0,0.0,0.0,0.0,0.0,0.0,0.0,0.0,0.0,0.0,8.8132,8.8748,8.9248,9.0056,9.0325,8.9902,9.0325,9.0748,9.121,9.121,9.121,9.121,9.1595,9.1787,0.0,0.0,0.0,9.3133,9.3941,9.4287,9.4326,9.4749,9.5172,9.5595,9.5595,9.5675,9.5783,9.5533,9.5189,9.4953,9.4953,9.518,9.5401,9.5401,9.5401,9.5273,9.4756,9.4604,9.4604,9.4604,9.4604,9.4655,9.4904,9.4806,9.4655,9.4904,9.4756,9.4447,9.3914,9.3798,9.3657,9.3082,9.2988,9.3136,9.3508,9.3545,9.3694,9.4065,9.4102,9.4102,9.4102,9.4102,9.4288,9.4697,9.4362,9.4102,9.4102,9.4102,9.4102,9.4102,9.4102,9.4102,9.4102,9.3731,9.3545,9.3545,9.3107,9.2855,9.2855,9.2547,9.234,0.0,0.0,0.0,0.0,0.0,0.0,0.0,0.0,0.0,0.0,0.0,0.0,0.0,0.0,0.0,0.0,0.0,0.0,0.0,0.0,0.0,0.0,0.0,0.0,0.0,0.0,0.0,0.0,0.0,0.0,8.7786,8.9133,8.9979,9.0094,9.0825,9.0864,9.0133,9.0825,9.121,9.121,9.121,9.1287,9.1441,9.2172,9.2556,9.271,0.0,0.0,9.398,9.4826,9.5211,9.5249,9.6019,9.6288,9.6288,9.6288,9.6288,9.6251,9.57,9.5533,9.5533,9.5533,9.5979,9.648,9.648,9.6596,9.6482,9.5515,9.5045,9.4893,9.5007,9.5045,9.5181,9.5751,9.5608,9.5333,9.5789,9.5562,9.5085,9.4537,9.4425,9.4232,9.361,9.3519,9.3714,9.4288,9.4362,9.4622,9.5328,9.5403,9.5403,9.5403,9.5403,9.544,9.5588,9.5588,9.5626,9.5774,9.5551,9.5403,9.5403,9.5403,9.5403,9.5403,9.4734,9.4362,9.4362,9.3694,9.3285,9.3174,9.2973,9.2727,8.1093,0.0,0.0,0.0,0.0,0.0,0.0,0.0,0.0,0.0,0.0,0.0,0.0,0.0,0.0,0.0,0.0,0.0,0.0,0.0,0.0,0.0,0.0,0.0,0.0,0.0,0.0,0.0,0.0,0.0,8.9479,8.9748,9.0248,9.0979,9.1133,9.1133,9.1018,9.1133,9.121,9.121,9.121,9.1595,9.2287,9.2441,9.2864,9.3557,0.0,9.4788,9.4864,9.5749,9.6095,9.6095,9.6249,9.6288,9.6288,9.6288,9.6288,9.6288,9.6174,9.6136,9.6136,9.6136,9.6712,9.7326,9.7326,9.7827,9.8366,9.821,9.7133,9.6212,9.6865,9.7057,9.7288,9.8057,9.821,9.821,9.825,9.821,9.8009,9.7456,9.7362,9.6983,9.596,9.578,9.567,9.5247,9.5217,9.5254,9.5365,9.5403,9.5403,9.5403,9.5403,9.5663,9.6369,9.6406,9.674,9.7483,9.6183,9.5403,9.5403,9.5403,9.5403,9.5403,9.5291,9.5217,9.5217,9.5105,9.4697,9.4028,9.3789,9.3245,8.1093,8.1093,0.0,0.0,0.0,0.0,0.0,0.0,0.0,0.0,0.0,0.0,0.0,0.0,0.0,0.0,0.0,0.0,0.0,0.0,0.0,0.0,0.0,0.0,0.0,0.0,0.0,0.0,0.0,0.0,8.9902,9.0364,9.0787,9.121,9.121,9.1441,9.1902,9.1902,9.1902,9.1902,9.1902,9.2326,9.3172,9.3633,9.4057,9.4441,0.0,9.5711,9.5711,9.6134,9.6288,9.6288,9.6288,9.6288,9.6288,9.6288,9.6288,9.6365,9.6788,9.6942,9.7019,9.748,9.7904,9.8211,9.8211,9.8481,9.8788,9.8788,9.825,9.775,9.8096,9.8211,9.8288,9.8711,9.8788,9.8788,9.8788,9.8788,9.8634,9.8102,9.8013,9.7744,9.689,9.6724,9.6705,9.6505,9.683,9.6918,9.6802,9.7003,9.7031,9.6808,9.674,9.6889,9.726,9.7297,9.7483,9.7855,9.7186,9.674,9.674,9.674,9.674,9.674,9.6294,9.6071,9.6071,9.5626,9.5217,9.4845,9.4778,9.4197,8.1093,8.1093,0.0,0.0,0.0,0.0,0.0,0.0,0.0,0.0,0.0,0.0,0.0,0.0,0.0,0.0,0.0,0.0,0.0,0.0,0.0,0.0,0.0,0.0,0.0,0.0,0.0,0.0,0.0,0.0,9.021,9.0825,9.1287,9.1518,9.1518,9.1902,9.2787,9.2787,9.2787,9.2787,9.2787,9.321,9.4018,9.4711,9.5095,9.5326,9.6019,9.6288,9.6288,9.6288,9.6288,9.6288,9.6288,9.6442,9.6596,9.6596,9.6711,9.698,9.7596,9.7788,9.7904,9.8596,9.8942,9.9096,9.9096,9.925,9.9404,9.9404,9.9404,9.9327,9.9135,9.9096,9.9135,9.9327,9.9404,9.9404,9.9404,9.9404,9.9288,9.8845,9.8758,9.8586,9.7984,9.7934,9.7916,9.7986,9.8385,9.8499,9.8113,9.844,9.8504,9.7961,9.7892,9.7892,9.7892,9.7892,9.7892,9.7892,9.7892,9.7892,9.7892,9.7892,9.7892,9.7892,9.7223,9.6889,9.6889,9.6294,9.5886,9.5663,9.5663,9.5186,8.1093,8.1093,0.0,0.0,0.0,0.0,0.0,0.0,0.0,0.0,0.0,0.0,0.0,0.0,0.0,0.0,0.0,0.0,0.0,0.0,0.0,0.0,0.0,0.0,0.0,0.0,0.0,0.0,0.0,0.0,9.1133,9.1171,9.1556,9.2364,9.2402,9.2787,9.3595,9.3595,9.3595,9.3595,9.3595,9.4057,9.4903,9.498,9.5441,9.6211,9.6288,9.6288,9.6288,9.6288,9.6288,9.6288,9.6288,9.6749,9.7403,9.7403,9.7942,9.8634,9.8673,9.8711,9.8711,9.8788,9.9327,9.9981,9.9981,10.0481,10.1096,10.1096,10.1096,10.0904,10.0212,9.9981,10.0212,10.0904,10.1096,10.1096,10.1096,10.1096,10.1096,10.1096,10.1096,10.0896,10.0306,10.029,10.0108,9.9547,9.9493,9.9311,9.8717,9.8717,9.8504,9.7961,9.7892,9.7892,9.7892,9.7892,9.7892,9.7892,9.7892,9.7892,9.7892,9.7892,9.7892,9.7892,9.7855,9.7817,9.7817,9.7743,9.7297,9.6517,9.6517,9.6003,8.1093,8.1093,0.0,0.0,0.0,0.0,0.0,0.0,0.0,0.0,0.0,0.0,0.0,0.0,0.0,0.0,0.0,0.0,0.0,0.0,0.0,0.0,0.0,0.0,0.0,0.0,0.0,0.0,0.0,0.0,9.121,9.171,9.2172,9.2479,9.2979,9.3633,9.448,9.4518,9.4788,9.5326,9.4749,9.4941,9.5826,9.5826,9.598,9.6288,9.6288,9.6288,9.6288,9.6288,9.6288,9.6365,9.6865,9.7557,9.8288,9.8288,9.8519,9.8865,9.9404,9.9596,9.9673,10.0212,10.0596,10.0789,10.0789,10.1096,10.1289,10.1289,10.1289,10.1212,10.0904,10.0789,10.0904,10.1212,10.1289,10.1289,10.1289,10.1289,10.1289,10.1289,10.1289,10.1211,10.1011,10.1008,10.0798,10.0223,10.0413,10.0319,9.9348,9.9273,9.9041,9.844,9.8091,9.7892,9.7892,9.7892,9.7892,9.7892,9.7892,9.7892,9.7892,9.7892,9.7892,9.7892,9.7892,9.7892,9.7892,9.7892,9.7743,9.7409,9.7409,9.6894,8.1093,8.1093,0.0,0.0,0.0,0.0,0.0,0.0,0.0,0.0,0.0,0.0,0.0,0.0,0.0,0.0,0.0,0.0,0.0,0.0,0.0,0.0,0.0,0.0,0.0,0.0,0.0,0.0,0.0,0.0,0.0,9.2172,9.2749,9.3249,9.3826,9.4518,9.5403,9.5403,9.5711,9.6288,9.5711,9.5711,9.6288,9.6288,9.6288,9.6288,9.6288,9.6288,9.6326,9.6557,9.6826,9.7134,9.7711,9.8442,9.9211,9.9211,9.9365,9.9673,10.0289,10.0481,10.0596,10.1096,10.1289,10.1289,10.1289,10.1289,10.1289,10.1289,10.1289,10.1289,10.1289,10.1289,10.1289,10.1289,10.1289,10.1289,10.1289,10.1289,10.1289,10.1289,10.1289,10.1289,10.1289,10.1289,10.117,10.0798,10.1088,10.0966,10.0025,9.9872,9.9607,9.8802,9.8348,9.8158,9.8158,9.7992,9.8061,9.8413,9.8128,9.7892,9.7892,9.7892,9.7892,9.7892,9.7892,9.7892,9.7892,9.7892,9.7892,9.7892,9.7892,9.7595,8.1093,0.0,0.0,0.0,0.0,0.0,0.0,0.0,0.0,0.0,0.0,0.0,0.0,0.0,0.0,0.0,0.0,0.0,0.0,0.0,0.0,0.0,0.0,0.0,0.0,0.0,0.0,0.0,0.0,0.0,0.0,9.2518,9.3287,9.4941,9.5018,9.5441,9.6288,9.6288,9.6288,9.6288,9.6288,9.6288,9.6288,9.6288,9.6288,9.6326,9.6326,9.6326,9.6403,9.7173,9.8019,9.8788,9.8788,9.9327,10.0096,10.0096,10.0596,10.1289,10.1289,10.1289,10.1289,10.1289,10.1289,10.1289,10.1289,10.1289,10.1289,10.1289,10.1289,10.1289,10.1289,10.1289,10.1289,10.1289,10.1289,10.1289,10.1289,10.1289,10.1289,10.1289,10.1289,10.1289,10.1289,10.1289,10.1289,10.1289,10.1289,10.1091,10.062,10.0489,9.9987,9.8802,9.8717,9.8717,9.8717,9.8188,9.8385,9.9552,9.8541,9.7892,9.7892,9.7892,9.7892,9.7892,9.7892,9.7892,9.7892,9.7892,9.7892,9.7892,9.7892,9.7892,8.1093,0.0,0.0,0.0,0.0,0.0,0.0,0.0,0.0,0.0,0.0,0.0,0.0,0.0,0.0,0.0,0.0,0.0,0.0,0.0,0.0,0.0,0.0,0.0,0.0,0.0,0.0,0.0,0.0,0.0,0.0,9.3633,9.448,9.498,9.5595,9.6057,9.6288,9.6288,9.6288,9.6288,9.6288,9.6288,9.6288,9.6288,9.6596,9.7134,9.7134,9.748,9.8096,9.8327,9.8942,9.9712,9.9712,10.0212,10.0904,10.0904,10.1096,10.1289,10.1289,10.1289,10.1289,10.1289,10.1289,10.1289,10.1289,10.1289,10.1289,10.1289,10.1289,10.1289,10.1289,10.1289,10.1289,10.1289,10.1289,10.1289,10.1289,10.1289,10.1289,10.1289,10.1289,10.1289,10.1289,10.1289,10.1289,10.1289,10.1289,10.1091,10.062,10.0489,10.0212,9.9442,9.9292,9.9292,9.9292,9.9158,9.9216,9.9607,9.9273,9.89,9.8504,9.8091,9.7892,9.7892,9.7892,9.7892,9.7892,9.7892,9.7892,9.7892,9.7892,9.7892,0.0,0.0,0.0,0.0,0.0,0.0,0.0,0.0,0.0,0.0,0.0,0.0,0.0,0.0,0.0,0.0,0.0,0.0,0.0,0.0,0.0,0.0,0.0,0.0,0.0,0.0,0.0,0.0,0.0,0.0,0.0,9.4441,9.5172,9.5518,9.6019,9.6288,9.6288,9.6288,9.648,9.6788,9.6788,9.698,9.7288,9.6942,9.725,9.8019,9.8019,9.8519,9.9327,9.9327,9.9788,10.0596,10.0596,10.0904,10.1289,10.1289,10.1289,10.1289,10.1289,10.1289,10.1212,10.0904,10.0789,10.0789,10.0404,10.0289,10.0289,10.0289,10.0289,10.0289,10.0289,10.0289,10.0519,10.1096,10.1289,10.1289,10.1289,10.1289,10.1289,10.1289,10.1289,10.1289,10.1289,10.1289,10.1289,10.1289,10.1289,10.121,10.088,10.0798,10.0581,10.0025,9.9974,9.9974,9.9974,9.9767,9.982,10.0185,9.9872,9.9514,9.9442,9.863,9.8091,9.7892,9.7892,9.7892,9.7892,9.7892,9.7892,9.7892,9.7892,9.7892,0.0,0.0,0.0,0.0,0.0,0.0,0.0,0.0,0.0,0.0,0.0,0.0,0.0,0.0,0.0,0.0,0.0,0.0,0.0,0.0,0.0,0.0,0.0,0.0,0.0,0.0,0.0,0.0,0.0,0.0,0.0,9.5057,9.548,9.6288,9.6288,9.6288,9.6288,9.6365,9.6788,9.7519,9.7596,9.8057,9.8904,9.8019,9.8096,9.8904,9.8981,9.9481,10.0212,10.0212,10.0596,10.1289,10.1289,10.1289,10.1289,10.1212,10.1212,10.1212,10.1096,10.1096,10.1019,10.0212,9.9981,9.9827,9.9019,9.8788,9.8788,9.8788,9.8788,9.8788,9.8788,9.8788,9.9173,10.0712,10.1096,10.1096,10.1212,10.1212,10.1212,10.1289,10.1289,10.1289,10.1289,10.1289,10.1289,10.1289,10.1289,10.1289,10.1289,10.1289,10.1091,10.0627,10.062,10.062,10.062,10.0113,10.0174,10.1211,10.0319,9.9974,10.0489,9.933,9.844,9.7992,9.7961,9.7892,9.7892,9.7892,9.7892,9.7892,9.7892,9.7892,0.0,0.0,0.0,0.0,0.0,0.0,0.0,0.0,0.0,0.0,0.0,0.0,0.0,0.0,0.0,0.0,0.0,0.0,0.0,0.0,0.0,0.0,0.0,0.0,0.0,0.0,0.0,0.0,0.0,0.0,9.498,9.5634,9.6095,9.6288,9.6288,9.6288,9.6288,9.6942,9.7326,9.7519,9.8173,9.8981,9.9788,9.8904,9.8981,9.9865,10.0481,10.0904,10.1019,10.1019,10.1096,10.1289,10.1289,10.1289,10.1212,10.0596,10.0404,10.0289,9.9558,9.9327,9.9327,9.9135,9.9058,9.9019,9.8865,9.8788,9.8788,9.8788,9.8788,9.8788,9.8788,9.8788,9.8904,9.925,9.9327,9.9519,10.0212,10.0404,10.0481,10.1212,10.1289,10.1289,10.1289,10.1289,10.1289,10.1289,10.1289,10.1289,10.1289,10.1289,10.1288,10.1131,10.1091,10.1091,10.1091,10.097,10.1011,10.1327,10.1129,10.0798,10.0489,9.933,9.8655,9.8567,9.8091,9.7892,9.7892,9.7892,9.7892,9.7892,9.7892,9.7892,0.0,0.0,0.0,0.0,0.0,0.0,0.0,0.0,0.0,0.0,0.0,0.0,0.0,0.0,0.0,0.0,0.0,0.0,0.0,0.0,0.0,0.0,0.0,0.0,0.0,0.0,0.0,0.0,0.0,9.5172,9.5595,9.6057,9.6288,9.6288,9.6673,9.6865,9.6865,9.7711,9.8327,9.875,9.9211,9.9865,10.0712,10.0212,10.0212,10.0712,10.1096,10.1289,10.1289,10.0904,10.0712,10.0712,10.0289,10.0096,10.0096,9.9635,9.9481,9.9404,9.8942,9.8788,9.8711,9.8327,9.8173,9.8096,9.7711,9.7596,9.7596,9.7596,9.7596,9.7673,9.8096,9.8173,9.8288,9.8711,9.8788,9.8904,9.9365,9.9481,9.9712,10.0596,10.0712,10.0789,10.1212,10.1289,10.1289,10.1289,10.1289,10.1289,10.1289,10.1289,10.1289,10.1289,10.1289,10.1289,10.1289,10.1289,10.1289,10.1289,10.1289,10.117,10.0885,9.9987,9.9442,9.9158,9.8567,9.8282,9.832,9.8061,9.7892,9.7892,9.7892,9.7892,0.0,0.0,0.0,0.0,0.0,0.0,0.0,0.0,0.0,0.0,0.0,0.0,0.0,0.0,0.0,0.0,0.0,0.0,0.0,0.0,0.0,0.0,0.0,0.0,0.0,0.0,0.0,0.0,0.0,9.5518,9.6249,9.6288,9.6365,9.6519,9.7134,9.7557,9.7711,9.8596,9.9365,10.0096,10.0212,10.0712,10.1289,10.1212,10.1096,10.1096,10.1096,10.1019,10.0789,10.0212,9.9865,9.9788,9.9058,9.8788,9.8788,9.8634,9.8596,9.8557,9.8404,9.8365,9.825,9.7673,9.7519,9.7403,9.6903,9.6749,9.6749,9.6749,9.6749,9.6865,9.7557,9.7711,9.7904,9.8634,9.8788,9.8827,9.8981,9.9019,9.9288,10.0096,10.0289,10.0481,10.1212,10.1289,10.1289,10.1289,10.1289,10.1289,10.1289,10.1289,10.1289,10.1289,10.1289,10.1289,10.1289,10.1289,10.1289,10.1289,10.1289,10.1289,10.1289,10.0923,10.0404,9.9923,9.91,9.8717,9.8717,9.8158,9.7892,9.7892,9.7892,9.7892,0.0,0.0,0.0,0.0,0.0,0.0,0.0,0.0,0.0,0.0,0.0,0.0,0.0,0.0,0.0,0.0,0.0,0.0,0.0,0.0,0.0,0.0,0.0,0.0,0.0,0.0,0.0,0.0,9.5711,9.6172,9.6288,9.6288,9.6634,9.7326,9.7442,9.7865,9.8634,9.9481,9.9981,10.0096,10.0789,10.1212,10.1289,10.0596,10.0289,10.0289,10.0289,9.9827,9.9135,9.9019,9.8981,9.8942,9.8865,9.8788,9.8711,9.7942,9.7673,9.7557,9.6865,9.6634,9.6749,9.7326,9.7519,9.7634,9.825,9.8481,9.8481,9.8481,9.8481,9.8481,9.8596,9.8634,9.8673,9.875,9.8788,9.9019,9.975,9.9904,10.0212,10.1019,10.1096,10.1212,10.1289,10.1289,10.1289,10.1289,10.1289,10.1289,10.1289,10.1289,10.1289,10.1289,10.1289,10.1289,10.1289,10.1289,10.1289,10.1289,10.1289,10.1289,10.1289,10.1171,10.1208,10.1129,9.9514,9.8717,9.8717,9.8158,9.7892,9.7892,9.7892,9.7892,0.0,0.0,0.0,0.0,0.0,0.0,0.0,0.0,0.0,0.0,0.0,0.0,0.0,0.0,0.0,0.0,0.0,0.0,0.0,0.0,0.0,0.0,0.0,0.0,0.0,0.0,0.0,0.0,9.6095,9.6288,9.6288,9.6749,9.7134,9.748,9.8442,9.9135,9.9519,10.0404,10.0789,10.0789,10.1096,10.1096,10.0596,10.0289,10.0096,10.0096,9.9558,9.9135,9.875,9.825,9.8057,9.8019,9.7596,9.7403,9.7365,9.698,9.7096,9.7442,9.7096,9.7288,9.775,9.8096,9.8211,9.8288,9.8673,9.8788,9.8788,9.8788,9.8788,9.8904,9.9404,9.9519,9.9635,10.0096,10.0212,10.0289,10.0712,9.9981,9.9596,10.0481,10.1019,10.1289,10.1289,10.1289,10.1289,10.1289,10.1289,10.1289,10.1289,10.1289,10.1289,10.1289,10.1289,10.1289,10.1289,10.1289,10.1289,10.1289,10.1289,10.1289,10.1289,10.1289,10.1289,10.1289,10.0299,9.9714,9.9714,9.8778,9.8348,9.8348,9.8061,9.7892,0.0,0.0,0.0,0.0,0.0,0.0,0.0,0.0,0.0,0.0,0.0,0.0,0.0,0.0,0.0,0.0,0.0,0.0,0.0,0.0,0.0,0.0,0.0,0.0,0.0,0.0,0.0,0.0,9.6288,9.6403,9.6596,9.7173,9.7711,9.8134,9.9404,10.0173,10.0404,10.1019,10.1289,10.1289,10.1289,10.0904,10.0096,9.9865,9.9635,9.9404,9.875,9.8365,9.8096,9.7442,9.7211,9.7134,9.6519,9.6442,9.6596,9.6596,9.7134,9.7827,9.7827,9.825,9.8827,9.9058,9.9135,9.9173,9.9365,9.9442,9.9442,9.9442,9.9442,9.9596,10.0212,10.0404,10.0596,10.1212,10.1289,10.1289,10.1289,10.0289,9.9635,10.0289,10.0904,10.1289,10.1289,10.1289,10.1289,10.1289,10.1289,10.1289,10.1289,10.1289,10.1289,10.1289,10.1289,10.1289,10.1289,10.1289,10.1289,10.1289,10.1289,10.1289,10.1289,10.1289,10.1289,10.1289,10.0885,10.0589,10.0489,9.9404,9.8862,9.8717,9.832,9.8061,0.0,0.0,0.0,0.0,0.0,0.0,0.0,0.0,0.0,0.0,0.0,0.0,0.0,0.0,0.0,0.0,0.0,0.0,0.0,0.0,0.0,0.0,0.0,0.0,0.0,0.0,0.0,0.0,9.6288,9.6634,9.7403,9.748,9.825,9.9904,10.0096,10.0481,10.1212,10.1289,10.1289,10.1289,10.1289,10.0904,10.0096,9.925,9.8404,9.7634,9.7596,9.7134,9.6442,9.6365,9.6365,9.6365,9.6326,9.6788,9.7442,9.7442,9.798,9.8711,9.8711,9.875,9.8942,9.975,9.9981,10.0212,10.0904,10.1212,10.1212,10.1212,10.1212,10.1212,10.1212,10.1212,10.1212,10.1289,10.1289,10.1289,10.1289,10.1212,10.1212,10.1212,10.1289,10.1289,10.1289,10.1289,10.1289,10.1289,10.1289,10.1289,10.1289,10.1289,10.1289,10.1289,10.1289,10.1289,10.1289,10.1289,10.1289,10.1289,10.1289,10.1289,10.1289,10.1289,10.1289,10.1289,10.1288,10.1008,10.0489,9.9872,9.9273,9.8717,9.8655,9.8413,0.0,0.0,0.0,0.0,0.0,0.0,0.0,0.0,0.0,0.0,0.0,0.0,0.0,0.0,0.0,0.0,0.0,0.0,0.0,0.0,0.0,0.0,0.0,0.0,0.0,0.0,0.0,0.0,0.0,9.6634,9.7442,9.8019,9.8865,10.0096,10.0596,10.1019,10.1289,10.1289,10.1289,10.1289,10.0789,10.0096,9.925,9.8365,9.7519,9.6749,9.6749,9.6557,9.6288,9.6288,9.6596,9.7057,9.7057,9.7596,9.8327,9.8327,9.8904,9.9635,9.9635,9.9981,10.0519,10.0789,10.0904,10.0904,10.1212,10.1289,10.1289,10.1289,10.1289,10.1289,10.1289,10.1289,10.1289,10.1289,10.1289,10.1289,10.1289,10.1289,10.1289,10.1289,10.1289,10.1289,10.1289,10.1289,10.1289,10.1289,10.1289,10.1289,10.1289,10.1289,10.1289,10.1289,10.1289,10.1289,10.1289,10.1289,10.1289,10.1289,10.1289,10.1289,10.1289,10.1289,10.1289,10.1289,10.1289,10.121,10.1008,10.0527,10.0113,9.982,9.9041,9.8592,0.0,0.0,0.0,0.0,0.0,0.0,0.0,0.0,0.0,0.0,0.0,0.0,0.0,0.0,0.0,0.0,0.0,0.0,0.0,0.0,0.0,0.0,0.0,0.0,0.0,0.0,0.0,0.0,0.0,0.0,9.7904,9.875,9.9635,10.0481,10.1019,10.1289,10.1289,10.1289,10.1289,10.1289,10.0481,9.9635,9.875,9.7904,9.7057,9.6326,9.6596,9.6711,9.6711,9.6711,9.7211,9.7942,9.7942,9.8481,9.925,9.925,9.975,10.0481,10.0481,10.0904,10.1289,10.1289,10.1289,10.1289,10.1289,10.1289,10.1289,10.1289,10.1289,10.1289,10.1289,10.1289,10.1289,10.1289,10.1289,10.1289,10.1289,10.1289,10.1289,10.1289,10.1289,10.1289,10.1289,10.1289,10.1289,10.1289,10.1289,10.1289,10.1289,10.1289,10.1289,10.1289,10.1289,10.1289,10.1289,10.1289,10.1289,10.1289,10.1289,10.1289,10.1289,10.1289,10.1289,10.1289,10.1289,10.1289,10.1289,10.0889,10.071,10.0489,9.9714,9.91,0.0,0.0,0.0,0.0,0.0,0.0,0.0,0.0,0.0,0.0,0.0,0.0,0.0,0.0,0.0,0.0,0.0,0.0,0.0,0.0,0.0,0.0,0.0,0.0,0.0,0.0,0.0,0.0,9.7057,9.7865,9.875,9.9635,10.0481,10.1289,10.1289,10.1289,10.1289,10.1289,10.1289,10.1289,10.0404,9.9596,9.8711,9.7865,9.7057,9.6365,9.7173,9.7519,9.7557,9.7557,9.8057,9.8827,9.8827,9.9365,10.0096,10.0096,10.0596,10.1289,10.1289,10.1289,10.1289,10.1289,10.1289,10.1289,10.1289,10.1289,10.1289,10.1289,10.1289,10.1289,10.1289,10.1289,10.1289,10.1289,10.1289,10.1289,10.1289,10.1289,10.1289,10.1289,10.1289,10.1289,10.1289,10.1289,10.1289,10.1289,10.1289,10.1289,10.1289,10.1289,10.1289,10.1289,10.1289,10.1289,10.1289,10.1289,10.1289,10.1289,10.1289,10.1289,10.1289,10.1289,10.1289,10.1289,10.1289,10.1289,10.1289,10.1289,10.1011,10.0497,10.0489,9.9872,8.1093,0.0,0.0,0.0,0.0,0.0,0.0,0.0,0.0,0.0,0.0,0.0,0.0,0.0,0.0,0.0,0.0,0.0,0.0,0.0,0.0,0.0,0.0,9.6057,9.6288,9.6288,9.6288,0.0,9.7057,9.7865,9.875,10.0212,10.1096,10.1289,10.1289,10.1289,10.1289,10.1289,10.1019,10.0404,9.9558,9.8711,9.7827,9.7019,9.6826,9.7173,9.7403,9.8211,9.9327,9.8711,9.8942,9.975,9.975,10.0212,10.1019,10.1019,10.1096,10.1289,10.1289,10.1289,10.1289,10.1289,10.1289,10.1289,10.1289,10.1289,10.1289,10.1289,10.1289,10.1289,10.1289,10.1289,10.1289,10.1289,10.1289,10.1289,10.1289,10.1289,10.1289,10.1289,10.1289,10.1289,10.1289,10.1289,10.1289,10.1289,10.1289,10.1289,10.1289,10.1289,10.1289,10.1289,10.1289,10.1289,10.1289,10.1289,10.1289,10.1289,10.1289,10.1289,10.1289,10.1289,10.1289,10.1289,10.1289,10.1289,10.1289,10.1289,10.1171,10.1088,10.071,9.9872,0.0,0.0,0.0,0.0,0.0,0.0,8.4901,8.5517,8.6094,0.0,0.0,0.0,0.0,0.0,0.0,0.0,0.0,0.0,0.0,0.0,0.0,9.4903,9.5788,9.6288,9.6288,9.6288,9.6288,9.6288,9.7365,9.8557,9.9788,10.0789,10.1289,10.1289,10.1289,10.1289,10.1289,10.1289,10.0904,10.0096,9.9211,9.8327,9.748,9.7019,9.7057,9.7557,9.825,9.9173,10.0096,9.9904,10.0096,10.0596,10.0596,10.0904,10.1289,10.1289,10.1289,10.1289,10.1289,10.1289,10.1289,10.1289,10.1289,10.1289,10.1289,10.1289,10.1289,10.1289,10.1289,10.1289,10.1289,10.1289,10.1289,10.1289,10.1289,10.1289,10.1289,10.1289,10.1289,10.1289,10.1289,10.1289,10.1289,10.1289,10.1289,10.1289,10.1289,10.1289,10.1289,10.1289,10.1289,10.1289,10.1289,10.1289,10.1289,10.1289,10.1289,10.1289,10.1289,10.1289,10.1289,10.1289,10.1289,10.1289,10.1289,10.1289,10.1289,10.1289,10.1289,10.1327,10.0678,9.9974,0.0,0.0,0.0,0.0,0.0,0.0,8.4939,8.5517,8.6132,8.6209,8.7555,0.0,0.0,0.0,0.0,0.0,0.0,0.0,9.2479,9.3249,9.4057,9.5018,9.5826,9.6288,9.6288,9.6288,9.6326,9.6442,9.798,9.9635,10.1212,10.1289,10.1289,10.1289,10.1289,10.1289,10.1289,10.1289,10.0789,9.9942,9.9173,9.8327,9.7519,9.7519,9.7596,9.7865,9.9442,10.0173,10.0289,10.1019,10.1289,10.1289,10.1289,10.1289,10.1289,10.1289,10.1289,10.1289,10.1289,10.1289,10.1289,10.1289,10.1289,10.1289,10.1289,10.1289,10.1289,10.1289,10.1289,10.1289,10.1289,10.1289,10.1289,10.1289,10.1289,10.1289,10.1289,10.1289,10.1289,10.1289,10.1289,10.1289,10.1289,10.1289,10.1289,10.1289,10.1289,10.1289,10.1289,10.1289,10.1289,10.1289,10.1289,10.1289,10.1289,10.1289,10.1289,10.1289,10.1289,10.1289,10.1289,10.1289,10.1289,10.1289,10.1289,10.1289,10.1289,10.1289,10.1289,10.1327,10.0798,10.0299,0.0,0.0,0.0,0.0,0.0,0.0,8.5055,8.5517,8.6286,0.0,8.7979,8.9171,9.0671,9.1095,9.121,9.121,9.121,9.1748,9.3249,9.3595,9.4287,9.5865,9.6211,9.6288,9.6288,9.6288,9.6557,9.7211,9.8865,10.0289,10.1212,10.1289,10.1289,10.1289,10.1289,10.1289,10.1289,10.1289,10.0519,9.9058,9.8865,9.8327,9.7519,9.7519,9.825,9.9596,9.9942,10.0481,10.1096,10.1212,10.1289,10.1289,10.1289,10.1289,10.1289,10.1289,10.1289,10.1289,10.1289,10.1289,10.1289,10.1289,10.1289,10.1289,10.1289,10.1289,10.1289,10.1289,10.1289,10.1289,10.1289,10.1289,10.1289,10.1289,10.1289,10.1289,10.1289,10.1289,10.1289,10.1289,10.1289,10.1289,10.1289,10.1289,10.1289,10.1289,10.1289,10.1289,10.1289,10.1289,10.1289,10.1289,10.1289,10.1289,10.1289,10.1289,10.1289,10.1289,10.1289,10.1289,10.1289,10.1289,10.1289,10.1289,10.1289,10.1289,10.1289,10.1289,10.1289,10.1289,10.121,10.0804,0.0,0.0,0.0,8.5401,0.0,0.0,0.0,8.617,8.7017,8.7863,8.8709,8.971,9.0979,0.0,9.121,9.121,9.121,9.1787,9.3441,9.371,9.4364,9.6095,9.6288,9.6288,9.6288,9.6288,9.6826,9.8057,9.9365,10.0481,10.1289,10.1289,10.1289,10.1289,10.1289,10.1289,10.1289,10.1289,10.0519,9.8788,9.925,9.875,9.7519,9.8404,9.925,10.0096,10.0481,10.0904,10.1289,10.1289,10.1289,10.1289,10.1289,10.1289,10.1289,10.1289,10.1289,10.1289,10.1289,10.1289,10.1289,10.1289,10.1289,10.1289,10.1289,10.1289,10.1289,10.1289,10.1289,10.1289,10.1289,10.1289,10.1289,10.1289,10.1289,10.1289,10.1289,10.1289,10.1289,10.1289,10.1289,10.1289,10.1289,10.1289,10.1289,10.1289,10.1289,10.1289,10.1289,10.1289,10.1289,10.1289,10.1289,10.1289,10.1289,10.1289,10.1289,10.1289,10.1289,10.1289,10.1289,10.1289,10.1289,10.1289,10.1289,10.1289,10.1289,10.1289,10.1289,10.1289,10.1289,10.1008,0.0,0.0,0.0,0.0,0.0,8.6165,0.0,0.0,0.0,8.8709,0.0,0.0,0.0,0.0,0.0,0.0,0.0,0.0,0.0,9.348,0.0,9.6095,9.6288,9.6288,9.6288,9.6596,9.7326,9.8711,9.975,10.0596,10.1289,10.1289,10.1289,10.1289,10.1289,10.1289,10.1289,10.1289,10.0519,9.8788,9.9673,9.925,9.7788,9.9365,10.0173,10.0404,10.1019,10.1289,10.1289,10.1289,10.1289,10.1289,10.1289,10.1289,10.1289,10.1289,10.1289,10.1289,10.1289,10.1289,10.1289,10.1289,10.1289,10.1289,10.1289,10.1289,10.1289,10.1289,10.1289,10.1289,10.1289,10.1289,10.1289,10.1289,10.1289,10.1289,10.1289,10.1289,10.1289,10.1289,10.1289,10.1289,10.1289,10.1289,10.1289,10.1289,10.1289,10.1289,10.1289,10.1289,10.1289,10.1289,10.1289,10.1289,10.1289,10.1289,10.1289,10.1289,10.1289,10.1289,10.1289,10.1289,10.1289,10.1289,10.1289,10.1289,10.1289,10.1289,10.1289,10.1289,10.1289,10.1088,0.0,0.0,0.0,0.0,8.6184,0.0,0.0,0.0,8.7863,8.944,0.0,0.0,0.0,0.0,0.0,0.0,0.0,0.0,9.1479,9.2749,9.4364,9.6095,9.6288,9.6288,9.6288,9.7634,9.8596,9.8788,10.0289,10.1212,10.1289,10.1289,10.1289,10.1289,10.1289,10.1289,10.1289,10.1289,10.0519,9.8788,9.9673,9.9596,9.8673,9.9635,10.0481,10.1212,10.1289,10.1289,10.1289,10.1289,10.1289,10.1289,10.1289,10.1289,10.1289,10.1289,10.1289,10.1289,10.1289,10.1289,10.1289,10.1289,10.1289,10.1289,10.1289,10.1289,10.1289,10.1289,10.1289,10.1289,10.1289,10.1289,10.1289,10.1289,10.1289,10.1289,10.1289,10.1289,10.1289,10.1289,10.1289,10.1289,10.1289,10.1289,10.1289,10.1289,10.1289,10.1289,10.1289,10.1289,10.1289,10.1289,10.1289,10.1289,10.1289,10.1289,10.1289,10.1289,10.1289,10.1289,10.1289,10.1289,10.1289,10.1289,10.1289,10.1289,10.1289,10.1289,10.1289,10.1289,10.1289,10.1288,0.0,0.0,0.0,0.0,0.0,0.0,0.0,0.0,8.9162,0.0,0.0,0.0,0.0,0.0,0.0,0.0,9.0748,0.0,0.0,0.0,9.4364,0.0,0.0,0.0,9.6288,9.7827,9.8788,9.8788,10.0404,10.1289,10.1289,10.1289,10.1289,10.1289,10.1289,10.1289,10.1289,10.0789,10.0289,9.9558,9.9904,9.9904,9.9558,10.0404,10.1019,10.1289,10.1289,10.1289,10.1289,10.1289,10.1289,10.1289,10.1289,10.1289,10.1289,10.1289,10.1289,10.1289,10.1289,10.1289,10.1289,10.1289,10.1289,10.1289,10.1289,10.1289,10.1289,10.1289,10.1289,10.1289,10.1289,10.1289,10.1289,10.1289,10.1289,10.1289,10.1289,10.1289,10.1289,10.1289,10.1289,10.1289,10.1289,10.1289,10.1289,10.1289,10.1289,10.1289,10.1289,10.1289,10.1289,10.1289,10.1289,10.1289,10.1289,10.1289,10.1289,10.1289,10.1289,10.1289,10.1289,10.1289,10.1289,10.1289,10.1289,10.1289,10.1289,10.1289,10.1289,10.1289,10.1289,10.1289,8.7251,0.0,0.0,0.0,0.0,0.0,0.0,0.0,0.0,0.0,0.0,0.0,0.0,0.0,0.0,0.0,0.0,9.1902,0.0,0.0,0.0,0.0,0.0,0.0,0.0,9.7827,9.8788,9.8788,10.0404,10.1289,10.1289,10.1289,10.1289,10.1289,10.1289,10.1289,10.1289,10.0481,10.0096,10.0096,10.0096,10.0096,10.0096,10.0904,10.1289,10.1289,10.1289,10.1289,10.1289,10.1289,10.1289,10.1289,10.1289,10.1289,10.1289,10.1289,10.1289,10.1289,10.1289,10.1289,10.1289,10.1289,10.1289,10.1289,10.1289,10.1289,10.1289,10.1289,10.1289,10.1289,10.1289,10.1289,10.1289,10.1289,10.1289,10.1289,10.1289,10.1289,10.1289,10.1289,10.1289,10.1289,10.1289,10.1289,10.1289,10.1289,10.1289,10.1289,10.1289,10.1289,10.1289,10.1289,10.1289,10.1289,10.1289,10.1289,10.1289,10.1289,10.1289,10.1289,10.1289,10.1289,10.1289,10.1289,10.1289,10.1289,10.1289,10.1289,10.1289,10.1289,10.1289,10.1289,0.0,0.0,0.0,8.9001,0.0,0.0,0.0,0.0,9.0404,0.0,0.0,0.0,0.0,0.0,0.0,8.9017,9.0864,0.0,0.0,0.0,0.0,0.0,0.0,0.0,0.0,9.7827,9.8788,9.8788,10.0404,10.1289,10.1289,10.1289,10.1289,10.1289,10.1289,10.1289,10.1289,10.0481,10.0096,10.0096,10.0096,10.0096,10.0096,10.0904,10.1289,10.1289,10.1289,10.1289,10.1289,10.1289,10.1289,10.1289,10.1289,10.1289,10.1289,10.1289,10.1289,10.1289,10.1289,10.1289,10.1289,10.1289,10.1289,10.1289,10.1289,10.1289,10.1289,10.1289,10.1289,10.1289,10.1289,10.1289,10.1289,10.1289,10.1289,10.1289,10.1289,10.1289,10.1289,10.1289,10.1289,10.1289,10.1289,10.1289,10.1289,10.1289,10.1289,10.1289,10.1289,10.1289,10.1289,10.1289,10.1289,10.1289,10.1289,10.1289,10.1289,10.1289,10.1289,10.1289,10.1289,10.1289,10.1289,10.1289,10.1289,10.1289,10.1289,10.1289,10.1289,10.1289,10.1289,10.1289,0.0,0.0,8.9975,8.9947,0.0,0.0,0.0,0.0,0.0,0.0,0.0,0.0,0.0,0.0,9.1934,9.1287,9.2364,9.3403,0.0,0.0,0.0,0.0,0.0,0.0,0.0,0.0,9.8788,9.8788,10.0404,10.1289,10.1289,10.1289,10.1289,10.1289,10.1289,10.1289,10.1289,9.9942,9.9788,10.0904,9.975,9.9827,10.0904,10.1212,10.1289,10.1289,10.1289,10.1289,10.1289,10.1289,10.1289,10.1289,10.1289,10.1289,10.1289,10.1289,10.1289,10.1289,10.1289,10.1289,10.1289,10.1289,10.1289,10.1289,10.1289,10.1289,10.1289,10.1289,10.1289,10.1289,10.1289,10.1289,10.1289,10.1289,10.1289,10.1289,10.1289,10.1289,10.1289,10.1289,10.1289,10.1289,10.1289,10.1289,10.1289,10.1289,10.1289,10.1289,10.1289,10.1289,10.1289,10.1289,10.1289,10.1289,10.1289,10.1289,10.1289,10.1289,10.1289,10.1289,10.1289,10.1289,10.1289,10.1289,10.1289,10.1289,10.1289,10.1289,10.1289,10.1289,10.1289,10.1289,9.0091,9.0478,0.0,9.0865,9.129,0.0,9.1659,0.0,0.0,0.0,0.0,0.0,0.0,0.0,0.0,9.3012,9.3705,9.4477,0.0,9.5942,0.0,0.0,0.0,0.0,0.0,0.0,9.8481,9.8788,10.0096,10.1019,10.1289,10.1289,10.1289,10.1289,10.1289,10.1289,10.1289,9.9942,9.9942,10.1289,9.9904,9.9981,10.1289,10.1289,10.1289,10.1289,10.1289,10.1289,10.1289,10.1289,10.1289,10.1289,10.1289,10.1289,10.1289,10.1289,10.1289,10.1289,10.1289,10.1289,10.1289,10.1289,10.1289,10.1289,10.1289,10.1289,10.1404,10.2097,10.1789,10.1404,10.2097,10.1789,10.1289,10.1289,10.1289,10.1289,10.1289,10.1289,10.1289,10.1289,10.1289,10.1289,10.1289,10.1289,10.1289,10.1289,10.1289,10.1289,10.1289,10.1289,10.1289,10.1289,10.1289,10.1289,10.1289,10.1289,10.1289,10.1289,10.1289,10.1289,10.1289,10.1289,10.1404,10.1789,10.152,10.152,10.1789,10.152,10.1289,10.1289,10.1289,10.1289]},{"header":{"parameterUnit":"m.s-1","parameterCategory":1,"la1":30.6,"la2":29.2853,"lo1":-89.7004,"lo2":-87.6739,"dx":0.0162,"dy":0.0183,"nx":112,"ny":82,"refTime":"2023-02-12T06:00:00:Z","depth":0,"parameterNumber":3,"parameterNumberName":"V-component_of_WINDS"},"data":[0.0,0.0,0.0,0.0,0.0,0.0,0.0,0.0,0.0,0.0,0.0,0.0,0.0,0.0,0.0,0.0,0.0,0.0,0.0,0.0,0.0,0.0,0.0,0.0,0.0,0.0,0.0,0.0,0.0,0.0,0.0,0.0,0.0,0.0,0.0,0.0,0.0,0.0,0.0,0.0,0.0,0.0,0.0,0.0,0.0,0.0,0.0,0.0,0.0,0.0,0.0,0.0,0.0,0.0,0.0,0.0,0.0,0.0,0.0,0.0,0.0,0.0,0.0,0.0,0.0,0.0,0.0,0.0,0.0,0.0,0.0,0.0,0.0,0.0,0.0,0.0,0.0,0.0,0.0,0.0,0.0,0.0,0.0,0.0,0.0,0.0,0.0,0.0,0.0,0.0,0.0,-2.477,-2.4997,-2.5251,-2.5491,-2.5518,-2.5518,-2.5518,0.0,0.0,0.0,0.0,0.0,0.0,0.0,0.0,0.0,0.0,0.0,0.0,0.0,0.0,0.0,0.0,0.0,0.0,0.0,0.0,0.0,0.0,0.0,0.0,0.0,0.0,0.0,0.0,0.0,0.0,0.0,0.0,0.0,0.0,0.0,0.0,0.0,0.0,0.0,0.0,0.0,0.0,0.0,0.0,0.0,0.0,0.0,0.0,0.0,0.0,0.0,0.0,0.0,0.0,0.0,0.0,0.0,0.0,0.0,0.0,0.0,0.0,0.0,0.0,0.0,0.0,0.0,0.0,0.0,0.0,0.0,0.0,0.0,0.0,0.0,0.0,0.0,0.0,0.0,0.0,0.0,0.0,0.0,0.0,0.0,0.0,0.0,0.0,0.0,0.0,0.0,0.0,0.0,0.0,0.0,0.0,0.0,0.0,0.0,0.0,0.0,0.0,0.0,0.0,-2.5104,-2.5358,-2.5424,-2.5464,-2.5504,-2.5518,-2.5518,-2.5518,0.0,0.0,0.0,0.0,0.0,0.0,0.0,0.0,0.0,0.0,0.0,0.0,0.0,0.0,0.0,0.0,0.0,0.0,0.0,0.0,0.0,0.0,0.0,0.0,0.0,0.0,0.0,0.0,0.0,0.0,0.0,0.0,0.0,0.0,0.0,0.0,0.0,0.0,0.0,0.0,0.0,0.0,0.0,0.0,0.0,0.0,0.0,0.0,0.0,0.0,0.0,0.0,0.0,0.0,0.0,0.0,0.0,0.0,0.0,0.0,0.0,0.0,0.0,0.0,0.0,0.0,0.0,0.0,0.0,0.0,0.0,0.0,0.0,0.0,0.0,0.0,0.0,0.0,0.0,0.0,0.0,0.0,0.0,0.0,0.0,0.0,0.0,0.0,0.0,0.0,0.0,0.0,0.0,0.0,0.0,0.0,0.0,0.0,0.0,0.0,0.0,0.0,0.0,-2.5317,-2.5424,-2.5718,-2.5758,-2.5812,-2.5972,-2.5985,-2.5985,-2.5985,-2.5718,0.0,0.0,0.0,0.0,0.0,0.0,0.0,0.0,0.0,0.0,0.0,0.0,0.0,0.0,0.0,0.0,0.0,0.0,0.0,0.0,0.0,0.0,0.0,0.0,0.0,0.0,0.0,0.0,0.0,0.0,0.0,0.0,0.0,0.0,0.0,0.0,0.0,0.0,0.0,0.0,0.0,0.0,0.0,0.0,0.0,0.0,0.0,0.0,0.0,0.0,0.0,0.0,0.0,0.0,0.0,0.0,0.0,0.0,0.0,0.0,0.0,0.0,0.0,0.0,0.0,0.0,0.0,0.0,0.0,0.0,0.0,0.0,0.0,0.0,0.0,0.0,0.0,0.0,0.0,0.0,0.0,0.0,0.0,0.0,0.0,0.0,0.0,0.0,0.0,0.0,0.0,0.0,0.0,0.0,0.0,0.0,0.0,0.0,0.0,0.0,0.0,0.0,-2.5678,-2.5812,-2.6039,-2.6052,-2.6146,-2.6373,-2.6386,-2.6386,-2.6386,-2.6186,0.0,0.0,0.0,0.0,0.0,0.0,0.0,0.0,0.0,0.0,0.0,0.0,0.0,0.0,0.0,0.0,0.0,0.0,0.0,0.0,0.0,0.0,0.0,0.0,0.0,0.0,0.0,0.0,0.0,0.0,0.0,0.0,0.0,0.0,0.0,0.0,0.0,0.0,0.0,0.0,0.0,0.0,0.0,0.0,0.0,0.0,0.0,0.0,0.0,0.0,0.0,0.0,0.0,0.0,0.0,0.0,0.0,0.0,0.0,0.0,0.0,0.0,0.0,0.0,0.0,0.0,0.0,0.0,0.0,0.0,0.0,0.0,0.0,0.0,0.0,0.0,0.0,0.0,0.0,0.0,0.0,0.0,0.0,0.0,0.0,0.0,0.0,0.0,0.0,0.0,0.0,0.0,0.0,0.0,0.0,0.0,0.0,0.0,0.0,0.0,0.0,0.0,-2.6159,-2.6333,-2.636,-2.636,-2.6373,-2.6386,-2.6386,-2.6386,-2.6386,-2.6373,0.0,0.0,0.0,0.0,0.0,0.0,0.0,0.0,0.0,0.0,0.0,0.0,0.0,0.0,0.0,0.0,0.0,0.0,0.0,0.0,0.0,0.0,0.0,0.0,0.0,0.0,0.0,0.0,0.0,0.0,0.0,0.0,0.0,0.0,0.0,0.0,0.0,0.0,0.0,0.0,0.0,0.0,0.0,0.0,0.0,0.0,0.0,0.0,0.0,0.0,0.0,0.0,0.0,0.0,0.0,0.0,0.0,0.0,0.0,0.0,0.0,0.0,0.0,0.0,0.0,0.0,0.0,0.0,0.0,0.0,0.0,0.0,0.0,0.0,0.0,0.0,0.0,0.0,0.0,0.0,0.0,0.0,0.0,0.0,0.0,0.0,0.0,0.0,0.0,0.0,0.0,0.0,0.0,0.0,0.0,0.0,0.0,0.0,0.0,0.0,0.0,0.0,-2.6319,-2.6386,0.0,-2.6386,-2.6386,-2.6386,-2.6386,-2.6386,-2.6386,0.0,0.0,0.0,0.0,0.0,0.0,0.0,0.0,0.0,0.0,0.0,0.0,0.0,0.0,0.0,0.0,0.0,0.0,0.0,0.0,0.0,0.0,0.0,0.0,0.0,0.0,0.0,0.0,0.0,0.0,0.0,0.0,0.0,0.0,0.0,0.0,0.0,0.0,0.0,0.0,0.0,0.0,0.0,0.0,0.0,0.0,0.0,0.0,0.0,0.0,0.0,0.0,0.0,0.0,0.0,0.0,0.0,0.0,0.0,0.0,0.0,0.0,0.0,0.0,0.0,0.0,0.0,0.0,0.0,0.0,0.0,0.0,0.0,0.0,0.0,0.0,0.0,0.0,0.0,0.0,0.0,0.0,0.0,0.0,0.0,0.0,0.0,0.0,0.0,0.0,0.0,0.0,0.0,0.0,0.0,0.0,0.0,0.0,0.0,0.0,0.0,0.0,-2.6386,-2.6386,-2.6386,0.0,-2.6386,-2.6386,-2.6386,-2.6386,-2.6386,-2.6386,0.0,0.0,0.0,0.0,0.0,0.0,0.0,0.0,0.0,0.0,0.0,0.0,0.0,0.0,0.0,0.0,0.0,0.0,0.0,0.0,0.0,0.0,0.0,0.0,0.0,0.0,0.0,0.0,0.0,0.0,0.0,0.0,0.0,0.0,0.0,0.0,0.0,0.0,0.0,0.0,0.0,0.0,0.0,0.0,0.0,0.0,0.0,0.0,0.0,0.0,0.0,0.0,0.0,0.0,0.0,0.0,0.0,0.0,0.0,0.0,0.0,0.0,0.0,0.0,0.0,0.0,0.0,0.0,0.0,0.0,0.0,0.0,0.0,0.0,0.0,0.0,0.0,0.0,0.0,0.0,0.0,0.0,0.0,0.0,0.0,0.0,0.0,0.0,0.0,0.0,0.0,0.0,0.0,0.0,0.0,0.0,0.0,0.0,0.0,0.0,0.0,0.0,-2.6386,-2.6386,-2.6386,-2.6386,-2.6386,-2.64,-2.64,-2.64,-2.64,0.0,0.0,0.0,0.0,0.0,0.0,0.0,0.0,0.0,0.0,0.0,0.0,0.0,0.0,0.0,0.0,0.0,0.0,0.0,0.0,0.0,0.0,0.0,0.0,0.0,0.0,0.0,0.0,0.0,0.0,0.0,0.0,0.0,0.0,0.0,0.0,0.0,0.0,0.0,0.0,0.0,0.0,0.0,0.0,0.0,0.0,0.0,0.0,0.0,0.0,0.0,0.0,0.0,0.0,0.0,0.0,0.0,0.0,0.0,0.0,0.0,0.0,0.0,0.0,0.0,0.0,0.0,0.0,0.0,0.0,0.0,0.0,0.0,0.0,0.0,0.0,0.0,0.0,0.0,0.0,0.0,0.0,0.0,0.0,0.0,0.0,0.0,0.0,0.0,0.0,0.0,0.0,0.0,0.0,0.0,0.0,0.0,0.0,0.0,0.0,0.0,0.0,0.0,-2.6386,-2.6386,-2.6466,-2.668,-2.6694,-2.6787,-2.6987,-2.7001,-2.7001,-2.7001,0.0,0.0,0.0,0.0,0.0,0.0,0.0,0.0,0.0,0.0,0.0,0.0,0.0,0.0,0.0,0.0,0.0,0.0,0.0,0.0,0.0,0.0,0.0,0.0,0.0,0.0,0.0,0.0,0.0,0.0,0.0,0.0,0.0,0.0,0.0,0.0,0.0,0.0,0.0,0.0,0.0,0.0,0.0,0.0,0.0,0.0,0.0,0.0,0.0,0.0,0.0,0.0,0.0,0.0,0.0,0.0,0.0,0.0,0.0,0.0,0.0,0.0,0.0,0.0,0.0,0.0,0.0,0.0,0.0,0.0,0.0,0.0,0.0,0.0,0.0,0.0,0.0,0.0,0.0,0.0,0.0,0.0,0.0,0.0,0.0,0.0,0.0,0.0,0.0,0.0,0.0,0.0,0.0,0.0,0.0,0.0,0.0,0.0,0.0,0.0,0.0,0.0,-2.6414,-2.6347,-2.6492,-2.6488,-2.6515,-2.658,-2.6764,-2.6777,-2.6777,-2.6777,0.0,0.0,0.0,0.0,0.0,0.0,0.0,0.0,0.0,0.0,0.0,0.0,0.0,0.0,0.0,0.0,0.0,0.0,0.0,0.0,0.0,0.0,0.0,0.0,0.0,0.0,0.0,0.0,0.0,0.0,0.0,0.0,0.0,0.0,0.0,0.0,0.0,0.0,0.0,0.0,0.0,0.0,0.0,0.0,0.0,0.0,0.0,0.0,0.0,0.0,0.0,0.0,0.0,0.0,0.0,0.0,0.0,0.0,0.0,0.0,0.0,0.0,0.0,0.0,0.0,0.0,0.0,0.0,0.0,0.0,0.0,0.0,0.0,0.0,0.0,0.0,0.0,0.0,0.0,0.0,0.0,0.0,0.0,0.0,0.0,0.0,0.0,0.0,0.0,0.0,0.0,0.0,0.0,0.0,0.0,0.0,0.0,0.0,0.0,0.0,0.0,0.0,-2.6235,-2.647,-2.6462,-2.5995,-2.5995,-2.6007,-2.6033,-2.6033,-2.6033,-2.6033,0.0,0.0,0.0,0.0,0.0,0.0,0.0,0.0,0.0,0.0,0.0,0.0,0.0,0.0,0.0,0.0,0.0,0.0,0.0,0.0,0.0,0.0,0.0,0.0,0.0,0.0,0.0,0.0,0.0,0.0,0.0,0.0,0.0,0.0,0.0,0.0,0.0,0.0,0.0,0.0,0.0,0.0,0.0,0.0,0.0,0.0,0.0,0.0,0.0,0.0,0.0,0.0,0.0,0.0,0.0,0.0,0.0,0.0,0.0,0.0,-2.3536,0.0,0.0,0.0,0.0,0.0,0.0,0.0,0.0,0.0,0.0,0.0,0.0,0.0,0.0,0.0,0.0,0.0,0.0,0.0,0.0,0.0,0.0,0.0,0.0,0.0,0.0,0.0,0.0,0.0,0.0,0.0,0.0,0.0,0.0,0.0,0.0,0.0,0.0,0.0,0.0,0.0,-2.6535,-2.6587,-2.654,-2.6262,-2.6952,-2.721,-2.711,-2.7459,-2.7627,-2.7123,0.0,0.0,0.0,0.0,0.0,0.0,0.0,0.0,0.0,0.0,0.0,0.0,0.0,0.0,0.0,0.0,0.0,0.0,0.0,0.0,0.0,0.0,0.0,0.0,0.0,0.0,0.0,0.0,0.0,0.0,0.0,0.0,0.0,0.0,0.0,0.0,0.0,0.0,0.0,0.0,0.0,0.0,0.0,0.0,0.0,0.0,0.0,0.0,0.0,0.0,0.0,0.0,0.0,0.0,0.0,0.0,0.0,0.0,0.0,0.0,0.0,-2.3587,0.0,0.0,0.0,0.0,0.0,0.0,0.0,0.0,0.0,0.0,0.0,0.0,0.0,0.0,0.0,0.0,0.0,0.0,0.0,0.0,0.0,0.0,0.0,0.0,0.0,0.0,0.0,0.0,0.0,0.0,0.0,0.0,0.0,0.0,0.0,0.0,0.0,0.0,0.0,0.0,-2.6822,-2.6786,-2.6581,-2.6217,-2.6398,-2.663,-2.6443,-2.6796,-2.6796,-2.6456,-2.6626,0.0,0.0,0.0,0.0,0.0,0.0,0.0,0.0,0.0,0.0,0.0,0.0,0.0,0.0,0.0,0.0,0.0,0.0,0.0,0.0,0.0,0.0,0.0,0.0,0.0,0.0,0.0,0.0,0.0,0.0,0.0,0.0,0.0,0.0,0.0,0.0,0.0,0.0,0.0,0.0,0.0,0.0,0.0,0.0,0.0,0.0,0.0,0.0,0.0,0.0,0.0,0.0,0.0,-2.3888,-2.3913,-2.3913,-2.3961,-2.3985,-2.3985,-2.3985,-2.4097,-2.4332,0.0,0.0,0.0,0.0,0.0,0.0,0.0,0.0,0.0,0.0,0.0,0.0,0.0,0.0,0.0,0.0,0.0,0.0,0.0,0.0,0.0,0.0,0.0,0.0,0.0,-2.7268,-2.7215,0.0,0.0,0.0,0.0,0.0,0.0,0.0,0.0,0.0,0.0,0.0,0.0,-2.6955,-2.6812,-2.6443,-2.6103,-2.5775,-2.5604,-2.5604,-2.5604,-2.5604,-2.5604,-2.5933,-2.6273,0.0,0.0,0.0,0.0,0.0,0.0,0.0,0.0,0.0,0.0,0.0,0.0,0.0,0.0,0.0,0.0,0.0,0.0,0.0,0.0,0.0,0.0,0.0,0.0,0.0,0.0,0.0,0.0,0.0,0.0,0.0,0.0,-2.354,-2.3618,0.0,0.0,0.0,0.0,0.0,0.0,0.0,0.0,0.0,0.0,0.0,0.0,0.0,-2.3792,-2.3792,-2.3828,-2.384,-2.3852,-2.4082,-2.4178,-2.419,-2.442,-2.4516,-2.4516,-2.4516,0.0,-2.3864,-2.4094,0.0,0.0,0.0,0.0,0.0,0.0,0.0,0.0,0.0,0.0,0.0,0.0,0.0,0.0,0.0,0.0,0.0,0.0,0.0,0.0,0.0,0.0,-2.6134,-2.6134,-2.6777,-2.7321,0.0,-2.7388,-2.7215,-2.7255,-2.7268,0.0,0.0,0.0,0.0,0.0,0.0,0.0,-2.6901,-2.6418,-2.5933,-2.5604,-2.6116,-2.6443,-2.6103,-2.6443,-2.6443,-2.6103,-2.6103,-2.6103,-2.6273,-2.6613,0.0,0.0,0.0,0.0,0.0,0.0,0.0,0.0,0.0,0.0,0.0,0.0,0.0,0.0,0.0,0.0,0.0,0.0,0.0,0.0,0.0,0.0,0.0,0.0,0.0,0.0,0.0,0.0,0.0,-2.3279,-2.3267,-2.324,-2.3389,-2.3372,0.0,0.0,0.0,0.0,0.0,0.0,0.0,0.0,0.0,-2.384,-2.384,-2.3913,-2.4057,-2.4057,-2.4142,-2.4287,-2.4395,-2.4456,-2.4456,-2.4576,-2.4625,-2.4625,-2.4625,-2.4492,-2.4299,-2.4407,-2.462,-2.4796,0.0,0.0,0.0,0.0,-2.5298,-2.5298,-2.5133,-2.512,0.0,-2.5462,0.0,0.0,0.0,0.0,0.0,0.0,0.0,0.0,0.0,0.0,0.0,-2.6774,-2.7096,-2.7469,-2.7601,-2.7689,-2.7762,0.0,-2.7762,-2.7762,-2.7762,0.0,0.0,0.0,0.0,0.0,-2.7135,-2.6613,-2.6273,-2.6626,-2.6456,-2.6443,-2.6443,-2.6613,-2.6796,-2.6443,-2.6443,-2.6443,-2.6443,-2.6613,-2.6965,0.0,0.0,0.0,0.0,0.0,0.0,0.0,0.0,0.0,0.0,0.0,0.0,0.0,0.0,0.0,0.0,0.0,0.0,0.0,0.0,0.0,0.0,0.0,0.0,0.0,0.0,0.0,0.0,-2.319,-2.3084,-2.285,-2.3328,-2.3475,0.0,0.0,0.0,0.0,0.0,0.0,-2.384,-2.3913,-2.3949,-2.3949,-2.4009,-2.4142,-2.4335,-2.4335,-2.4432,-2.4625,-2.4697,-2.4733,-2.4733,-2.4806,-2.483,-2.483,-2.483,-2.483,-2.483,-2.4758,-2.4899,-2.5243,-2.5317,-2.5508,-2.5675,-2.5508,-2.5342,-2.5342,-2.5009,-2.483,-2.483,-2.5175,0.0,-2.5508,-2.5841,0.0,0.0,0.0,0.0,-2.6813,-2.6658,-2.698,-2.7304,-2.7304,-2.7474,-2.7643,-2.7643,-2.7981,-2.8136,0.0,-2.8136,-2.8136,-2.8136,0.0,0.0,0.0,0.0,-2.7487,-2.7487,-2.6783,-2.6443,-2.7135,-2.6443,-2.6273,-2.6456,-2.6456,-2.6456,-2.6456,-2.6456,-2.6443,-2.6613,-2.6796,-2.6965,-2.7487,0.0,0.0,0.0,0.0,0.0,0.0,0.0,0.0,0.0,0.0,0.0,0.0,0.0,0.0,0.0,0.0,0.0,0.0,0.0,0.0,0.0,0.0,0.0,0.0,0.0,0.0,0.0,0.0,0.0,-2.3381,-2.3418,0.0,0.0,0.0,0.0,-2.3828,-2.384,-2.384,-2.384,-2.4082,-2.4214,-2.4214,-2.4456,-2.4589,-2.4601,-2.4601,-2.4613,-2.4625,-2.4902,-2.5023,-2.5035,-2.5289,-2.5397,-2.5397,-2.5397,-2.5397,-2.5373,-2.5132,-2.5023,-2.5047,-2.5301,-2.5397,-2.5397,-2.5397,-2.5397,-2.5397,-2.5397,-2.5397,-2.5397,-2.5397,-2.5726,-2.6054,-2.6054,-2.6406,0.0,0.0,-2.6066,-2.6078,-2.558,-2.6103,-2.6796,-2.6796,-2.7474,-2.815,-2.815,-2.815,-2.8136,0.0,-2.8136,-2.8136,-2.8136,0.0,-2.8136,-2.8136,-2.7812,-2.7487,-2.7487,-2.7135,-2.6613,-2.6273,-2.6103,-2.5933,-2.5433,-2.5433,-2.5433,-2.5433,-2.5433,-2.5604,-2.6103,-2.6613,-2.6965,-2.7487,-2.7981,0.0,0.0,0.0,0.0,0.0,0.0,0.0,0.0,0.0,0.0,0.0,0.0,0.0,0.0,0.0,0.0,0.0,0.0,0.0,0.0,0.0,0.0,0.0,0.0,0.0,0.0,0.0,0.0,-2.3442,-2.3599,0.0,-2.384,-2.384,-2.384,-2.384,-2.3997,-2.4094,-2.4094,-2.4347,-2.4492,-2.4492,-2.4576,-2.4709,-2.489,-2.4902,-2.4987,-2.5144,-2.5252,-2.5301,-2.5301,-2.5397,-2.5433,-2.5433,-2.5433,-2.5433,-2.5433,-2.5337,-2.5301,-2.5313,-2.5397,-2.5433,-2.5433,-2.5433,-2.5433,-2.5433,-2.5433,-2.5433,-2.5433,-2.5433,-2.5433,-2.5604,-2.5604,-2.5775,-2.5945,-2.6103,-2.6103,-2.6103,-2.6286,-2.6273,-2.6443,-2.6783,-2.7135,-2.7304,-2.7643,-2.7981,-2.8136,-2.8136,-2.8136,-2.8136,-2.8136,-2.8136,-2.815,-2.7812,-2.7304,-2.7135,-2.7135,-2.6456,-2.6116,-2.6443,-2.6273,-2.6103,-2.6286,-2.6286,-2.6286,-2.6286,-2.6286,-2.6273,-2.6103,-2.6613,-2.6965,-2.7135,-2.7474,-2.7981,0.0,0.0,0.0,0.0,0.0,0.0,0.0,0.0,0.0,0.0,0.0,0.0,0.0,0.0,0.0,0.0,0.0,0.0,0.0,0.0,0.0,0.0,0.0,0.0,0.0,0.0,-2.3587,-2.3587,-2.3744,-2.384,-2.384,-2.3925,-2.3973,-2.3973,-2.4214,-2.4359,-2.4359,-2.4625,-2.477,-2.477,-2.4854,-2.4987,-2.518,-2.518,-2.5264,-2.5433,-2.5433,-2.5433,-2.5433,-2.5433,-2.5433,-2.5433,-2.5433,-2.5433,-2.5433,-2.5433,-2.5433,-2.5433,-2.5433,-2.5433,-2.5433,-2.5433,-2.5433,-2.5433,-2.5433,-2.5433,-2.5433,-2.5433,-2.5433,-2.5433,-2.5433,-2.5433,-2.5433,-2.5763,-2.5933,-2.5933,-2.6286,-2.6273,-2.6443,-2.6783,-2.6953,-2.7304,-2.7643,-2.7981,-2.8136,-2.8136,-2.8136,-2.8136,-2.8136,-2.8136,-2.815,-2.7812,-2.7474,-2.7292,-2.7292,-2.6626,-2.6286,-2.6965,-2.6613,-2.6443,-2.6613,-2.6796,-2.6626,-2.6286,-2.6456,-2.6443,-2.6103,-2.6613,-2.6796,-2.6965,-2.7474,-2.7812,-2.8136,0.0,0.0,0.0,0.0,0.0,0.0,0.0,0.0,0.0,0.0,0.0,0.0,0.0,0.0,0.0,0.0,0.0,0.0,0.0,0.0,0.0,0.0,0.0,-2.3938,-2.3842,-2.384,-2.384,-2.3852,-2.3852,-2.3852,-2.4094,-2.4251,-2.4251,-2.4492,-2.4637,-2.4637,-2.4902,-2.5059,-2.5059,-2.5301,-2.5433,-2.5433,-2.5433,-2.5433,-2.5433,-2.5433,-2.5433,-2.5433,-2.5433,-2.5433,-2.5433,-2.5433,-2.5433,-2.5433,-2.5433,-2.5433,-2.5433,-2.5433,-2.5433,-2.5433,-2.5433,-2.5433,-2.5433,-2.5433,-2.5433,-2.5433,-2.5433,-2.5433,-2.5433,-2.5433,-2.5433,-2.5433,-2.5433,-2.5433,-2.5433,-2.5433,-2.6116,-2.6796,-2.6796,-2.7461,-2.8136,-2.8136,-2.815,-2.815,-2.8136,-2.8136,-2.8136,-2.8136,-2.8136,-2.8136,-2.8136,-2.815,0.0,-2.815,-2.7812,-2.7487,-2.7487,-2.7135,-2.6613,-2.6103,-2.6443,-2.6456,-2.5433,-2.5763,-2.6103,-2.6103,-2.6613,-2.6965,-2.7474,-2.7981,-2.8136,-2.8136,0.0,0.0,0.0,0.0,0.0,0.0,0.0,0.0,0.0,0.0,0.0,0.0,0.0,0.0,0.0,0.0,0.0,0.0,0.0,0.0,0.0,0.0,-2.3891,-2.3891,-2.3804,-2.384,-2.384,-2.4009,-2.413,-2.413,-2.4359,-2.4516,-2.4516,-2.477,-2.4927,-2.4927,-2.518,-2.5325,-2.5325,-2.5397,-2.5433,-2.5433,-2.5433,-2.5433,-2.5433,-2.5433,-2.5433,-2.5433,-2.5433,-2.5433,-2.5433,-2.5433,-2.5433,-2.5433,-2.5433,-2.5433,-2.5433,-2.5433,-2.5433,-2.5433,-2.5433,-2.5433,-2.5433,-2.5433,-2.5433,-2.5433,-2.5433,-2.5433,-2.5433,-2.5433,-2.5433,-2.5433,-2.5763,-2.5604,-2.5604,-2.6286,-2.6273,-2.6443,-2.6783,-2.6965,-2.7304,-2.7643,-2.7643,-2.7812,-2.815,-2.8136,-2.8136,-2.8136,-2.8136,-2.8136,-2.8136,-2.7981,0.0,-2.7643,-2.7304,-2.6965,-2.6965,-2.6965,-2.6613,-2.6103,-2.6273,-2.6103,-2.5433,-2.5763,-2.6103,-2.6103,-2.6965,-2.7474,-2.7981,-2.815,-2.8136,0.0,0.0,0.0,0.0,0.0,0.0,0.0,0.0,0.0,0.0,0.0,0.0,0.0,0.0,0.0,0.0,0.0,0.0,0.0,0.0,0.0,0.0,-2.4,-2.3888,-2.3997,-2.4009,-2.4009,-2.4009,-2.4238,-2.4395,-2.4395,-2.4649,-2.4806,-2.4806,-2.5059,-2.5204,-2.5204,-2.5361,-2.5433,-2.5433,-2.5433,-2.5433,-2.5433,-2.5433,-2.5433,-2.5433,-2.5433,-2.5433,-2.5433,-2.5433,-2.5433,0.0,-2.5433,-2.5433,-2.5433,-2.5433,-2.5433,0.0,0.0,0.0,0.0,0.0,-2.5433,-2.5433,-2.5433,-2.5433,-2.5433,-2.5433,-2.5433,-2.5433,-2.5433,-2.5433,-2.5433,-2.5775,-2.5604,-2.5604,-2.6116,-2.6103,-2.6103,-2.6443,-2.6796,-2.7135,-2.7487,-2.7643,-2.7812,-2.8136,-2.8136,0.0,-2.8136,-2.8136,-2.8136,-2.8136,-2.7981,-2.7643,-2.7487,-2.7135,-2.6796,-2.6796,-2.6613,-2.6443,-2.6103,-2.6273,0.0,0.0,0.0,-2.6273,-2.6443,-2.6965,0.0,0.0,0.0,-2.8136,-2.8136,0.0,0.0,0.0,-2.8056,-2.8056,0.0,0.0,0.0,0.0,0.0,0.0,0.0,0.0,0.0,0.0,0.0,0.0,0.0,0.0,0.0,0.0,-2.4049,-2.3985,-2.4238,-2.4311,-2.4311,-2.4287,-2.4516,-2.4673,-2.4673,-2.4927,-2.5096,-2.5096,-2.5313,-2.5433,-2.5433,0.0,0.0,0.0,0.0,-2.5433,-2.5433,-2.5433,-2.5433,-2.5433,-2.5433,-2.5433,-2.5433,-2.5433,-2.5433,-2.5433,-2.5433,-2.5433,-2.5433,-2.5433,-2.5433,-2.5433,-2.5433,-2.5433,-2.5433,-2.5433,-2.5433,-2.5433,-2.5433,0.0,0.0,-2.5433,-2.5433,-2.5433,-2.5433,-2.5433,-2.5433,-2.5433,-2.5433,-2.5433,-2.5433,-2.5763,-2.6103,-2.6103,-2.6796,-2.7487,-2.7487,-2.7812,-2.815,-2.8136,-2.8136,-2.8136,-2.8136,-2.8136,-2.8136,-2.8136,-2.8136,-2.7981,-2.7643,-2.7304,-2.6953,-2.6965,0.0,0.0,-2.6103,-2.6443,-2.6286,-2.5433,-2.5763,-2.6273,-2.6796,-2.6965,-2.7304,-2.815,-2.8136,-2.8136,-2.8136,-2.8136,-2.8136,-2.8136,-2.8136,-2.8136,0.0,0.0,0.0,0.0,0.0,0.0,0.0,0.0,0.0,0.0,0.0,0.0,0.0,0.0,0.0,-2.4292,-2.4154,-2.4251,-2.4516,-2.4745,-2.4806,-2.4576,-2.4794,-2.4963,-2.4963,-2.5204,-2.5361,-2.5361,-2.5409,-2.5433,-2.5433,-2.5433,-2.5433,-2.5433,-2.5433,-2.5433,-2.5433,-2.5433,-2.5433,-2.5433,0.0,0.0,-2.5433,-2.5433,-2.5433,-2.5433,-2.5433,-2.5433,-2.5433,-2.5433,-2.5433,-2.5433,-2.5433,-2.5433,-2.5433,-2.5433,-2.5433,-2.5433,-2.5433,-2.5433,-2.5433,-2.5433,-2.5433,-2.5433,-2.5433,-2.5433,0.0,-2.5433,-2.5433,-2.5433,-2.5933,-2.6103,-2.6273,-2.6613,-2.6796,-2.6965,-2.7474,-2.7643,-2.7812,-2.815,-2.8136,-2.8136,-2.8136,-2.8136,-2.8136,-2.8136,-2.8136,-2.8136,-2.815,-2.7981,-2.7812,-2.7474,-2.7304,-2.6965,-2.6103,-2.6103,-2.5933,-2.5433,-2.5763,-2.6443,-2.7304,-2.7304,-2.7643,-2.8136,-2.8136,-2.8136,-2.8136,-2.8136,-2.8136,-2.8136,-2.8136,-2.8136,0.0,0.0,0.0,0.0,0.0,0.0,0.0,0.0,0.0,0.0,0.0,-2.4689,0.0,0.0,-2.4292,-2.4383,-2.4432,-2.4528,-2.4794,-2.4963,-2.4999,-2.4854,-2.5071,-2.524,-2.524,-2.5361,-2.5433,-2.5433,-2.5433,-2.5433,-2.5433,-2.5433,-2.5433,-2.5433,-2.5433,-2.5433,-2.5433,-2.5433,-2.5433,-2.5433,-2.5433,-2.5433,-2.5433,-2.5433,-2.5433,-2.5433,-2.5433,-2.5433,-2.5433,-2.5433,-2.5433,-2.5433,-2.5433,-2.5433,-2.5433,-2.5433,-2.5433,-2.5433,-2.5433,-2.5433,-2.5433,-2.5433,-2.5433,-2.5433,-2.5433,-2.5433,-2.5433,-2.5433,-2.5433,-2.5433,-2.5775,-2.5763,-2.5763,-2.6116,-2.6273,-2.6443,-2.6783,-2.6965,-2.7304,-2.7812,-2.7812,-2.7981,-2.815,-2.8136,-2.8136,-2.8136,-2.8136,-2.815,-2.7812,-2.7812,-2.7643,-2.7135,-2.7093,-2.6841,-2.6314,-2.6265,-2.5993,-2.5832,-2.5872,-2.6314,-2.7341,-2.7212,-2.7474,-2.815,-2.8136,-2.8136,-2.8136,-2.8136,-2.8136,-2.8136,-2.8136,-2.8136,0.0,0.0,0.0,0.0,0.0,0.0,0.0,0.0,-2.5353,-2.4566,-2.4455,-2.4392,-2.4275,-2.4311,-2.4395,-2.4661,-2.4709,-2.4806,-2.5083,-2.512,-2.512,-2.512,-2.5313,-2.5433,-2.5433,-2.5433,-2.5433,-2.5433,-2.5433,-2.5433,-2.5433,-2.5433,-2.5433,-2.5433,-2.5433,-2.5433,-2.5433,-2.5433,-2.5433,-2.5433,-2.5433,-2.5433,-2.5433,-2.5433,-2.5433,-2.5433,-2.5433,-2.5433,-2.5433,-2.5433,-2.5433,-2.5433,-2.5433,-2.5433,-2.5433,-2.5433,-2.5433,-2.5433,-2.5433,-2.5433,-2.5433,-2.5433,-2.5433,-2.5433,-2.5433,-2.5433,-2.5433,-2.5433,-2.5433,-2.5433,-2.5433,-2.5433,-2.5433,-2.5433,-2.5763,-2.6103,-2.6273,-2.6664,-2.7212,-2.7565,-2.7604,-2.7984,-2.8323,-2.831,-2.8297,-2.8243,-2.823,-2.8087,-2.7814,-2.7643,-2.7473,-2.6948,-2.6648,-2.6611,-2.6438,-2.6273,-2.6218,-2.6218,-2.6025,-2.6252,-2.7106,-2.6904,-2.729,-2.814,-2.814,-2.8283,-2.823,-2.823,-2.8203,-2.8136,-2.8136,-2.8136,-2.5289,-2.497,-2.4492,-2.416,-2.4332,-2.4492,0.0,0.0,-2.4839,-2.4353,-2.4371,-2.4552,-2.4576,-2.4589,-2.4673,-2.4951,-2.4999,-2.5096,-2.5361,-2.5397,-2.5397,-2.5397,-2.5421,-2.5433,-2.5433,-2.5433,-2.5433,-2.5433,-2.5433,-2.5433,-2.5433,-2.5433,-2.5433,-2.5433,-2.5433,-2.5433,-2.5433,-2.5433,-2.5433,-2.5433,-2.5433,-2.5433,-2.5433,-2.5433,-2.5433,-2.5433,-2.5433,-2.5433,-2.5433,-2.5433,-2.5433,-2.5433,-2.5433,-2.5433,-2.5433,-2.5433,-2.5433,-2.5433,-2.5433,-2.5433,-2.5433,-2.5433,-2.5433,-2.5433,-2.5433,-2.5433,-2.5433,-2.5433,-2.5433,-2.5433,-2.5433,-2.5433,-2.5433,-2.5933,-2.6103,-2.6273,-2.6613,-2.7328,-2.7852,-2.7852,-2.8419,-2.8765,-2.8938,-2.8578,-2.8325,-2.8591,-2.8551,-2.8644,-2.8738,-2.8417,-2.8056,-2.7521,-2.7034,-2.6709,-2.6345,-2.6206,-2.6218,-2.6218,-2.6194,-2.6358,-2.6884,-2.6859,-2.7359,-2.823,-2.823,-2.8459,-2.8551,-2.8551,-2.8417,-2.8136,-2.8136,-2.8136,-2.513,-2.5211,0.0,0.0,-2.4677,-2.4963,-2.48,-2.4886,-2.496,-2.4468,-2.4552,-2.4673,-2.4842,-2.4866,-2.4963,0.0,-2.5277,-2.5313,-2.5421,-2.5433,-2.5433,-2.5433,-2.5433,-2.5433,-2.5433,-2.5433,-2.5433,-2.5433,-2.5433,-2.5433,-2.5433,-2.5433,-2.5433,-2.5433,-2.5433,-2.5433,-2.5433,-2.5433,-2.5433,-2.5433,-2.5433,-2.5433,-2.5433,-2.5433,-2.5433,-2.5433,-2.5433,-2.5433,-2.5433,-2.5433,-2.5433,-2.5433,-2.5433,-2.553,-2.5651,-2.5494,-2.5433,-2.5433,-2.5433,-2.5433,-2.5433,-2.5433,-2.5433,-2.547,-2.5615,-2.5663,-2.5699,-2.5844,-2.5892,-2.5892,-2.5892,-2.5892,-2.5892,-2.6054,-2.6227,-2.6227,-2.6413,-2.6673,-2.6935,-2.7283,-2.7559,-2.781,-2.816,-2.7985,-2.7998,-2.8225,-2.8095,-2.803,-2.8147,-2.7985,-2.7699,-2.7498,-2.7157,-2.7054,-2.6677,-2.6689,-2.6689,-2.6689,-2.6544,-2.6637,-2.7169,-2.702,-2.7285,-2.8321,-2.8321,-2.8443,-2.8858,-2.8858,-2.8791,-2.8657,-2.8484,-2.8417,-2.5519,0.0,0.0,-2.505,-2.4985,-2.5133,-2.5133,-2.5194,-2.5078,-2.4745,-2.4806,-2.4914,-2.512,-2.5156,0.0,-2.5409,-2.5433,-2.5433,-2.5433,-2.5433,-2.5433,-2.5433,-2.5433,-2.5433,-2.5433,-2.5433,-2.5433,-2.5433,-2.5433,-2.5433,-2.5433,-2.5433,-2.5433,-2.5433,-2.5433,-2.5433,-2.5433,-2.5433,-2.5433,-2.5433,-2.5433,-2.5433,-2.5433,-2.5433,-2.5433,-2.5433,-2.5433,-2.5482,-2.5542,-2.5542,-2.559,-2.5651,-2.5651,-2.5771,-2.5916,-2.5723,-2.5651,-2.5651,-2.5651,-2.5651,-2.5651,-2.5651,-2.5651,-2.5687,-2.588,-2.594,-2.5977,-2.617,-2.6218,-2.6218,-2.6218,-2.6218,-2.6218,-2.6218,-2.6218,-2.6218,-2.6218,-2.6278,-2.668,-2.6869,-2.7107,-2.7511,-2.7877,-2.77,-2.7763,-2.7953,-2.7649,-2.7523,-2.7877,-2.7687,-2.7586,-2.7251,-2.7275,-2.7169,-2.7015,-2.7027,-2.7027,-2.7027,-2.6846,-2.6929,-2.7275,-2.7078,-2.7511,-2.8393,-2.8569,-2.8706,-2.9165,-2.9165,-2.9125,-2.9032,-2.8818,-2.8724,0.0,0.0,-2.5792,-2.479,-2.4625,-2.4625,-2.4625,-2.4842,-2.5035,-2.5035,-2.524,-2.5409,-2.5421,-2.5421,-2.5421,-2.5433,-2.5433,-2.5433,-2.5433,-2.5433,-2.5433,-2.5433,-2.5433,-2.5433,0.0,-2.5433,-2.5433,-2.5433,-2.5433,-2.5433,-2.5433,-2.5433,-2.5433,-2.5433,-2.5433,-2.5433,-2.5433,-2.5433,-2.5433,-2.5433,-2.5433,-2.5433,-2.5433,-2.5433,-2.5433,-2.5433,-2.5433,-2.5578,-2.582,-2.582,-2.5965,-2.6194,-2.6194,-2.6194,-2.6206,-2.6194,-2.6194,-2.6194,-2.6194,-2.6194,-2.6194,-2.6194,-2.6194,-2.6194,-2.6206,-2.6206,-2.6206,-2.6218,-2.6218,-2.6218,-2.6218,-2.6218,-2.6218,-2.6218,-2.6218,-2.6218,-2.6218,-2.6778,-2.7318,-2.7318,-2.79,-2.8449,-2.8449,-2.8076,-2.7715,-2.7715,-2.7365,-2.7365,-2.8269,-2.8076,-2.7534,-2.7015,-2.7015,-2.7027,-2.7027,-2.7027,-2.7027,-2.7027,-2.7027,-2.7015,-2.7015,-2.7353,-2.7895,-2.8449,-2.8976,-2.9204,-2.9472,-2.9472,-2.9325,-2.9045,-2.9032,-2.9032,0.0,0.0,-2.5793,-2.5118,-2.5035,-2.5168,-2.5168,-2.524,-2.5313,-2.5313,-2.5543,-2.5763,-2.5433,-2.5604,-2.5763,-2.5433,-2.5433,-2.5433,-2.5433,-2.5433,-2.5433,-2.5433,-2.5433,0.0,0.0,0.0,0.0,-2.5433,-2.5433,-2.5433,-2.5433,-2.5433,-2.5433,-2.5433,-2.5433,-2.5433,-2.5433,-2.5433,-2.5433,-2.5433,-2.5433,-2.5433,-2.5446,-2.5615,-2.5699,-2.5711,-2.588,-2.6013,-2.6085,-2.6085,-2.6146,-2.6218,-2.6218,-2.6327,-2.6496,-2.6496,-2.6604,-2.6701,-2.6351,-2.6218,-2.6218,-2.6218,-2.6218,-2.6254,-2.6447,-2.6496,-2.6532,-2.6713,-2.6761,-2.6761,-2.6761,-2.6761,-2.6761,-2.6761,-2.6761,-2.6761,-2.6761,-2.7014,-2.7075,-2.7075,-2.7328,-2.7571,-2.7571,-2.7536,-2.7524,-2.7694,-2.7244,-2.7027,-2.739,-2.7549,-2.7463,-2.7292,-2.7449,-2.7546,-2.7546,-2.7546,-2.7546,-2.7546,-2.7546,-2.7546,-2.7546,-2.81,-2.8394,-2.8754,-2.9287,-2.9506,-2.9766,-2.9766,-2.9726,-2.9619,-2.9419,-2.9339,0.0,-2.6348,-2.6236,-2.5398,-2.5313,-2.5433,-2.5433,-2.5433,-2.5433,-2.5433,-2.5763,-2.5933,-2.5433,-2.5763,-2.5933,-2.5433,-2.5433,-2.5433,-2.5433,-2.5433,-2.5433,-2.5433,-2.5433,-2.5433,0.0,0.0,0.0,-2.5263,-2.4749,-2.4738,-2.5433,-2.4738,-2.4738,-2.5433,-2.5433,-2.5433,-2.5433,-2.5433,-2.5433,-2.5433,-2.553,-2.5578,-2.559,-2.5844,-2.5965,-2.5977,-2.6146,-2.6278,-2.6363,-2.6363,-2.6423,-2.6508,-2.6508,-2.6616,-2.6773,-2.6773,-2.6882,-2.6979,-2.6629,-2.6508,-2.6508,-2.6508,-2.6508,-2.6544,-2.6725,-2.6773,-2.681,-2.6979,-2.7027,-2.7027,-2.7027,-2.7027,-2.7027,-2.7027,-2.7027,-2.7027,-2.7027,-2.7099,-2.7172,-2.7172,-2.7244,-2.7304,-2.7304,-2.7449,-2.7618,-2.7787,-2.7522,-2.7304,-2.7304,-2.7461,-2.7558,-2.7558,-2.7715,-2.7811,-2.7811,-2.7811,-2.7811,-2.7811,-2.7811,-2.7811,-2.7811,-2.857,-2.8854,-2.9047,-2.9769,-3.0043,-3.0234,-3.0234,-3.0181,-3.0074,-2.9887,-2.974,-2.6953,-2.6796,-2.6456,-2.5604,-2.5433,-2.5433,-2.5433,-2.5433,-2.5433,-2.5433,-2.5763,-2.5933,0.0,0.0,-2.5933,-2.5433,-2.5433,-2.5433,-2.5433,-2.5433,-2.5433,0.0,0.0,0.0,0.0,0.0,0.0,-2.5092,0.0,-2.3525,-2.5263,-2.3697,-2.3525,-2.5263,-2.5433,-2.5433,-2.5433,-2.5446,-2.5458,-2.5482,-2.5735,-2.5844,-2.5856,-2.6122,-2.6242,-2.6242,-2.6254,-2.6411,-2.6665,-2.6665,-2.681,-2.7027,-2.7027,-2.7027,-2.7027,-2.7027,-2.7027,-2.7027,-2.7027,-2.7027,-2.7027,-2.7027,-2.7027,-2.7027,-2.7027,-2.7027,-2.7027,-2.7027,-2.7027,-2.7039,-2.7051,-2.7051,-2.7051,-2.7063,-2.7075,-2.7075,-2.7075,-2.7268,-2.7437,-2.7437,-2.7642,-2.7811,-2.7824,-2.7836,-2.7836,-2.7848,-2.786,-2.7848,-2.7811,-2.7824,-2.7836,-2.7836,-2.7848,-2.786,-2.786,-2.786,-2.786,-2.786,-2.786,-2.786,-2.786,-2.8781,-2.9339,-2.9327,-3.0254,-3.0808,-3.0795,-3.0795,-3.0648,-3.0381,-3.0381,-3.0234,-2.6273,-2.5933,-2.5775,-2.5433,-2.5433,-2.5433,-2.5433,-2.5433,-2.5433,-2.5433,-2.6116,-2.6443,0.0,0.0,0.0,-2.5604,-2.5433,0.0,-2.5433,-2.5433,0.0,0.0,0.0,-2.4921,-2.3525,-2.2998,0.0,0.0,-2.2998,-2.3525,-2.5263,-2.4909,-2.4909,-2.5433,-2.5433,-2.5433,-2.5433,-2.5627,-2.582,-2.6025,-2.6085,-2.6122,-2.6134,-2.6411,-2.6532,-2.6544,-2.6737,-2.687,-2.693,-2.693,-2.6966,-2.7027,-2.7027,-2.7027,-2.7027,-2.7027,-2.7027,-2.7027,-2.7027,-2.7027,-2.7027,-2.7027,-2.7027,-2.7027,-2.7027,-2.7027,-2.7027,-2.7027,-2.7027,-2.7075,-2.7268,-2.7317,-2.7377,-2.757,-2.7618,-2.7618,-2.7618,-2.7667,-2.7715,-2.7715,-2.7763,-2.7872,-2.8065,-2.8101,-2.8174,-2.8379,-2.8415,-2.827,-2.786,-2.798,-2.8101,-2.8101,-2.8294,-2.8415,-2.8415,-2.8415,-2.8415,-2.8415,-2.8415,-2.8415,-2.8415,-2.8987,-2.9267,-2.9055,-2.9619,-3.0078,-3.0241,-3.0241,-3.0386,-3.0675,-3.0675,-3.0635,-2.6103,-2.5933,-2.5604,-2.5433,-2.5433,-2.5433,-2.5433,-2.5433,-2.5433,-2.5604,-2.6273,0.0,0.0,0.0,0.0,0.0,0.0,0.0,-2.5433,-2.5433,-2.5433,0.0,-2.4738,0.0,-2.2826,-2.1262,-2.0915,0.0,-2.1953,-2.2654,-2.5263,-2.4566,-2.4566,-2.5433,-2.5433,-2.5494,-2.5602,-2.5868,-2.6073,-2.6218,-2.6351,-2.6399,-2.6411,-2.6689,-2.6257,-2.5523,0.0,-2.573,-2.573,-2.573,-2.6288,-2.7027,-2.7027,-2.7027,-2.7039,-2.716,-2.7208,-2.722,-2.7329,-2.7377,-2.7341,-2.7099,-2.7111,-2.7208,-2.7208,-2.728,-2.7377,-2.7377,-2.7377,-2.7413,-2.7558,-2.7594,-2.763,-2.7775,-2.7811,-2.7811,-2.7811,-2.7908,-2.8017,-2.8137,-2.8174,-2.821,-2.8367,-2.8391,-2.8439,-2.8596,-2.862,-2.8512,-2.821,-2.8294,-2.8391,-2.8391,-2.8524,-2.862,-2.862,-2.862,-2.862,-2.862,-2.862,-2.862,-2.862,-2.9196,-2.9313,-2.9152,-2.9709,-3.0011,-3.0434,-3.0434,-3.0556,-3.0982,-3.0982,-3.0915,-2.6103,-2.5933,-2.5933,-2.5433,-2.5433,-2.5433,-2.5433,-2.5433,-2.5604,-2.5933,0.0,0.0,-2.6626,0.0,-2.6613,-2.6103,0.0,-2.5433,-2.5433,-2.5433,-2.5263,-2.5092,-2.3697,-2.2481,-2.1953,-1.9177,-1.8828,-2.1953,-2.1088,-2.178,-2.5263,-2.3869,-2.3537,-2.4968,-2.5139,-2.5282,-2.558,-2.5982,-2.6291,-2.6327,-2.658,-2.6689,-2.6701,-2.6556,-2.573,-2.4064,-2.3881,0.0,-2.4064,-2.4064,-2.5195,-2.7087,-2.7087,-2.7099,-2.716,-2.7389,-2.7473,-2.751,-2.7739,-2.7811,-2.7739,-2.728,-2.7292,-2.7473,-2.7473,-2.763,-2.7811,-2.7811,-2.7811,-2.7824,-2.786,-2.786,-2.7872,-2.7908,-2.792,-2.792,-2.792,-2.8101,-2.8331,-2.8572,-2.862,-2.862,-2.862,-2.862,-2.862,-2.862,-2.862,-2.862,-2.862,-2.862,-2.862,-2.862,-2.862,-2.862,-2.862,-2.862,-2.862,-2.862,-2.862,-2.862,-2.862,-2.9004,-2.9375,-2.9375,-2.9758,-3.014,-3.0726,-3.0726,-3.0975,-3.1289,-3.1289,-3.1156,-2.5604,-2.5604,-2.5433,-2.5433,-2.5433,-2.5433,-2.5433,-2.5775,0.0,0.0,0.0,-2.6613,-2.5775,-2.5933,0.0,-2.5604,0.0,0.0,0.0,0.0,-2.4738,0.0,0.0,0.0,0.0,0.0,0.0,0.0,0.0,-2.317,-2.5263,-2.5092,-2.4488,-2.3457,-2.3468,-2.3677,-2.4129,-2.5628,-2.6677,-2.6894,-2.6942,-2.6966,-2.6966,-2.5343,-2.443,-2.4064,-2.2402,0.0,-2.4064,-2.4064,-2.5296,-2.7353,-2.7353,-2.7486,-2.7679,-2.7727,-2.7739,-2.7751,-2.7799,-2.7811,-2.7799,-2.7703,-2.7703,-2.7739,-2.7739,-2.7775,-2.7811,-2.7811,-2.7811,-2.786,-2.8077,-2.8137,-2.8198,-2.8427,-2.8487,-2.8487,-2.8487,-2.8524,-2.856,-2.8608,-2.862,-2.862,-2.862,-2.862,-2.862,-2.862,-2.862,-2.862,-2.862,-2.862,-2.862,-2.862,-2.862,-2.862,-2.862,-2.862,-2.862,-2.862,-2.862,-2.862,-2.862,-2.862,-2.8812,-2.8812,-2.8812,-2.9375,-3.0319,-3.0319,-3.0674,-3.1597,-3.1597,-3.157,-2.5433,-2.5433,-2.5433,-2.5433,-2.5433,-2.5433,-2.5433,0.0,0.0,0.0,0.0,-2.6443,-2.6116,0.0,0.0,0.0,0.0,0.0,0.0,0.0,0.0,0.0,0.0,0.0,0.0,0.0,0.0,0.0,0.0,-2.0915,-2.3869,-2.3108,-2.2235,-2.157,-2.169,-2.2388,-2.3709,-2.4755,-2.5797,-2.7027,-2.5913,-2.5537,-2.5354,-2.3515,-2.2034,-2.0917,-2.0001,0.0,-2.1272,-2.2387,-2.4016,-2.6108,-2.7247,-2.7703,-2.7824,-2.7968,-2.8017,-2.8041,-2.8186,-2.8234,-2.8234,-2.8234,-2.8137,-2.8017,-2.8017,-2.8113,-2.8234,-2.8234,-2.8234,-2.8258,-2.8391,-2.8427,-2.8451,-2.8596,-2.862,-2.862,-2.862,-2.862,-2.862,-2.862,-2.862,-2.8669,-2.8801,-2.8825,-2.8874,-2.9006,-2.9031,-2.9031,-2.9031,-2.9031,-2.8982,-2.8837,-2.8946,-2.9031,-2.9031,-2.9031,-2.9031,-2.9031,-2.9031,-2.9031,-2.9031,-2.9031,-2.9031,-2.9031,-2.9225,-2.9735,-3.0357,-3.0549,-3.1047,-3.1664,-3.1664,-3.1664,-2.5433,-2.5433,-2.5433,-2.5433,-2.5433,-2.5433,-2.5433,-2.5433,0.0,0.0,0.0,0.0,0.0,0.0,0.0,0.0,0.0,0.0,0.0,0.0,0.0,0.0,0.0,0.0,0.0,0.0,0.0,0.0,0.0,0.0,-2.2026,-2.0481,-1.9624,-1.9825,-2.0343,-2.1546,-2.306,-2.415,-2.5354,-2.6288,-2.4807,-2.3881,-2.3321,-2.1296,-1.9657,-1.8208,-1.7647,0.0,0.0,-2.0736,-2.2735,-2.5029,-2.7134,-2.7733,-2.7428,-2.802,-2.8092,-2.7736,-2.8356,-2.862,-2.862,-2.862,-2.8475,-2.8294,-2.8294,-2.8451,-2.862,-2.862,-2.862,-2.862,-2.862,-2.862,-2.8632,-2.8693,-2.8705,-2.8717,-2.8777,-2.8789,-2.8789,-2.8789,-2.8789,-2.885,-2.9067,-2.9103,-2.9163,-2.9369,-2.9405,-2.9405,-2.9405,-2.9453,-2.9405,-2.92,-2.932,-2.9405,-2.9405,-2.9405,-2.9405,-2.9405,-2.9405,-2.9405,-2.9405,-2.9405,-2.9405,-2.9405,-2.9787,-3.0278,-3.0662,-3.1037,-3.15,-3.1851,-3.1797,-3.1757,-2.5433,-2.5433,-2.5433,-2.5433,-2.5433,-2.5433,-2.5433,0.0,0.0,0.0,0.0,0.0,0.0,0.0,0.0,0.0,0.0,-2.4738,0.0,0.0,0.0,0.0,0.0,0.0,0.0,0.0,0.0,0.0,0.0,0.0,-2.0314,-1.874,-1.7854,-1.7859,-1.9879,-2.1077,-2.1267,-2.4978,-2.5913,-2.443,-2.4247,-2.3137,-2.1296,-1.9259,-1.8428,-1.8214,-1.6518,0.0,0.0,-2.0738,-2.2964,-2.5278,-2.7392,-2.7152,-2.599,-2.7792,-2.7395,-2.6023,-2.8019,-2.862,-2.862,-2.862,-2.8608,-2.8584,-2.8584,-2.8608,-2.862,-2.862,-2.862,-2.862,-2.862,-2.862,-2.8681,-2.8922,-2.8982,-2.9043,-2.9284,-2.9332,-2.9332,-2.9332,-2.9332,-2.9344,-2.9369,-2.9369,-2.9381,-2.9405,-2.9405,-2.9405,-2.9405,-2.961,-2.9755,-2.9731,-2.9538,-2.9405,-2.9405,-2.9405,-2.9405,-2.9405,-2.9405,-2.9405,-2.9405,-2.9405,-2.9405,-2.9405,-2.9405,-2.9984,-3.0954,-3.0954,-3.1516,-3.2452,-3.2185,-3.2064,-2.5433,-2.5433,-2.5433,-2.5433,-2.5433,-2.5433,-2.5433,0.0,0.0,0.0,0.0,-2.5604,-2.5433,0.0,0.0,0.0,0.0,0.0,0.0,0.0,0.0,0.0,0.0,0.0,0.0,0.0,0.0,0.0,0.0,0.0,-1.7136,-1.6293,-1.6037,-1.6197,-1.6941,-1.8079,-1.9259,-2.0927,-2.185,-2.2218,-2.1111,-2.0064,-1.944,-1.7381,-1.6532,-1.6692,-1.5931,0.0,0.0,-1.922,-2.0676,-2.1828,-2.3769,-2.4207,-2.39,-2.5862,-2.6249,-2.5862,-2.7839,-2.862,-2.8644,-2.8801,-2.8862,-2.8825,-2.8669,-2.862,-2.8656,-2.8813,-2.8862,-2.8898,-2.9055,-2.9091,-2.9127,-2.9224,-2.9248,-2.9272,-2.9381,-2.9405,-2.9405,-2.9405,-2.9405,-2.9453,-2.961,-2.9634,-2.9695,-2.9864,-2.9888,-2.9888,-2.9888,-2.9984,-3.0045,-3.0045,-2.996,-2.9888,-2.9888,-2.9888,-2.9888,-2.9888,-2.9888,-2.9888,-2.9888,-2.9888,-2.9888,-2.9888,-3.0289,-3.0602,-3.1234,-3.163,-3.1933,-3.2545,-3.2425,-3.2372,-2.5433,-2.5433,-2.5433,-2.5433,-2.5433,-2.5433,0.0,0.0,0.0,-2.5433,-2.5433,-2.5433,-2.5433,-2.5433,-2.5433,-2.5433,-2.5433,-2.5263,-2.4566,0.0,0.0,0.0,0.0,0.0,0.0,0.0,0.0,0.0,0.0,0.0,0.0,-1.5031,-1.5079,-1.5181,-1.5744,-1.6666,-1.8152,-1.8702,-1.948,-2.0286,-1.8794,-1.7954,-1.7558,-1.6046,-1.556,-1.5703,-1.5703,0.0,0.0,-1.8247,-1.9102,-1.9413,-2.1557,-2.1949,-2.1557,-2.3706,-2.4535,-2.4988,-2.7159,-2.8197,-2.8886,-2.9067,-2.9127,-2.9091,-2.891,-2.885,-2.8898,-2.9079,-2.9127,-2.9175,-2.9357,-2.9405,-2.9429,-2.9501,-2.9513,-2.955,-2.9622,-2.9646,-2.9646,-2.9646,-2.9646,-2.9707,-2.9888,-2.9924,-2.9984,-3.0189,-3.0214,-3.0214,-3.0214,-3.0214,-3.0214,-3.0214,-3.0214,-3.0214,-3.0214,-3.0214,-3.0214,-3.0214,-3.0214,-3.0214,-3.0214,-3.0214,-3.0214,-3.0214,-3.0619,-3.0925,-3.1527,-3.1913,-3.2405,-3.2799,-3.2719,-3.2625,-2.5433,-2.5433,-2.5433,-2.5433,-2.5433,-2.5433,0.0,0.0,0.0,-2.5433,-2.5433,-2.5433,-2.5433,-2.5433,-2.5433,-2.5433,-2.5433,-2.4738,-2.2826,0.0,0.0,0.0,0.0,0.0,0.0,0.0,0.0,0.0,0.0,0.0,0.0,-1.5181,-1.5181,-1.5181,-1.704,-1.8152,-1.8152,-2.0001,-2.0109,-1.8428,-1.8428,-1.7383,-1.5635,-1.5635,-1.5716,0.0,0.0,0.0,0.0,-1.8434,-1.9216,-1.9413,-2.1557,-2.0969,-1.9413,-2.1557,-2.2472,-2.3058,-2.524,-2.7384,-2.9393,-2.9393,-2.9405,-2.9405,-2.9393,-2.9393,-2.9393,-2.9405,-2.9405,-2.9405,-2.9405,-2.9405,-2.9465,-2.9731,-2.9791,-2.9864,-3.0153,-3.0202,-3.0202,-3.0202,-3.0202,-3.0214,-3.0214,-3.0214,-3.0214,-3.0214,-3.0214,-3.0214,-3.0214,-3.0214,-3.0214,-3.0214,-3.0214,-3.0214,-3.0214,-3.0214,-3.0214,-3.0214,-3.0214,-3.0214,-3.0214,-3.0214,-3.0214,-3.0214,-3.0214,-3.0822,-3.1806,-3.1806,-3.241,-3.34,-3.3106,-3.2826,-2.5433,-2.5433,-2.5433,-2.5433,-2.5433,-2.5433,-2.5433,0.0,0.0,-2.5433,-2.5433,-2.5433,-2.5433,-2.5433,-2.4921,-2.3697,-2.4566,-2.4395,0.0,0.0,0.0,0.0,0.0,0.0,0.0,0.0,0.0,0.0,0.0,0.0,0.0,-1.5181,-1.5181,-1.5181,-1.5737,-1.6162,-1.6277,-1.6837,-1.6927,-1.6522,-1.6522,-1.6215,-1.5784,-1.5784,-1.5866,0.0,0.0,0.0,0.0,-1.6871,-1.7062,-1.7062,-1.7848,-1.7717,-1.7428,-1.9601,-2.1496,-2.3269,-2.5273,-2.752,-2.9429,-2.961,-2.967,-2.9707,-2.99,-2.9695,-2.9441,-2.9622,-2.9815,-2.996,-2.996,-2.996,-2.9984,-3.0069,-3.0081,-3.0105,-3.0202,-3.0214,-3.0214,-3.0214,-3.0214,-3.0214,-3.0214,-3.0214,-3.0214,-3.0214,-3.0214,-3.0214,-3.0214,-3.0214,-3.0214,-3.0214,-3.0214,-3.0214,-3.0214,-3.0214,-3.0214,-3.0214,-3.0214,-3.0214,-3.0214,-3.0214,-3.0214,-3.0214,-3.0214,-3.0619,-3.1214,-3.1214,-3.1819,-3.2812,-3.312,-3.312,0.0,-2.4909,-2.5263,-2.4566,-2.4909,0.0,0.0,0.0,0.0,-2.5433,-2.5433,-2.5433,-2.5433,-2.4909,-2.4041,-2.2826,-2.2998,-2.2481,0.0,0.0,0.0,0.0,0.0,0.0,0.0,0.0,0.0,0.0,0.0,0.0,0.0,-1.5235,-1.5269,-1.5269,-1.5269,-1.5316,-1.5411,-1.5466,-1.5574,-1.5716,-1.5716,-1.5798,-1.594,-1.594,-1.5995,0.0,0.0,0.0,0.0,-1.6144,-1.6171,-1.6171,-1.6225,-1.6307,-1.6591,-1.7791,-1.9897,-2.2278,-2.4287,-2.6569,-2.8507,-2.8669,-2.8099,-2.7514,-2.768,-2.8739,-2.9743,-2.9912,-3.0081,-3.0214,-3.0214,-3.0214,-3.0011,-2.9174,-2.9593,-3.0011,-2.9174,-2.9593,-3.0214,-3.0214,-3.0214,-3.0214,-3.0214,-3.0214,-3.0214,-3.0214,-3.0214,-3.0214,-3.0214,-3.0214,-3.0214,-3.0214,-3.0214,-3.0214,-3.0214,-3.0214,-3.0214,-3.0214,-3.0214,-3.0214,-3.0214,-3.0214,-3.0214,-3.0214,-3.0214,-3.0416,-3.1012,-3.1214,-3.1617,-3.2209,-3.2812,-3.292,0.0,0.0,0.0,0.0,0.0,0.0,0.0,0.0,0.0,0.0,0.0,0.0,0.0,-2.3869,-2.2654,-2.2298,-2.0915,-1.9873,0.0,0.0,0.0,0.0,0.0,0.0,0.0,0.0,0.0,0.0,0.0,0.0,0.0,-1.5337,-1.5418,-1.5425,-1.5438,-1.5445,-1.5445,-1.5581,-1.5723,-1.5866,-1.5866,-1.5947,-1.6083,-1.6083,-1.6083,0.0,0.0,0.0,0.0,-1.6259,-1.6327,-1.6341,-1.6469,-1.653,-1.6537,-1.6537,-1.8056,-2.0455,-2.2478,-2.4655,-2.6691,-2.6691,-2.5245,-2.3587,-2.3587,-2.6487,-2.9796,-2.9796,-2.9796,-2.9796,-2.9796,-2.9796,-2.9174,-2.7101,-2.8144,-2.9174,-2.7101,-2.8348,-2.9796,-3.0011,-3.0011,-3.0011,-3.0214,-3.0214,-3.0214,-3.0214,-3.0214,-3.0214,-3.0214,-3.0214,-3.0214,-3.0214,-3.0214,-3.0226,-3.0238,-3.0226,-3.0214,-3.0214,-3.0214,-3.0214,-3.0214,-3.0214,-3.0214,-3.0214,-3.0214,-3.0416,-3.1012,-3.1416,-3.1819,-3.1819,-3.241,-3.2611,0.0,0.0,0.0,0.0,0.0,0.0,0.0,0.0,0.0,0.0,0.0,0.0,0.0,0.0,-2.1608,-1.8828,-1.9177,-1.8828,0.0,0.0,0.0,0.0,0.0,0.0,0.0,0.0,0.0,0.0,0.0,0.0,0.0,-1.5391,-1.5466,-1.5581,-1.5689,-1.575,-1.575,-1.5784,-1.5879,-1.6029,-1.6029,-1.6049,-1.6083,-1.6083,-1.6083,0.0,0.0,0.0,-1.6266,-1.6415,-1.6469,-1.6476,-1.651,-1.6592,-1.6693,-1.6693,-1.8225,-2.043,-2.0836,-2.2518,-2.4412,-2.4412,-2.4,-2.3587,-2.3587,-2.4412,-2.5235,-2.5235,-2.5235,-2.5235,-2.5235,-2.5235,-2.5039,-2.4412,-2.4824,-2.5039,-2.4412,-2.4824,-2.5656,-2.7316,-2.7725,-2.8144,-3.0011,-3.0214,-3.0214,-3.0214,-3.0214,-3.0214,-3.0214,-3.0214,-3.0214,-3.0214,-3.0214,-3.0298,-3.0503,-3.0334,-3.0214,-3.0214,-3.0214,-3.0214,-3.0214,-3.0214,-3.0214,-3.0214,-3.0214,-3.0214,-3.0416,-3.1012,-3.1214,-3.1214,-3.2209,-3.2611,0.0,0.0,0.0,0.0,0.0,0.0,0.0,0.0,0.0,0.0,0.0,0.0,0.0,0.0,0.0,-1.7438,-1.7263,0.0,0.0,0.0,0.0,0.0,0.0,0.0,0.0,0.0,0.0,0.0,0.0,0.0,0.0,-1.554,-1.5649,-1.5737,-1.5879,-1.5927,-1.5852,-1.5927,-1.6001,-1.6083,-1.6083,-1.6083,-1.6083,-1.6151,-1.6185,0.0,0.0,0.0,-1.6422,-1.6564,-1.6625,-1.6632,-1.6707,-1.6781,-1.6856,-1.6856,-1.7732,-1.8835,-1.9871,-2.1103,-2.214,-2.214,-2.1319,-2.0496,-2.0496,-2.0496,-2.0903,-2.2968,-2.3587,-2.3587,-2.3587,-2.3587,-2.3381,-2.2347,-2.2761,-2.3381,-2.2347,-2.2968,-2.4206,-2.6487,-2.6896,-2.752,-2.9796,-3.0214,-3.0262,-3.0383,-3.0395,-3.0443,-3.0564,-3.0576,-3.0576,-3.0576,-3.0576,-3.0636,-3.0769,-3.066,-3.0576,-3.0576,-3.0576,-3.0576,-3.0576,-3.0576,-3.0576,-3.0576,-3.0455,-3.0395,-3.0395,-3.0477,-3.0619,-3.0619,-3.1416,-3.2021,0.0,0.0,0.0,0.0,0.0,0.0,0.0,0.0,0.0,0.0,0.0,0.0,0.0,0.0,0.0,0.0,0.0,0.0,0.0,0.0,0.0,0.0,0.0,0.0,0.0,0.0,0.0,0.0,0.0,0.0,-1.5479,-1.5716,-1.5866,-1.5886,-1.6015,-1.6022,-1.5893,-1.6015,-1.6083,-1.6083,-1.6083,-1.6096,-1.6123,-1.6252,-1.632,-1.6347,0.0,0.0,-1.6571,-1.672,-1.6788,-1.6795,-1.6931,-1.6978,-1.6978,-1.6978,-1.6978,-1.7188,-1.9253,-1.9871,-1.9871,-1.9871,-1.8439,-1.7012,-1.7012,-1.7032,-1.7882,-2.1613,-2.2599,-2.2563,-2.259,-2.2599,-2.2193,-2.0353,-2.1196,-2.2229,-2.0361,-2.1404,-2.3267,-2.5552,-2.5965,-2.6798,-2.9291,-2.9711,-2.9998,-3.0636,-3.066,-3.0745,-3.0974,-3.0998,-3.0998,-3.0998,-3.0998,-3.101,-3.1059,-3.1059,-3.1071,-3.1119,-3.1046,-3.0998,-3.0998,-3.0998,-3.0998,-3.0998,-3.0781,-3.066,-3.066,-3.0443,-3.031,-3.0274,-3.0883,-3.1251,-1.4299,0.0,0.0,0.0,0.0,0.0,0.0,0.0,0.0,0.0,0.0,0.0,0.0,0.0,0.0,0.0,0.0,0.0,0.0,0.0,0.0,0.0,0.0,0.0,0.0,0.0,0.0,0.0,0.0,0.0,-1.5778,-1.5825,-1.5913,-1.6042,-1.6069,-1.6069,-1.6049,-1.6069,-1.6083,-1.6083,-1.6083,-1.6151,-1.6273,-1.63,-1.6374,-1.6497,0.0,-1.6714,-1.6727,-1.6883,-1.6944,-1.6944,-1.6971,-1.6978,-1.6978,-1.6978,-1.6978,-1.6978,-1.7391,-1.7601,-1.7601,-1.7601,-1.7271,-1.7161,-1.7161,-1.7249,-1.7566,-1.8202,-1.8222,-1.8049,-1.8171,-1.8208,-1.8031,-1.7953,-1.8202,-1.8202,-1.7988,-1.8202,-1.9051,-2.116,-2.1585,-2.306,-2.729,-2.7917,-2.8566,-3.0718,-3.0938,-3.095,-3.0986,-3.0998,-3.0998,-3.0998,-3.0998,-3.1083,-3.1312,-3.1324,-3.1433,-3.1674,-3.1252,-3.0998,-3.0998,-3.0998,-3.0998,-3.0998,-3.0962,-3.0938,-3.0938,-3.0902,-3.0769,-3.0552,-3.1154,-3.1426,-1.4299,-1.4299,0.0,0.0,0.0,0.0,0.0,0.0,0.0,0.0,0.0,0.0,0.0,0.0,0.0,0.0,0.0,0.0,0.0,0.0,0.0,0.0,0.0,0.0,0.0,0.0,0.0,0.0,0.0,0.0,-1.5852,-1.5934,-1.6008,-1.6083,-1.6083,-1.6123,-1.6205,-1.6205,-1.6205,-1.6205,-1.6205,-1.6279,-1.6429,-1.651,-1.6585,-1.6653,0.0,-1.6876,-1.6876,-1.6951,-1.6978,-1.6978,-1.6978,-1.6978,-1.6978,-1.6978,-1.6978,-1.6992,-1.7066,-1.7093,-1.7107,-1.7188,-1.7263,-1.7317,-1.7317,-1.7365,-1.7419,-1.7419,-1.7324,-1.7236,-1.7297,-1.7317,-1.7331,-1.7405,-1.7419,-1.7419,-1.7419,-1.7419,-1.8058,-2.0182,-2.061,-2.1669,-2.5058,-2.5691,-2.6365,-2.9045,-2.8223,-2.8479,-3.0987,-3.0352,-3.0129,-3.1222,-3.1433,-3.1481,-3.1602,-3.1614,-3.1674,-3.1795,-3.1578,-3.1433,-3.1433,-3.1433,-3.1433,-3.1433,-3.1288,-3.1215,-3.1215,-3.1071,-3.0938,-3.0817,-3.1024,-3.1289,-1.4299,-1.4299,0.0,0.0,0.0,0.0,0.0,0.0,0.0,0.0,0.0,0.0,0.0,0.0,0.0,0.0,0.0,0.0,0.0,0.0,0.0,0.0,0.0,0.0,0.0,0.0,0.0,0.0,0.0,0.0,-1.5906,-1.6015,-1.6096,-1.6137,-1.6137,-1.6205,-1.6361,-1.6361,-1.6361,-1.6361,-1.6361,-1.6435,-1.6578,-1.67,-1.6768,-1.6809,-1.6931,-1.6978,-1.6978,-1.6978,-1.6978,-1.6978,-1.6978,-1.7005,-1.7032,-1.7032,-1.7053,-1.71,-1.7209,-1.7243,-1.7263,-1.7385,-1.7446,-1.7473,-1.7473,-1.75,-1.7528,-1.7528,-1.7528,-1.7514,-1.748,-1.7473,-1.748,-1.7514,-1.7528,-1.7528,-1.7528,-1.7528,-1.7954,-1.9661,-2.0093,-2.073,-2.3072,-2.3286,-2.4186,-2.6714,-2.5673,-2.6162,-3.0465,-2.9393,-2.9178,-3.1593,-3.1807,-3.1807,-3.1807,-3.1807,-3.1807,-3.1807,-3.1807,-3.1807,-3.1807,-3.1807,-3.1807,-3.1807,-3.159,-3.1481,-3.1481,-3.1288,-3.1155,-3.1083,-3.1083,-3.1158,-1.4299,-1.4299,0.0,0.0,0.0,0.0,0.0,0.0,0.0,0.0,0.0,0.0,0.0,0.0,0.0,0.0,0.0,0.0,0.0,0.0,0.0,0.0,0.0,0.0,0.0,0.0,0.0,0.0,0.0,0.0,-1.6069,-1.6076,-1.6144,-1.6286,-1.6293,-1.6361,-1.6503,-1.6503,-1.6503,-1.6503,-1.6503,-1.6585,-1.6734,-1.6748,-1.6829,-1.6965,-1.6978,-1.6978,-1.6978,-1.6978,-1.6978,-1.6978,-1.6978,-1.706,-1.7175,-1.7175,-1.727,-1.7392,-1.7399,-1.7405,-1.7405,-1.7419,-1.7514,-1.7629,-1.7629,-1.7717,-1.7826,-1.7826,-1.7826,-1.7792,-1.767,-1.7629,-1.767,-1.7792,-1.7826,-1.7826,-1.7826,-1.7826,-1.7826,-1.8053,-1.8053,-1.8928,-2.1092,-2.1546,-2.2193,-2.4589,-2.4806,-2.5683,-2.8307,-2.8307,-2.9178,-3.1593,-3.1807,-3.1807,-3.1807,-3.1807,-3.1807,-3.1807,-3.1807,-3.1807,-3.1807,-3.1807,-3.1807,-3.1807,-3.1795,-3.1783,-3.1783,-3.1759,-3.1614,-3.136,-3.136,-3.1425,-1.4299,-1.4299,0.0,0.0,0.0,0.0,0.0,0.0,0.0,0.0,0.0,0.0,0.0,0.0,0.0,0.0,0.0,0.0,0.0,0.0,0.0,0.0,0.0,0.0,0.0,0.0,0.0,0.0,0.0,0.0,-1.6083,-1.6171,-1.6252,-1.6307,-1.6395,-1.651,-1.6659,-1.6666,-1.6714,-1.6809,-1.6707,-1.6741,-1.6897,-1.6897,-1.6924,-1.6978,-1.6978,-1.6978,-1.6978,-1.6978,-1.6978,-1.6992,-1.708,-1.7202,-1.7331,-1.7331,-1.7372,-1.7433,-1.7528,-1.7561,-1.7575,-1.767,-1.7738,-1.7772,-1.7772,-1.7826,-1.786,-1.786,-1.786,-1.7846,-1.7792,-1.7772,-1.7792,-1.7846,-1.786,-1.786,-1.786,-1.786,-1.786,-1.786,-1.786,-1.8074,-1.8949,-1.9177,-2.005,-2.2219,-2.1343,-2.1781,-2.5693,-2.6136,-2.7002,-2.9393,-3.0928,-3.1807,-3.1807,-3.1807,-3.1807,-3.1807,-3.1807,-3.1807,-3.1807,-3.1807,-3.1807,-3.1807,-3.1807,-3.1807,-3.1807,-3.1807,-3.1759,-3.165,-3.165,-3.1717,-1.4299,-1.4299,0.0,0.0,0.0,0.0,0.0,0.0,0.0,0.0,0.0,0.0,0.0,0.0,0.0,0.0,0.0,0.0,0.0,0.0,0.0,0.0,0.0,0.0,0.0,0.0,0.0,0.0,0.0,0.0,0.0,-1.6252,-1.6354,-1.6442,-1.6544,-1.6666,-1.6822,-1.6822,-1.6876,-1.6978,-1.6876,-1.6876,-1.6978,-1.6978,-1.6978,-1.6978,-1.6978,-1.6978,-1.6985,-1.7026,-1.7073,-1.7127,-1.7229,-1.7358,-1.7494,-1.7494,-1.7521,-1.7575,-1.7684,-1.7717,-1.7738,-1.7826,-1.786,-1.786,-1.786,-1.786,-1.786,-1.786,-1.786,-1.786,-1.786,-1.786,-1.786,-1.786,-1.786,-1.786,-1.786,-1.786,-1.786,-1.786,-1.786,-1.786,-1.786,-1.786,-1.8522,-2.005,-1.8964,-1.9397,-2.3093,-2.3747,-2.4835,-2.7865,-2.9833,-3.0714,-3.0714,-3.1368,-3.1154,-2.9619,-3.094,-3.1807,-3.1807,-3.1807,-3.1807,-3.1807,-3.1807,-3.1807,-3.1807,-3.1807,-3.1807,-3.1807,-3.1807,-3.171,-1.4299,0.0,0.0,0.0,0.0,0.0,0.0,0.0,0.0,0.0,0.0,0.0,0.0,0.0,0.0,0.0,0.0,0.0,0.0,0.0,0.0,0.0,0.0,0.0,0.0,0.0,0.0,0.0,0.0,0.0,0.0,-1.6313,-1.6449,-1.6741,-1.6754,-1.6829,-1.6978,-1.6978,-1.6978,-1.6978,-1.6978,-1.6978,-1.6978,-1.6978,-1.6978,-1.6985,-1.6985,-1.6985,-1.6998,-1.7134,-1.7283,-1.7419,-1.7419,-1.7514,-1.765,-1.765,-1.7738,-1.786,-1.786,-1.786,-1.786,-1.786,-1.786,-1.786,-1.786,-1.786,-1.786,-1.786,-1.786,-1.786,-1.786,-1.786,-1.786,-1.786,-1.786,-1.786,-1.786,-1.786,-1.786,-1.786,-1.786,-1.786,-1.786,-1.786,-1.786,-1.786,-1.786,-1.8736,-2.0929,-2.136,-2.3084,-2.7865,-2.8307,-2.8307,-2.8307,-3.0488,-2.9845,-2.5052,-2.9189,-3.1807,-3.1807,-3.1807,-3.1807,-3.1807,-3.1807,-3.1807,-3.1807,-3.1807,-3.1807,-3.1807,-3.1807,-3.1807,-1.4299,0.0,0.0,0.0,0.0,0.0,0.0,0.0,0.0,0.0,0.0,0.0,0.0,0.0,0.0,0.0,0.0,0.0,0.0,0.0,0.0,0.0,0.0,0.0,0.0,0.0,0.0,0.0,0.0,0.0,0.0,-1.651,-1.6659,-1.6748,-1.6856,-1.6937,-1.6978,-1.6978,-1.6978,-1.6978,-1.6978,-1.6978,-1.6978,-1.6978,-1.7032,-1.7127,-1.7127,-1.7188,-1.7297,-1.7338,-1.7446,-1.7582,-1.7582,-1.767,-1.7792,-1.7792,-1.7826,-1.786,-1.786,-1.786,-1.786,-1.786,-1.786,-1.786,-1.786,-1.786,-1.786,-1.786,-1.786,-1.786,-1.786,-1.786,-1.786,-1.786,-1.786,-1.786,-1.786,-1.786,-1.786,-1.786,-1.786,-1.786,-1.786,-1.786,-1.786,-1.786,-1.786,-1.8736,-2.0929,-2.136,-2.2446,-2.5486,-2.591,-2.591,-2.591,-2.6569,-2.6353,-2.4835,-2.6136,-2.766,-2.9178,-3.0928,-3.1807,-3.1807,-3.1807,-3.1807,-3.1807,-3.1807,-3.1807,-3.1807,-3.1807,-3.1807,0.0,0.0,0.0,0.0,0.0,0.0,0.0,0.0,0.0,0.0,0.0,0.0,0.0,0.0,0.0,0.0,0.0,0.0,0.0,0.0,0.0,0.0,0.0,0.0,0.0,0.0,0.0,0.0,0.0,0.0,0.0,-1.6653,-1.6781,-1.6842,-1.6931,-1.6978,-1.6978,-1.6978,-1.7012,-1.7066,-1.7066,-1.71,-1.7154,-1.7093,-1.7148,-1.7283,-1.7283,-1.7372,-1.7514,-1.7514,-1.7595,-1.7738,-1.7738,-1.7792,-1.786,-1.786,-1.786,-1.786,-1.786,-1.786,-1.7846,-1.7792,-1.7772,-1.7772,-1.7704,-1.7684,-1.7684,-1.7684,-1.7684,-1.7684,-1.7684,-1.7684,-1.7724,-1.7826,-1.786,-1.786,-1.786,-1.786,-1.786,-1.786,-1.786,-1.786,-1.786,-1.786,-1.786,-1.786,-1.786,-1.8302,-1.9838,-2.005,-2.0921,-2.3093,-2.3311,-2.3311,-2.3311,-2.4182,-2.3965,-2.221,-2.3747,-2.5042,-2.5486,-2.8748,-3.0928,-3.1807,-3.1807,-3.1807,-3.1807,-3.1807,-3.1807,-3.1807,-3.1807,-3.1807,0.0,0.0,0.0,0.0,0.0,0.0,0.0,0.0,0.0,0.0,0.0,0.0,0.0,0.0,0.0,0.0,0.0,0.0,0.0,0.0,0.0,0.0,0.0,0.0,0.0,0.0,0.0,0.0,0.0,0.0,0.0,-1.6761,-1.6836,-1.6978,-1.6978,-1.6978,-1.6978,-1.6992,-1.7066,-1.7195,-1.7209,-1.729,-1.7439,-1.7283,-1.7297,-1.7439,-1.7453,-1.7541,-1.767,-1.767,-1.7738,-1.786,-1.786,-1.786,-1.786,-1.7846,-1.7846,-1.7846,-1.7826,-1.7826,-1.7812,-1.767,-1.7629,-1.7602,-1.746,-1.7419,-1.7419,-1.7419,-1.7419,-1.7419,-1.7419,-1.7419,-1.7487,-1.7758,-1.7826,-1.7826,-1.7846,-1.7846,-1.7846,-1.786,-1.786,-1.786,-1.786,-1.786,-1.786,-1.786,-1.786,-1.786,-1.786,-1.786,-1.8736,-2.0701,-2.0929,-2.0929,-2.0929,-2.2883,-2.2437,-1.8074,-2.1781,-2.3311,-2.136,-2.592,-2.9393,-3.1368,-3.1593,-3.1807,-3.1807,-3.1807,-3.1807,-3.1807,-3.1807,-3.1807,0.0,0.0,0.0,0.0,0.0,0.0,0.0,0.0,0.0,0.0,0.0,0.0,0.0,0.0,0.0,0.0,0.0,0.0,0.0,0.0,0.0,0.0,0.0,0.0,0.0,0.0,0.0,0.0,0.0,0.0,-1.6748,-1.6863,-1.6944,-1.6978,-1.6978,-1.6978,-1.6978,-1.7093,-1.7161,-1.7195,-1.7311,-1.7453,-1.7595,-1.7439,-1.7453,-1.7609,-1.7717,-1.7792,-1.7812,-1.7812,-1.7826,-1.786,-1.786,-1.786,-1.7846,-1.7738,-1.7704,-1.7684,-1.7555,-1.7514,-1.7514,-1.748,-1.7467,-1.746,-1.7433,-1.7419,-1.7419,-1.7419,-1.7419,-1.7419,-1.7419,-1.7419,-1.7439,-1.75,-1.7514,-1.7548,-1.767,-1.7704,-1.7717,-1.7846,-1.786,-1.786,-1.786,-1.786,-1.786,-1.786,-1.786,-1.786,-1.786,-1.786,-1.8088,-1.8515,-1.8736,-1.8736,-1.8736,-1.917,-1.8949,-1.7867,-1.8743,-2.005,-2.136,-2.592,-2.8522,-2.8963,-3.0928,-3.1807,-3.1807,-3.1807,-3.1807,-3.1807,-3.1807,-3.1807,0.0,0.0,0.0,0.0,0.0,0.0,0.0,0.0,0.0,0.0,0.0,0.0,0.0,0.0,0.0,0.0,0.0,0.0,0.0,0.0,0.0,0.0,0.0,0.0,0.0,0.0,0.0,0.0,0.0,-1.6781,-1.6856,-1.6937,-1.6978,-1.6978,-1.7046,-1.708,-1.708,-1.7229,-1.7338,-1.7412,-1.7494,-1.7609,-1.7758,-1.767,-1.767,-1.7758,-1.7826,-1.786,-1.786,-1.7792,-1.7758,-1.7758,-1.7684,-1.765,-1.765,-1.7568,-1.7541,-1.7528,-1.7446,-1.7419,-1.7405,-1.7338,-1.7311,-1.7297,-1.7229,-1.7209,-1.7209,-1.7209,-1.7209,-1.7222,-1.7297,-1.7311,-1.7331,-1.7405,-1.7419,-1.7439,-1.7521,-1.7541,-1.7582,-1.7738,-1.7758,-1.7772,-1.7846,-1.786,-1.786,-1.786,-1.786,-1.786,-1.786,-1.786,-1.786,-1.786,-1.786,-1.786,-1.786,-1.786,-1.786,-1.786,-1.786,-1.8522,-1.961,-2.3084,-2.5486,-2.6569,-2.8963,-3.0048,-3.0059,-3.1154,-3.1807,-3.1807,-3.1807,-3.1807,0.0,0.0,0.0,0.0,0.0,0.0,0.0,0.0,0.0,0.0,0.0,0.0,0.0,0.0,0.0,0.0,0.0,0.0,0.0,0.0,0.0,0.0,0.0,0.0,0.0,0.0,0.0,0.0,0.0,-1.6842,-1.6971,-1.6978,-1.6992,-1.7019,-1.7127,-1.7202,-1.7229,-1.7385,-1.7521,-1.765,-1.767,-1.7758,-1.786,-1.7846,-1.7826,-1.7826,-1.7826,-1.7812,-1.7772,-1.767,-1.7609,-1.7595,-1.7467,-1.7419,-1.7419,-1.7392,-1.7385,-1.7378,-1.7351,-1.7344,-1.7324,-1.7222,-1.7195,-1.7175,-1.7087,-1.706,-1.706,-1.706,-1.706,-1.708,-1.7202,-1.7229,-1.7263,-1.7392,-1.7419,-1.7426,-1.7453,-1.746,-1.7507,-1.765,-1.7684,-1.7717,-1.7846,-1.786,-1.786,-1.786,-1.786,-1.786,-1.786,-1.786,-1.786,-1.786,-1.786,-1.786,-1.786,-1.786,-1.786,-1.786,-1.786,-1.786,-1.786,-1.9618,-2.1571,-2.3529,-2.6786,-2.8307,-2.8307,-3.0714,-3.1807,-3.1807,-3.1807,-3.1807,0.0,0.0,0.0,0.0,0.0,0.0,0.0,0.0,0.0,0.0,0.0,0.0,0.0,0.0,0.0,0.0,0.0,0.0,0.0,0.0,0.0,0.0,0.0,0.0,0.0,0.0,0.0,0.0,-1.6876,-1.6958,-1.6978,-1.6978,-1.7039,-1.7161,-1.7182,-1.7256,-1.7392,-1.7541,-1.7629,-1.765,-1.7772,-1.7846,-1.786,-1.7738,-1.7684,-1.7684,-1.7684,-1.7602,-1.748,-1.746,-1.7453,-1.7446,-1.7433,-1.7419,-1.7405,-1.727,-1.7222,-1.7202,-1.708,-1.7039,-1.706,-1.7161,-1.7195,-1.7216,-1.7324,-1.7365,-1.7365,-1.7365,-1.7365,-1.7365,-1.7385,-1.7392,-1.7399,-1.7412,-1.7419,-1.746,-1.7589,-1.7616,-1.767,-1.7812,-1.7826,-1.7846,-1.786,-1.786,-1.786,-1.786,-1.786,-1.786,-1.786,-1.786,-1.786,-1.786,-1.786,-1.786,-1.786,-1.786,-1.786,-1.786,-1.786,-1.786,-1.786,-1.8295,-1.853,-1.8743,-2.5042,-2.8307,-2.8307,-3.0714,-3.1807,-3.1807,-3.1807,-3.1807,0.0,0.0,0.0,0.0,0.0,0.0,0.0,0.0,0.0,0.0,0.0,0.0,0.0,0.0,0.0,0.0,0.0,0.0,0.0,0.0,0.0,0.0,0.0,0.0,0.0,0.0,0.0,0.0,-1.6944,-1.6978,-1.6978,-1.706,-1.7127,-1.7188,-1.7358,-1.748,-1.7548,-1.7704,-1.7772,-1.7772,-1.7826,-1.7826,-1.7738,-1.7684,-1.765,-1.765,-1.7555,-1.748,-1.7412,-1.7324,-1.729,-1.7283,-1.7209,-1.7175,-1.7168,-1.71,-1.7121,-1.7182,-1.7121,-1.7154,-1.7236,-1.7297,-1.7317,-1.7331,-1.7399,-1.7419,-1.7419,-1.7419,-1.7419,-1.7439,-1.7528,-1.7548,-1.7568,-1.765,-1.767,-1.7684,-1.7758,-1.7629,-1.7561,-1.7717,-1.7812,-1.786,-1.786,-1.786,-1.786,-1.786,-1.786,-1.786,-1.786,-1.786,-1.786,-1.786,-1.786,-1.786,-1.786,-1.786,-1.786,-1.786,-1.786,-1.786,-1.786,-1.786,-1.786,-1.786,-2.2236,-2.44,-2.44,-2.8091,-2.9833,-2.9833,-3.1154,-3.1807,0.0,0.0,0.0,0.0,0.0,0.0,0.0,0.0,0.0,0.0,0.0,0.0,0.0,0.0,0.0,0.0,0.0,0.0,0.0,0.0,0.0,0.0,0.0,0.0,0.0,0.0,0.0,0.0,-1.6978,-1.6998,-1.7032,-1.7134,-1.7229,-1.7304,-1.7528,-1.7663,-1.7704,-1.7812,-1.786,-1.786,-1.786,-1.7792,-1.765,-1.7609,-1.7568,-1.7528,-1.7412,-1.7344,-1.7297,-1.7182,-1.7141,-1.7127,-1.7019,-1.7005,-1.7032,-1.7032,-1.7127,-1.7249,-1.7249,-1.7324,-1.7426,-1.7467,-1.748,-1.7487,-1.7521,-1.7534,-1.7534,-1.7534,-1.7534,-1.7561,-1.767,-1.7704,-1.7738,-1.7846,-1.786,-1.786,-1.786,-1.7684,-1.7568,-1.7684,-1.7792,-1.786,-1.786,-1.786,-1.786,-1.786,-1.786,-1.786,-1.786,-1.786,-1.786,-1.786,-1.786,-1.786,-1.786,-1.786,-1.786,-1.786,-1.786,-1.786,-1.786,-1.786,-1.786,-1.786,-1.961,-2.0694,-2.136,-2.5476,-2.7649,-2.8307,-3.0059,-3.1154,0.0,0.0,0.0,0.0,0.0,0.0,0.0,0.0,0.0,0.0,0.0,0.0,0.0,0.0,0.0,0.0,0.0,0.0,0.0,0.0,0.0,0.0,0.0,0.0,0.0,0.0,0.0,0.0,-1.6978,-1.7039,-1.7175,-1.7188,-1.7324,-1.7616,-1.765,-1.7717,-1.7846,-1.786,-1.786,-1.786,-1.786,-1.7792,-1.765,-1.75,-1.7351,-1.7216,-1.7209,-1.7127,-1.7005,-1.6992,-1.6992,-1.6992,-1.6985,-1.7066,-1.7182,-1.7182,-1.7277,-1.7405,-1.7405,-1.7412,-1.7446,-1.7589,-1.7629,-1.767,-1.7792,-1.7846,-1.7846,-1.7846,-1.7846,-1.7846,-1.7846,-1.7846,-1.7846,-1.786,-1.786,-1.786,-1.786,-1.7846,-1.7846,-1.7846,-1.786,-1.786,-1.786,-1.786,-1.786,-1.786,-1.786,-1.786,-1.786,-1.786,-1.786,-1.786,-1.786,-1.786,-1.786,-1.786,-1.786,-1.786,-1.786,-1.786,-1.786,-1.786,-1.786,-1.786,-1.8088,-1.9177,-2.136,-2.3747,-2.6136,-2.8307,-2.8522,-2.9619,0.0,0.0,0.0,0.0,0.0,0.0,0.0,0.0,0.0,0.0,0.0,0.0,0.0,0.0,0.0,0.0,0.0,0.0,0.0,0.0,0.0,0.0,0.0,0.0,0.0,0.0,0.0,0.0,0.0,-1.7039,-1.7182,-1.7283,-1.7433,-1.765,-1.7738,-1.7812,-1.786,-1.786,-1.786,-1.786,-1.7772,-1.765,-1.75,-1.7344,-1.7195,-1.706,-1.706,-1.7026,-1.6978,-1.6978,-1.7032,-1.7114,-1.7114,-1.7209,-1.7338,-1.7338,-1.7439,-1.7568,-1.7568,-1.7629,-1.7724,-1.7772,-1.7792,-1.7792,-1.7846,-1.786,-1.786,-1.786,-1.786,-1.786,-1.786,-1.786,-1.786,-1.786,-1.786,-1.786,-1.786,-1.786,-1.786,-1.786,-1.786,-1.786,-1.786,-1.786,-1.786,-1.786,-1.786,-1.786,-1.786,-1.786,-1.786,-1.786,-1.786,-1.786,-1.786,-1.786,-1.786,-1.786,-1.786,-1.786,-1.786,-1.786,-1.786,-1.786,-1.786,-1.8302,-1.9177,-2.1368,-2.2883,-2.3965,-2.7002,-2.8737,0.0,0.0,0.0,0.0,0.0,0.0,0.0,0.0,0.0,0.0,0.0,0.0,0.0,0.0,0.0,0.0,0.0,0.0,0.0,0.0,0.0,0.0,0.0,0.0,0.0,0.0,0.0,0.0,0.0,0.0,-1.7263,-1.7412,-1.7568,-1.7717,-1.7812,-1.786,-1.786,-1.786,-1.786,-1.786,-1.7717,-1.7568,-1.7412,-1.7263,-1.7114,-1.6985,-1.7032,-1.7053,-1.7053,-1.7053,-1.7141,-1.727,-1.727,-1.7365,-1.75,-1.75,-1.7589,-1.7717,-1.7717,-1.7792,-1.786,-1.786,-1.786,-1.786,-1.786,-1.786,-1.786,-1.786,-1.786,-1.786,-1.786,-1.786,-1.786,-1.786,-1.786,-1.786,-1.786,-1.786,-1.786,-1.786,-1.786,-1.786,-1.786,-1.786,-1.786,-1.786,-1.786,-1.786,-1.786,-1.786,-1.786,-1.786,-1.786,-1.786,-1.786,-1.786,-1.786,-1.786,-1.786,-1.786,-1.786,-1.786,-1.786,-1.786,-1.786,-1.786,-1.786,-1.9383,-2.049,-2.136,-2.44,-2.6786,0.0,0.0,0.0,0.0,0.0,0.0,0.0,0.0,0.0,0.0,0.0,0.0,0.0,0.0,0.0,0.0,0.0,0.0,0.0,0.0,0.0,0.0,0.0,0.0,0.0,0.0,0.0,0.0,-1.7114,-1.7256,-1.7412,-1.7568,-1.7717,-1.786,-1.786,-1.786,-1.786,-1.786,-1.786,-1.786,-1.7704,-1.7561,-1.7405,-1.7256,-1.7114,-1.6992,-1.7134,-1.7195,-1.7202,-1.7202,-1.729,-1.7426,-1.7426,-1.7521,-1.765,-1.765,-1.7738,-1.786,-1.786,-1.786,-1.786,-1.786,-1.786,-1.786,-1.786,-1.786,-1.786,-1.786,-1.786,-1.786,-1.786,-1.786,-1.786,-1.786,-1.786,-1.786,-1.786,-1.786,-1.786,-1.786,-1.786,-1.786,-1.786,-1.786,-1.786,-1.786,-1.786,-1.786,-1.786,-1.786,-1.786,-1.786,-1.786,-1.786,-1.786,-1.786,-1.786,-1.786,-1.786,-1.786,-1.786,-1.786,-1.786,-1.786,-1.786,-1.786,-1.786,-1.786,-1.8949,-2.1132,-2.136,-2.3747,-1.4299,0.0,0.0,0.0,0.0,0.0,0.0,0.0,0.0,0.0,0.0,0.0,0.0,0.0,0.0,0.0,0.0,0.0,0.0,0.0,0.0,0.0,0.0,-1.6937,-1.6978,-1.6978,-1.6978,0.0,-1.7114,-1.7256,-1.7412,-1.767,-1.7826,-1.786,-1.786,-1.786,-1.786,-1.786,-1.7812,-1.7704,-1.7555,-1.7405,-1.7249,-1.7107,-1.7073,-1.7134,-1.7175,-1.7317,-1.7514,-1.7405,-1.7446,-1.7589,-1.7589,-1.767,-1.7812,-1.7812,-1.7826,-1.786,-1.786,-1.786,-1.786,-1.786,-1.786,-1.786,-1.786,-1.786,-1.786,-1.786,-1.786,-1.786,-1.786,-1.786,-1.786,-1.786,-1.786,-1.786,-1.786,-1.786,-1.786,-1.786,-1.786,-1.786,-1.786,-1.786,-1.786,-1.786,-1.786,-1.786,-1.786,-1.786,-1.786,-1.786,-1.786,-1.786,-1.786,-1.786,-1.786,-1.786,-1.786,-1.786,-1.786,-1.786,-1.786,-1.786,-1.786,-1.786,-1.786,-1.786,-1.8295,-1.8964,-2.049,-2.3747,0.0,0.0,0.0,0.0,0.0,0.0,-1.497,-1.5079,-1.5181,0.0,0.0,0.0,0.0,0.0,0.0,0.0,0.0,0.0,0.0,0.0,0.0,-1.6734,-1.689,-1.6978,-1.6978,-1.6978,-1.6978,-1.6978,-1.7168,-1.7378,-1.7595,-1.7772,-1.786,-1.786,-1.786,-1.786,-1.786,-1.786,-1.7792,-1.765,-1.7494,-1.7338,-1.7188,-1.7107,-1.7114,-1.7202,-1.7324,-1.7487,-1.765,-1.7616,-1.765,-1.7738,-1.7738,-1.7792,-1.786,-1.786,-1.786,-1.786,-1.786,-1.786,-1.786,-1.786,-1.786,-1.786,-1.786,-1.786,-1.786,-1.786,-1.786,-1.786,-1.786,-1.786,-1.786,-1.786,-1.786,-1.786,-1.786,-1.786,-1.786,-1.786,-1.786,-1.786,-1.786,-1.786,-1.786,-1.786,-1.786,-1.786,-1.786,-1.786,-1.786,-1.786,-1.786,-1.786,-1.786,-1.786,-1.786,-1.786,-1.786,-1.786,-1.786,-1.786,-1.786,-1.786,-1.786,-1.786,-1.786,-1.786,-1.786,-1.7867,-2.0255,-2.3311,0.0,0.0,0.0,0.0,0.0,0.0,-1.4977,-1.5079,-1.5187,-1.5201,-1.5438,0.0,0.0,0.0,0.0,0.0,0.0,0.0,-1.6307,-1.6442,-1.6585,-1.6754,-1.6897,-1.6978,-1.6978,-1.6978,-1.6985,-1.7005,-1.7277,-1.7568,-1.7846,-1.786,-1.786,-1.786,-1.786,-1.786,-1.786,-1.786,-1.7772,-1.7623,-1.7487,-1.7338,-1.7195,-1.7195,-1.7209,-1.7256,-1.7534,-1.7663,-1.7684,-1.7812,-1.786,-1.786,-1.786,-1.786,-1.786,-1.786,-1.786,-1.786,-1.786,-1.786,-1.786,-1.786,-1.786,-1.786,-1.786,-1.786,-1.786,-1.786,-1.786,-1.786,-1.786,-1.786,-1.786,-1.786,-1.786,-1.786,-1.786,-1.786,-1.786,-1.786,-1.786,-1.786,-1.786,-1.786,-1.786,-1.786,-1.786,-1.786,-1.786,-1.786,-1.786,-1.786,-1.786,-1.786,-1.786,-1.786,-1.786,-1.786,-1.786,-1.786,-1.786,-1.786,-1.786,-1.786,-1.786,-1.786,-1.786,-1.786,-1.786,-1.7867,-2.005,-2.2236,0.0,0.0,0.0,0.0,0.0,0.0,-1.4997,-1.5079,-1.5215,0.0,-1.5513,-1.5723,-1.5988,-1.6062,-1.6083,-1.6083,-1.6083,-1.6178,-1.6442,-1.6503,-1.6625,-1.6904,-1.6965,-1.6978,-1.6978,-1.6978,-1.7026,-1.7141,-1.7433,-1.7684,-1.7846,-1.786,-1.786,-1.786,-1.786,-1.786,-1.786,-1.786,-1.7724,-1.7467,-1.7433,-1.7338,-1.7195,-1.7195,-1.7324,-1.7561,-1.7623,-1.7717,-1.7826,-1.7846,-1.786,-1.786,-1.786,-1.786,-1.786,-1.786,-1.786,-1.786,-1.786,-1.786,-1.786,-1.786,-1.786,-1.786,-1.786,-1.786,-1.786,-1.786,-1.786,-1.786,-1.786,-1.786,-1.786,-1.786,-1.786,-1.786,-1.786,-1.786,-1.786,-1.786,-1.786,-1.786,-1.786,-1.786,-1.786,-1.786,-1.786,-1.786,-1.786,-1.786,-1.786,-1.786,-1.786,-1.786,-1.786,-1.786,-1.786,-1.786,-1.786,-1.786,-1.786,-1.786,-1.786,-1.786,-1.786,-1.786,-1.786,-1.786,-1.786,-1.786,-1.8302,-1.9823,0.0,0.0,0.0,-1.5059,0.0,0.0,0.0,-1.5194,-1.5343,-1.5493,-1.5642,-1.5818,-1.6042,0.0,-1.6083,-1.6083,-1.6083,-1.6185,-1.6476,-1.6524,-1.6639,-1.6944,-1.6978,-1.6978,-1.6978,-1.6978,-1.7073,-1.729,-1.7521,-1.7717,-1.786,-1.786,-1.786,-1.786,-1.786,-1.786,-1.786,-1.786,-1.7724,-1.7419,-1.75,-1.7412,-1.7195,-1.7351,-1.75,-1.765,-1.7717,-1.7792,-1.786,-1.786,-1.786,-1.786,-1.786,-1.786,-1.786,-1.786,-1.786,-1.786,-1.786,-1.786,-1.786,-1.786,-1.786,-1.786,-1.786,-1.786,-1.786,-1.786,-1.786,-1.786,-1.786,-1.786,-1.786,-1.786,-1.786,-1.786,-1.786,-1.786,-1.786,-1.786,-1.786,-1.786,-1.786,-1.786,-1.786,-1.786,-1.786,-1.786,-1.786,-1.786,-1.786,-1.786,-1.786,-1.786,-1.786,-1.786,-1.786,-1.786,-1.786,-1.786,-1.786,-1.786,-1.786,-1.786,-1.786,-1.786,-1.786,-1.786,-1.786,-1.786,-1.786,-1.9177,0.0,0.0,0.0,0.0,0.0,-1.4999,0.0,0.0,0.0,-1.5642,0.0,0.0,0.0,0.0,0.0,0.0,0.0,0.0,0.0,-1.6483,0.0,-1.6944,-1.6978,-1.6978,-1.6978,-1.7032,-1.7161,-1.7405,-1.7589,-1.7738,-1.786,-1.786,-1.786,-1.786,-1.786,-1.786,-1.786,-1.786,-1.7724,-1.7419,-1.7575,-1.75,-1.7243,-1.7521,-1.7663,-1.7704,-1.7812,-1.786,-1.786,-1.786,-1.786,-1.786,-1.786,-1.786,-1.786,-1.786,-1.786,-1.786,-1.786,-1.786,-1.786,-1.786,-1.786,-1.786,-1.786,-1.786,-1.786,-1.786,-1.786,-1.786,-1.786,-1.786,-1.786,-1.786,-1.786,-1.786,-1.786,-1.786,-1.786,-1.786,-1.786,-1.786,-1.786,-1.786,-1.786,-1.786,-1.786,-1.786,-1.786,-1.786,-1.786,-1.786,-1.786,-1.786,-1.786,-1.786,-1.786,-1.786,-1.786,-1.786,-1.786,-1.786,-1.786,-1.786,-1.786,-1.786,-1.786,-1.786,-1.786,-1.786,-1.786,-1.8964,0.0,0.0,0.0,0.0,-1.4422,0.0,0.0,0.0,-1.5493,-1.5771,0.0,0.0,0.0,0.0,0.0,0.0,0.0,0.0,-1.613,-1.6354,-1.6639,-1.6944,-1.6978,-1.6978,-1.6978,-1.7216,-1.7385,-1.7419,-1.7684,-1.7846,-1.786,-1.786,-1.786,-1.786,-1.786,-1.786,-1.786,-1.786,-1.7724,-1.7419,-1.7575,-1.7561,-1.7399,-1.7568,-1.7717,-1.7846,-1.786,-1.786,-1.786,-1.786,-1.786,-1.786,-1.786,-1.786,-1.786,-1.786,-1.786,-1.786,-1.786,-1.786,-1.786,-1.786,-1.786,-1.786,-1.786,-1.786,-1.786,-1.786,-1.786,-1.786,-1.786,-1.786,-1.786,-1.786,-1.786,-1.786,-1.786,-1.786,-1.786,-1.786,-1.786,-1.786,-1.786,-1.786,-1.786,-1.786,-1.786,-1.786,-1.786,-1.786,-1.786,-1.786,-1.786,-1.786,-1.786,-1.786,-1.786,-1.786,-1.786,-1.786,-1.786,-1.786,-1.786,-1.786,-1.786,-1.786,-1.786,-1.786,-1.786,-1.786,-1.786,-1.8088,0.0,0.0,0.0,0.0,0.0,0.0,0.0,0.0,-1.5321,0.0,0.0,0.0,0.0,0.0,0.0,0.0,-1.6001,0.0,0.0,0.0,-1.6639,0.0,0.0,0.0,-1.6978,-1.7249,-1.7419,-1.7419,-1.7704,-1.786,-1.786,-1.786,-1.786,-1.786,-1.786,-1.786,-1.786,-1.7772,-1.7684,-1.7555,-1.7616,-1.7616,-1.7555,-1.7704,-1.7812,-1.786,-1.786,-1.786,-1.786,-1.786,-1.786,-1.786,-1.786,-1.786,-1.786,-1.786,-1.786,-1.786,-1.786,-1.786,-1.786,-1.786,-1.786,-1.786,-1.786,-1.786,-1.786,-1.786,-1.786,-1.786,-1.786,-1.786,-1.786,-1.786,-1.786,-1.786,-1.786,-1.786,-1.786,-1.786,-1.786,-1.786,-1.786,-1.786,-1.786,-1.786,-1.786,-1.786,-1.786,-1.786,-1.786,-1.786,-1.786,-1.786,-1.786,-1.786,-1.786,-1.786,-1.786,-1.786,-1.786,-1.786,-1.786,-1.786,-1.786,-1.786,-1.786,-1.786,-1.786,-1.786,-1.786,-1.786,-1.2651,0.0,0.0,0.0,0.0,0.0,0.0,0.0,0.0,0.0,0.0,0.0,0.0,0.0,0.0,0.0,0.0,-1.6205,0.0,0.0,0.0,0.0,0.0,0.0,0.0,-1.7249,-1.7419,-1.7419,-1.7704,-1.786,-1.786,-1.786,-1.786,-1.786,-1.786,-1.786,-1.786,-1.7717,-1.765,-1.765,-1.765,-1.765,-1.765,-1.7792,-1.786,-1.786,-1.786,-1.786,-1.786,-1.786,-1.786,-1.786,-1.786,-1.786,-1.786,-1.786,-1.786,-1.786,-1.786,-1.786,-1.786,-1.786,-1.786,-1.786,-1.786,-1.786,-1.786,-1.786,-1.786,-1.786,-1.786,-1.786,-1.786,-1.786,-1.786,-1.786,-1.786,-1.786,-1.786,-1.786,-1.786,-1.786,-1.786,-1.786,-1.786,-1.786,-1.786,-1.786,-1.786,-1.786,-1.786,-1.786,-1.786,-1.786,-1.786,-1.786,-1.786,-1.786,-1.786,-1.786,-1.786,-1.786,-1.786,-1.786,-1.786,-1.786,-1.786,-1.786,-1.786,-1.786,-1.786,-1.786,0.0,0.0,0.0,-1.3103,0.0,0.0,0.0,0.0,-1.4521,0.0,0.0,0.0,0.0,0.0,0.0,-1.5696,-1.6022,0.0,0.0,0.0,0.0,0.0,0.0,0.0,0.0,-1.7249,-1.7419,-1.7419,-1.7704,-1.786,-1.786,-1.786,-1.786,-1.786,-1.786,-1.786,-1.786,-1.7717,-1.765,-1.765,-1.765,-1.765,-1.765,-1.7792,-1.786,-1.786,-1.786,-1.786,-1.786,-1.786,-1.786,-1.786,-1.786,-1.786,-1.786,-1.786,-1.786,-1.786,-1.786,-1.786,-1.786,-1.786,-1.786,-1.786,-1.786,-1.786,-1.786,-1.786,-1.786,-1.786,-1.786,-1.786,-1.786,-1.786,-1.786,-1.786,-1.786,-1.786,-1.786,-1.786,-1.786,-1.786,-1.786,-1.786,-1.786,-1.786,-1.786,-1.786,-1.786,-1.786,-1.786,-1.786,-1.786,-1.786,-1.786,-1.786,-1.786,-1.786,-1.786,-1.786,-1.786,-1.786,-1.786,-1.786,-1.786,-1.786,-1.786,-1.786,-1.786,-1.786,-1.786,-1.786,0.0,0.0,-1.2645,-1.2841,0.0,0.0,0.0,0.0,0.0,0.0,0.0,0.0,0.0,0.0,-1.5797,-1.6096,-1.6286,-1.6469,0.0,0.0,0.0,0.0,0.0,0.0,0.0,0.0,-1.7419,-1.7419,-1.7704,-1.786,-1.786,-1.786,-1.786,-1.786,-1.786,-1.786,-1.786,-1.7623,-1.7595,-1.7792,-1.7589,-1.7602,-1.7792,-1.7846,-1.786,-1.786,-1.786,-1.786,-1.786,-1.786,-1.786,-1.786,-1.786,-1.786,-1.786,-1.786,-1.786,-1.786,-1.786,-1.786,-1.786,-1.786,-1.786,-1.786,-1.786,-1.786,-1.786,-1.786,-1.786,-1.786,-1.786,-1.786,-1.786,-1.786,-1.786,-1.786,-1.786,-1.786,-1.786,-1.786,-1.786,-1.786,-1.786,-1.786,-1.786,-1.786,-1.786,-1.786,-1.786,-1.786,-1.786,-1.786,-1.786,-1.786,-1.786,-1.786,-1.786,-1.786,-1.786,-1.786,-1.786,-1.786,-1.786,-1.786,-1.786,-1.786,-1.786,-1.786,-1.786,-1.786,-1.786,-1.786,-1.2661,-1.2716,0.0,-1.277,-1.283,0.0,-1.329,0.0,0.0,0.0,0.0,0.0,0.0,0.0,0.0,-1.5982,-1.6101,-1.6446,0.0,-1.6917,0.0,0.0,0.0,0.0,0.0,0.0,-1.7365,-1.7419,-1.765,-1.7812,-1.786,-1.786,-1.786,-1.786,-1.786,-1.786,-1.786,-1.7623,-1.7623,-1.786,-1.7616,-1.7629,-1.786,-1.786,-1.786,-1.786,-1.786,-1.786,-1.786,-1.786,-1.786,-1.786,-1.786,-1.786,-1.786,-1.786,-1.786,-1.786,-1.786,-1.786,-1.786,-1.786,-1.786,-1.786,-1.786,-1.786,-1.788,-1.8002,-1.7948,-1.788,-1.8002,-1.7948,-1.786,-1.786,-1.786,-1.786,-1.786,-1.786,-1.786,-1.786,-1.786,-1.786,-1.786,-1.786,-1.786,-1.786,-1.786,-1.786,-1.786,-1.786,-1.786,-1.786,-1.786,-1.786,-1.786,-1.786,-1.786,-1.786,-1.786,-1.786,-1.786,-1.786,-1.788,-1.7948,-1.7901,-1.7901,-1.7948,-1.7901,-1.786,-1.786,-1.786,-1.786]}]]